<?xml version="1.0" encoding="UTF-8" standalone="no" ?>
<gpx xmlns="http://www.topografix.com/GPX/1/1" xmlns:xsi="http://www.w3.org/2001/XMLSchema-instance" xsi:schemaLocation="http://www.topografix.com/GPX/1/1 http://www.topografix.com/GPX/1/1/gpx.xsd" version="1.1" creator="VisuGPX - https://www.visugpx.com">
  <metadata>
    <name>randonnée VTT forêt de haye 06/07/2013</name>
    <desc><![CDATA[randonnée VTT du 06/07/2013]]></desc>
  </metadata>
  <trk>
    <name><![CDATA[06 juillet 2013]]></name>
    <trkseg>
      <trkpt lat="48.6862" lon="6.15794">
        <ele>229</ele>
        <time>2013-07-06T10:11:35Z</time>
      </trkpt>
      <trkpt lat="48.68657" lon="6.15699">
        <ele>229</ele>
        <time>2013-07-06T10:11:35Z</time>
      </trkpt>
      <trkpt lat="48.686" lon="6.15935">
        <ele>230</ele>
        <time>2013-07-06T10:11:38Z</time>
      </trkpt>
      <trkpt lat="48.686" lon="6.15935">
        <ele>231</ele>
        <time>2013-07-06T10:11:44Z</time>
      </trkpt>
      <trkpt lat="48.68616" lon="6.15919">
        <ele>255</ele>
        <time>2013-07-06T10:11:52Z</time>
      </trkpt>
      <trkpt lat="48.68614" lon="6.15904">
        <ele>252</ele>
        <time>2013-07-06T10:11:54Z</time>
      </trkpt>
      <trkpt lat="48.68613" lon="6.15889">
        <ele>247</ele>
        <time>2013-07-06T10:11:56Z</time>
      </trkpt>
      <trkpt lat="48.68611" lon="6.15876">
        <ele>245</ele>
        <time>2013-07-06T10:11:58Z</time>
      </trkpt>
      <trkpt lat="48.68609" lon="6.15864">
        <ele>244</ele>
        <time>2013-07-06T10:12:00Z</time>
      </trkpt>
      <trkpt lat="48.68607" lon="6.15853">
        <ele>245</ele>
        <time>2013-07-06T10:12:02Z</time>
      </trkpt>
      <trkpt lat="48.68604" lon="6.15842">
        <ele>242</ele>
        <time>2013-07-06T10:12:04Z</time>
      </trkpt>
      <trkpt lat="48.68602" lon="6.15831">
        <ele>241</ele>
        <time>2013-07-06T10:12:06Z</time>
      </trkpt>
      <trkpt lat="48.686" lon="6.1582">
        <ele>242</ele>
        <time>2013-07-06T10:12:08Z</time>
      </trkpt>
      <trkpt lat="48.68597" lon="6.15811">
        <ele>241</ele>
        <time>2013-07-06T10:12:10Z</time>
      </trkpt>
      <trkpt lat="48.68594" lon="6.15802">
        <ele>244</ele>
        <time>2013-07-06T10:12:12Z</time>
      </trkpt>
      <trkpt lat="48.68589" lon="6.15793">
        <ele>247</ele>
        <time>2013-07-06T10:12:14Z</time>
      </trkpt>
      <trkpt lat="48.68588" lon="6.15783">
        <ele>245</ele>
        <time>2013-07-06T10:12:16Z</time>
      </trkpt>
      <trkpt lat="48.68584" lon="6.15773">
        <ele>245</ele>
        <time>2013-07-06T10:12:18Z</time>
      </trkpt>
      <trkpt lat="48.6858" lon="6.15764">
        <ele>253</ele>
        <time>2013-07-06T10:12:20Z</time>
      </trkpt>
      <trkpt lat="48.68575" lon="6.15757">
        <ele>256</ele>
        <time>2013-07-06T10:12:22Z</time>
      </trkpt>
      <trkpt lat="48.68573" lon="6.15749">
        <ele>256</ele>
        <time>2013-07-06T10:12:24Z</time>
      </trkpt>
      <trkpt lat="48.6857" lon="6.15741">
        <ele>261</ele>
        <time>2013-07-06T10:12:26Z</time>
      </trkpt>
      <trkpt lat="48.68565" lon="6.15733">
        <ele>260</ele>
        <time>2013-07-06T10:12:28Z</time>
      </trkpt>
      <trkpt lat="48.68561" lon="6.15722">
        <ele>262</ele>
        <time>2013-07-06T10:12:30Z</time>
      </trkpt>
      <trkpt lat="48.68558" lon="6.15712">
        <ele>261</ele>
        <time>2013-07-06T10:12:32Z</time>
      </trkpt>
      <trkpt lat="48.68556" lon="6.15701">
        <ele>261</ele>
        <time>2013-07-06T10:12:34Z</time>
      </trkpt>
      <trkpt lat="48.68552" lon="6.15691">
        <ele>262</ele>
        <time>2013-07-06T10:12:36Z</time>
      </trkpt>
      <trkpt lat="48.68551" lon="6.15681">
        <ele>262</ele>
        <time>2013-07-06T10:12:38Z</time>
      </trkpt>
      <trkpt lat="48.68549" lon="6.15672">
        <ele>267</ele>
        <time>2013-07-06T10:12:40Z</time>
      </trkpt>
      <trkpt lat="48.68545" lon="6.15664">
        <ele>267</ele>
        <time>2013-07-06T10:12:42Z</time>
      </trkpt>
      <trkpt lat="48.68542" lon="6.15654">
        <ele>268</ele>
        <time>2013-07-06T10:12:44Z</time>
      </trkpt>
      <trkpt lat="48.68539" lon="6.15644">
        <ele>266</ele>
        <time>2013-07-06T10:12:46Z</time>
      </trkpt>
      <trkpt lat="48.68535" lon="6.15636">
        <ele>266</ele>
        <time>2013-07-06T10:12:48Z</time>
      </trkpt>
      <trkpt lat="48.68531" lon="6.15627">
        <ele>267</ele>
        <time>2013-07-06T10:12:50Z</time>
      </trkpt>
      <trkpt lat="48.68528" lon="6.15615">
        <ele>263</ele>
        <time>2013-07-06T10:12:52Z</time>
      </trkpt>
      <trkpt lat="48.68525" lon="6.15605">
        <ele>254</ele>
        <time>2013-07-06T10:12:54Z</time>
      </trkpt>
      <trkpt lat="48.68522" lon="6.15591">
        <ele>243</ele>
        <time>2013-07-06T10:12:56Z</time>
      </trkpt>
      <trkpt lat="48.68519" lon="6.1558">
        <ele>245</ele>
        <time>2013-07-06T10:12:58Z</time>
      </trkpt>
      <trkpt lat="48.68516" lon="6.15569">
        <ele>251</ele>
        <time>2013-07-06T10:13:00Z</time>
      </trkpt>
      <trkpt lat="48.68513" lon="6.15558">
        <ele>252</ele>
        <time>2013-07-06T10:13:02Z</time>
      </trkpt>
      <trkpt lat="48.6851" lon="6.15545">
        <ele>253</ele>
        <time>2013-07-06T10:13:04Z</time>
      </trkpt>
      <trkpt lat="48.68506" lon="6.15534">
        <ele>252</ele>
        <time>2013-07-06T10:13:06Z</time>
      </trkpt>
      <trkpt lat="48.68501" lon="6.15521">
        <ele>253</ele>
        <time>2013-07-06T10:13:08Z</time>
      </trkpt>
      <trkpt lat="48.68497" lon="6.15507">
        <ele>259</ele>
        <time>2013-07-06T10:13:10Z</time>
      </trkpt>
      <trkpt lat="48.68493" lon="6.15493">
        <ele>259</ele>
        <time>2013-07-06T10:13:12Z</time>
      </trkpt>
      <trkpt lat="48.6849" lon="6.15479">
        <ele>258</ele>
        <time>2013-07-06T10:13:14Z</time>
      </trkpt>
      <trkpt lat="48.68485" lon="6.15466">
        <ele>253</ele>
        <time>2013-07-06T10:13:16Z</time>
      </trkpt>
      <trkpt lat="48.68481" lon="6.15452">
        <ele>253</ele>
        <time>2013-07-06T10:13:18Z</time>
      </trkpt>
      <trkpt lat="48.68478" lon="6.15439">
        <ele>253</ele>
        <time>2013-07-06T10:13:20Z</time>
      </trkpt>
      <trkpt lat="48.68476" lon="6.15425">
        <ele>251</ele>
        <time>2013-07-06T10:13:22Z</time>
      </trkpt>
      <trkpt lat="48.68473" lon="6.15412">
        <ele>253</ele>
        <time>2013-07-06T10:13:24Z</time>
      </trkpt>
      <trkpt lat="48.6847" lon="6.15398">
        <ele>253</ele>
        <time>2013-07-06T10:13:26Z</time>
      </trkpt>
      <trkpt lat="48.68467" lon="6.15384">
        <ele>253</ele>
        <time>2013-07-06T10:13:28Z</time>
      </trkpt>
      <trkpt lat="48.68463" lon="6.15372">
        <ele>255</ele>
        <time>2013-07-06T10:13:30Z</time>
      </trkpt>
      <trkpt lat="48.68461" lon="6.1536">
        <ele>254</ele>
        <time>2013-07-06T10:13:32Z</time>
      </trkpt>
      <trkpt lat="48.68458" lon="6.15347">
        <ele>251</ele>
        <time>2013-07-06T10:13:34Z</time>
      </trkpt>
      <trkpt lat="48.68457" lon="6.15334">
        <ele>252</ele>
        <time>2013-07-06T10:13:36Z</time>
      </trkpt>
      <trkpt lat="48.68456" lon="6.1532">
        <ele>246</ele>
        <time>2013-07-06T10:13:38Z</time>
      </trkpt>
      <trkpt lat="48.68453" lon="6.15306">
        <ele>245</ele>
        <time>2013-07-06T10:13:40Z</time>
      </trkpt>
      <trkpt lat="48.68449" lon="6.15293">
        <ele>245</ele>
        <time>2013-07-06T10:13:42Z</time>
      </trkpt>
      <trkpt lat="48.68448" lon="6.1528">
        <ele>247</ele>
        <time>2013-07-06T10:13:44Z</time>
      </trkpt>
      <trkpt lat="48.68448" lon="6.15269">
        <ele>248</ele>
        <time>2013-07-06T10:13:46Z</time>
      </trkpt>
      <trkpt lat="48.68445" lon="6.15258">
        <ele>248</ele>
        <time>2013-07-06T10:13:48Z</time>
      </trkpt>
      <trkpt lat="48.68443" lon="6.15247">
        <ele>246</ele>
        <time>2013-07-06T10:13:50Z</time>
      </trkpt>
      <trkpt lat="48.68441" lon="6.15238">
        <ele>246</ele>
        <time>2013-07-06T10:13:52Z</time>
      </trkpt>
      <trkpt lat="48.68438" lon="6.1523">
        <ele>245</ele>
        <time>2013-07-06T10:13:54Z</time>
      </trkpt>
      <trkpt lat="48.68435" lon="6.15222">
        <ele>248</ele>
        <time>2013-07-06T10:13:56Z</time>
      </trkpt>
      <trkpt lat="48.68432" lon="6.15212">
        <ele>252</ele>
        <time>2013-07-06T10:13:58Z</time>
      </trkpt>
      <trkpt lat="48.6843" lon="6.15205">
        <ele>248</ele>
        <time>2013-07-06T10:14:00Z</time>
      </trkpt>
      <trkpt lat="48.68428" lon="6.15199">
        <ele>253</ele>
        <time>2013-07-06T10:14:02Z</time>
      </trkpt>
      <trkpt lat="48.68428" lon="6.15193">
        <ele>250</ele>
        <time>2013-07-06T10:14:04Z</time>
      </trkpt>
      <trkpt lat="48.68427" lon="6.15184">
        <ele>252</ele>
        <time>2013-07-06T10:14:06Z</time>
      </trkpt>
      <trkpt lat="48.68427" lon="6.15176">
        <ele>254</ele>
        <time>2013-07-06T10:14:08Z</time>
      </trkpt>
      <trkpt lat="48.68425" lon="6.15168">
        <ele>258</ele>
        <time>2013-07-06T10:14:10Z</time>
      </trkpt>
      <trkpt lat="48.68421" lon="6.15159">
        <ele>259</ele>
        <time>2013-07-06T10:14:12Z</time>
      </trkpt>
      <trkpt lat="48.68418" lon="6.15151">
        <ele>258</ele>
        <time>2013-07-06T10:14:14Z</time>
      </trkpt>
      <trkpt lat="48.68414" lon="6.15143">
        <ele>252</ele>
        <time>2013-07-06T10:14:16Z</time>
      </trkpt>
      <trkpt lat="48.68411" lon="6.15133">
        <ele>248</ele>
        <time>2013-07-06T10:14:18Z</time>
      </trkpt>
      <trkpt lat="48.68409" lon="6.15124">
        <ele>250</ele>
        <time>2013-07-06T10:14:20Z</time>
      </trkpt>
      <trkpt lat="48.68407" lon="6.15117">
        <ele>253</ele>
        <time>2013-07-06T10:14:22Z</time>
      </trkpt>
      <trkpt lat="48.68405" lon="6.15109">
        <ele>253</ele>
        <time>2013-07-06T10:14:24Z</time>
      </trkpt>
      <trkpt lat="48.68404" lon="6.15101">
        <ele>253</ele>
        <time>2013-07-06T10:14:26Z</time>
      </trkpt>
      <trkpt lat="48.68403" lon="6.15092">
        <ele>254</ele>
        <time>2013-07-06T10:14:28Z</time>
      </trkpt>
      <trkpt lat="48.68402" lon="6.15084">
        <ele>259</ele>
        <time>2013-07-06T10:14:30Z</time>
      </trkpt>
      <trkpt lat="48.684" lon="6.15075">
        <ele>254</ele>
        <time>2013-07-06T10:14:32Z</time>
      </trkpt>
      <trkpt lat="48.68397" lon="6.15065">
        <ele>248</ele>
        <time>2013-07-06T10:14:34Z</time>
      </trkpt>
      <trkpt lat="48.68393" lon="6.15056">
        <ele>244</ele>
        <time>2013-07-06T10:14:36Z</time>
      </trkpt>
      <trkpt lat="48.68391" lon="6.15048">
        <ele>242</ele>
        <time>2013-07-06T10:14:38Z</time>
      </trkpt>
      <trkpt lat="48.68387" lon="6.15039">
        <ele>242</ele>
        <time>2013-07-06T10:14:40Z</time>
      </trkpt>
      <trkpt lat="48.68384" lon="6.15032">
        <ele>243</ele>
        <time>2013-07-06T10:14:42Z</time>
      </trkpt>
      <trkpt lat="48.6838" lon="6.15026">
        <ele>244</ele>
        <time>2013-07-06T10:14:44Z</time>
      </trkpt>
      <trkpt lat="48.68372" lon="6.15019">
        <ele>241</ele>
        <time>2013-07-06T10:14:46Z</time>
      </trkpt>
      <trkpt lat="48.68367" lon="6.15013">
        <ele>241</ele>
        <time>2013-07-06T10:14:48Z</time>
      </trkpt>
      <trkpt lat="48.68364" lon="6.15008">
        <ele>242</ele>
        <time>2013-07-06T10:14:50Z</time>
      </trkpt>
      <trkpt lat="48.68359" lon="6.15001">
        <ele>241</ele>
        <time>2013-07-06T10:14:52Z</time>
      </trkpt>
      <trkpt lat="48.68356" lon="6.14994">
        <ele>242</ele>
        <time>2013-07-06T10:14:54Z</time>
      </trkpt>
      <trkpt lat="48.68351" lon="6.14988">
        <ele>242</ele>
        <time>2013-07-06T10:14:56Z</time>
      </trkpt>
      <trkpt lat="48.68347" lon="6.14982">
        <ele>242</ele>
        <time>2013-07-06T10:14:58Z</time>
      </trkpt>
      <trkpt lat="48.68343" lon="6.14975">
        <ele>243</ele>
        <time>2013-07-06T10:15:00Z</time>
      </trkpt>
      <trkpt lat="48.6834" lon="6.14968">
        <ele>241</ele>
        <time>2013-07-06T10:15:02Z</time>
      </trkpt>
      <trkpt lat="48.68335" lon="6.14962">
        <ele>241</ele>
        <time>2013-07-06T10:15:04Z</time>
      </trkpt>
      <trkpt lat="48.68331" lon="6.14955">
        <ele>240</ele>
        <time>2013-07-06T10:15:06Z</time>
      </trkpt>
      <trkpt lat="48.68327" lon="6.1495">
        <ele>246</ele>
        <time>2013-07-06T10:15:08Z</time>
      </trkpt>
      <trkpt lat="48.68326" lon="6.14945">
        <ele>253</ele>
        <time>2013-07-06T10:15:10Z</time>
      </trkpt>
      <trkpt lat="48.68324" lon="6.14939">
        <ele>254</ele>
        <time>2013-07-06T10:15:12Z</time>
      </trkpt>
      <trkpt lat="48.68321" lon="6.14933">
        <ele>255</ele>
        <time>2013-07-06T10:15:14Z</time>
      </trkpt>
      <trkpt lat="48.68318" lon="6.14925">
        <ele>252</ele>
        <time>2013-07-06T10:15:16Z</time>
      </trkpt>
      <trkpt lat="48.68316" lon="6.14918">
        <ele>251</ele>
        <time>2013-07-06T10:15:18Z</time>
      </trkpt>
      <trkpt lat="48.68314" lon="6.14911">
        <ele>251</ele>
        <time>2013-07-06T10:15:20Z</time>
      </trkpt>
      <trkpt lat="48.6831" lon="6.14903">
        <ele>251</ele>
        <time>2013-07-06T10:15:22Z</time>
      </trkpt>
      <trkpt lat="48.68307" lon="6.14896">
        <ele>248</ele>
        <time>2013-07-06T10:15:24Z</time>
      </trkpt>
      <trkpt lat="48.68301" lon="6.14891">
        <ele>244</ele>
        <time>2013-07-06T10:15:26Z</time>
      </trkpt>
      <trkpt lat="48.68296" lon="6.14885">
        <ele>244</ele>
        <time>2013-07-06T10:15:28Z</time>
      </trkpt>
      <trkpt lat="48.68293" lon="6.14879">
        <ele>243</ele>
        <time>2013-07-06T10:15:30Z</time>
      </trkpt>
      <trkpt lat="48.6829" lon="6.14872">
        <ele>244</ele>
        <time>2013-07-06T10:15:32Z</time>
      </trkpt>
      <trkpt lat="48.68286" lon="6.14866">
        <ele>243</ele>
        <time>2013-07-06T10:15:34Z</time>
      </trkpt>
      <trkpt lat="48.68282" lon="6.14862">
        <ele>243</ele>
        <time>2013-07-06T10:15:36Z</time>
      </trkpt>
      <trkpt lat="48.68277" lon="6.14859">
        <ele>242</ele>
        <time>2013-07-06T10:15:38Z</time>
      </trkpt>
      <trkpt lat="48.68273" lon="6.14855">
        <ele>244</ele>
        <time>2013-07-06T10:15:40Z</time>
      </trkpt>
      <trkpt lat="48.6827" lon="6.14851">
        <ele>246</ele>
        <time>2013-07-06T10:15:42Z</time>
      </trkpt>
      <trkpt lat="48.68266" lon="6.14846">
        <ele>249</ele>
        <time>2013-07-06T10:15:44Z</time>
      </trkpt>
      <trkpt lat="48.68263" lon="6.14843">
        <ele>251</ele>
        <time>2013-07-06T10:15:46Z</time>
      </trkpt>
      <trkpt lat="48.68259" lon="6.1484">
        <ele>250</ele>
        <time>2013-07-06T10:15:48Z</time>
      </trkpt>
      <trkpt lat="48.68254" lon="6.14838">
        <ele>249</ele>
        <time>2013-07-06T10:15:50Z</time>
      </trkpt>
      <trkpt lat="48.6825" lon="6.14835">
        <ele>250</ele>
        <time>2013-07-06T10:15:52Z</time>
      </trkpt>
      <trkpt lat="48.68245" lon="6.14831">
        <ele>251</ele>
        <time>2013-07-06T10:15:54Z</time>
      </trkpt>
      <trkpt lat="48.68242" lon="6.14828">
        <ele>254</ele>
        <time>2013-07-06T10:15:56Z</time>
      </trkpt>
      <trkpt lat="48.68239" lon="6.14823">
        <ele>256</ele>
        <time>2013-07-06T10:15:58Z</time>
      </trkpt>
      <trkpt lat="48.68234" lon="6.1482">
        <ele>257</ele>
        <time>2013-07-06T10:16:00Z</time>
      </trkpt>
      <trkpt lat="48.68231" lon="6.14816">
        <ele>258</ele>
        <time>2013-07-06T10:16:02Z</time>
      </trkpt>
      <trkpt lat="48.68229" lon="6.1481">
        <ele>257</ele>
        <time>2013-07-06T10:16:04Z</time>
      </trkpt>
      <trkpt lat="48.68227" lon="6.14804">
        <ele>259</ele>
        <time>2013-07-06T10:16:06Z</time>
      </trkpt>
      <trkpt lat="48.68225" lon="6.14798">
        <ele>259</ele>
        <time>2013-07-06T10:16:08Z</time>
      </trkpt>
      <trkpt lat="48.68223" lon="6.14795">
        <ele>264</ele>
        <time>2013-07-06T10:16:10Z</time>
      </trkpt>
      <trkpt lat="48.68221" lon="6.14791">
        <ele>265</ele>
        <time>2013-07-06T10:16:12Z</time>
      </trkpt>
      <trkpt lat="48.68221" lon="6.14785">
        <ele>265</ele>
        <time>2013-07-06T10:16:14Z</time>
      </trkpt>
      <trkpt lat="48.68218" lon="6.1478">
        <ele>263</ele>
        <time>2013-07-06T10:16:16Z</time>
      </trkpt>
      <trkpt lat="48.68215" lon="6.14775">
        <ele>263</ele>
        <time>2013-07-06T10:16:18Z</time>
      </trkpt>
      <trkpt lat="48.68212" lon="6.14769">
        <ele>263</ele>
        <time>2013-07-06T10:16:20Z</time>
      </trkpt>
      <trkpt lat="48.68211" lon="6.14762">
        <ele>263</ele>
        <time>2013-07-06T10:16:22Z</time>
      </trkpt>
      <trkpt lat="48.68209" lon="6.14755">
        <ele>262</ele>
        <time>2013-07-06T10:16:24Z</time>
      </trkpt>
      <trkpt lat="48.68205" lon="6.14747">
        <ele>263</ele>
        <time>2013-07-06T10:16:26Z</time>
      </trkpt>
      <trkpt lat="48.68203" lon="6.14742">
        <ele>263</ele>
        <time>2013-07-06T10:16:28Z</time>
      </trkpt>
      <trkpt lat="48.682" lon="6.14735">
        <ele>263</ele>
        <time>2013-07-06T10:16:30Z</time>
      </trkpt>
      <trkpt lat="48.68193" lon="6.1473">
        <ele>264</ele>
        <time>2013-07-06T10:16:32Z</time>
      </trkpt>
      <trkpt lat="48.68189" lon="6.14724">
        <ele>265</ele>
        <time>2013-07-06T10:16:34Z</time>
      </trkpt>
      <trkpt lat="48.68185" lon="6.14717">
        <ele>266</ele>
        <time>2013-07-06T10:16:36Z</time>
      </trkpt>
      <trkpt lat="48.68182" lon="6.1471">
        <ele>265</ele>
        <time>2013-07-06T10:16:38Z</time>
      </trkpt>
      <trkpt lat="48.68178" lon="6.14703">
        <ele>266</ele>
        <time>2013-07-06T10:16:40Z</time>
      </trkpt>
      <trkpt lat="48.68173" lon="6.14698">
        <ele>269</ele>
        <time>2013-07-06T10:16:42Z</time>
      </trkpt>
      <trkpt lat="48.68168" lon="6.14692">
        <ele>271</ele>
        <time>2013-07-06T10:16:44Z</time>
      </trkpt>
      <trkpt lat="48.68164" lon="6.14686">
        <ele>272</ele>
        <time>2013-07-06T10:16:46Z</time>
      </trkpt>
      <trkpt lat="48.68159" lon="6.14677">
        <ele>270</ele>
        <time>2013-07-06T10:16:48Z</time>
      </trkpt>
      <trkpt lat="48.68153" lon="6.14669">
        <ele>267</ele>
        <time>2013-07-06T10:16:50Z</time>
      </trkpt>
      <trkpt lat="48.6815" lon="6.1466">
        <ele>267</ele>
        <time>2013-07-06T10:16:52Z</time>
      </trkpt>
      <trkpt lat="48.68146" lon="6.14651">
        <ele>266</ele>
        <time>2013-07-06T10:16:54Z</time>
      </trkpt>
      <trkpt lat="48.68143" lon="6.14643">
        <ele>268</ele>
        <time>2013-07-06T10:16:56Z</time>
      </trkpt>
      <trkpt lat="48.68138" lon="6.14633">
        <ele>266</ele>
        <time>2013-07-06T10:16:58Z</time>
      </trkpt>
      <trkpt lat="48.68134" lon="6.14623">
        <ele>268</ele>
        <time>2013-07-06T10:17:00Z</time>
      </trkpt>
      <trkpt lat="48.68128" lon="6.14614">
        <ele>267</ele>
        <time>2013-07-06T10:17:02Z</time>
      </trkpt>
      <trkpt lat="48.68123" lon="6.14606">
        <ele>266</ele>
        <time>2013-07-06T10:17:04Z</time>
      </trkpt>
      <trkpt lat="48.68118" lon="6.14599">
        <ele>266</ele>
        <time>2013-07-06T10:17:06Z</time>
      </trkpt>
      <trkpt lat="48.68114" lon="6.14592">
        <ele>264</ele>
        <time>2013-07-06T10:17:08Z</time>
      </trkpt>
      <trkpt lat="48.6811" lon="6.14585">
        <ele>265</ele>
        <time>2013-07-06T10:17:10Z</time>
      </trkpt>
      <trkpt lat="48.68106" lon="6.14578">
        <ele>266</ele>
        <time>2013-07-06T10:17:12Z</time>
      </trkpt>
      <trkpt lat="48.68102" lon="6.1457">
        <ele>267</ele>
        <time>2013-07-06T10:17:14Z</time>
      </trkpt>
      <trkpt lat="48.68098" lon="6.14562">
        <ele>267</ele>
        <time>2013-07-06T10:17:16Z</time>
      </trkpt>
      <trkpt lat="48.68095" lon="6.14554">
        <ele>267</ele>
        <time>2013-07-06T10:17:18Z</time>
      </trkpt>
      <trkpt lat="48.68092" lon="6.14546">
        <ele>267</ele>
        <time>2013-07-06T10:17:20Z</time>
      </trkpt>
      <trkpt lat="48.68089" lon="6.1454">
        <ele>268</ele>
        <time>2013-07-06T10:17:22Z</time>
      </trkpt>
      <trkpt lat="48.68087" lon="6.14532">
        <ele>267</ele>
        <time>2013-07-06T10:17:24Z</time>
      </trkpt>
      <trkpt lat="48.68083" lon="6.14524">
        <ele>268</ele>
        <time>2013-07-06T10:17:26Z</time>
      </trkpt>
      <trkpt lat="48.68079" lon="6.14517">
        <ele>267</ele>
        <time>2013-07-06T10:17:28Z</time>
      </trkpt>
      <trkpt lat="48.68075" lon="6.14509">
        <ele>265</ele>
        <time>2013-07-06T10:17:30Z</time>
      </trkpt>
      <trkpt lat="48.68071" lon="6.14503">
        <ele>263</ele>
        <time>2013-07-06T10:17:32Z</time>
      </trkpt>
      <trkpt lat="48.68068" lon="6.14496">
        <ele>263</ele>
        <time>2013-07-06T10:17:34Z</time>
      </trkpt>
      <trkpt lat="48.68065" lon="6.14489">
        <ele>262</ele>
        <time>2013-07-06T10:17:36Z</time>
      </trkpt>
      <trkpt lat="48.68062" lon="6.14483">
        <ele>260</ele>
        <time>2013-07-06T10:17:38Z</time>
      </trkpt>
      <trkpt lat="48.6806" lon="6.14478">
        <ele>260</ele>
        <time>2013-07-06T10:17:40Z</time>
      </trkpt>
      <trkpt lat="48.68058" lon="6.14472">
        <ele>259</ele>
        <time>2013-07-06T10:17:42Z</time>
      </trkpt>
      <trkpt lat="48.68057" lon="6.14466">
        <ele>264</ele>
        <time>2013-07-06T10:17:44Z</time>
      </trkpt>
      <trkpt lat="48.68054" lon="6.14459">
        <ele>262</ele>
        <time>2013-07-06T10:17:46Z</time>
      </trkpt>
      <trkpt lat="48.6805" lon="6.14452">
        <ele>258</ele>
        <time>2013-07-06T10:17:48Z</time>
      </trkpt>
      <trkpt lat="48.68046" lon="6.14445">
        <ele>257</ele>
        <time>2013-07-06T10:17:50Z</time>
      </trkpt>
      <trkpt lat="48.68043" lon="6.14437">
        <ele>256</ele>
        <time>2013-07-06T10:17:52Z</time>
      </trkpt>
      <trkpt lat="48.6804" lon="6.14429">
        <ele>256</ele>
        <time>2013-07-06T10:17:54Z</time>
      </trkpt>
      <trkpt lat="48.68036" lon="6.14422">
        <ele>253</ele>
        <time>2013-07-06T10:17:56Z</time>
      </trkpt>
      <trkpt lat="48.68033" lon="6.14415">
        <ele>253</ele>
        <time>2013-07-06T10:17:58Z</time>
      </trkpt>
      <trkpt lat="48.6803" lon="6.14408">
        <ele>253</ele>
        <time>2013-07-06T10:18:00Z</time>
      </trkpt>
      <trkpt lat="48.68026" lon="6.14401">
        <ele>251</ele>
        <time>2013-07-06T10:18:02Z</time>
      </trkpt>
      <trkpt lat="48.68023" lon="6.14396">
        <ele>253</ele>
        <time>2013-07-06T10:18:04Z</time>
      </trkpt>
      <trkpt lat="48.6802" lon="6.14389">
        <ele>254</ele>
        <time>2013-07-06T10:18:06Z</time>
      </trkpt>
      <trkpt lat="48.68016" lon="6.14384">
        <ele>255</ele>
        <time>2013-07-06T10:18:08Z</time>
      </trkpt>
      <trkpt lat="48.68013" lon="6.14379">
        <ele>257</ele>
        <time>2013-07-06T10:18:10Z</time>
      </trkpt>
      <trkpt lat="48.68011" lon="6.14373">
        <ele>259</ele>
        <time>2013-07-06T10:18:12Z</time>
      </trkpt>
      <trkpt lat="48.68008" lon="6.14367">
        <ele>260</ele>
        <time>2013-07-06T10:18:14Z</time>
      </trkpt>
      <trkpt lat="48.68005" lon="6.14361">
        <ele>257</ele>
        <time>2013-07-06T10:18:16Z</time>
      </trkpt>
      <trkpt lat="48.68001" lon="6.14355">
        <ele>257</ele>
        <time>2013-07-06T10:18:18Z</time>
      </trkpt>
      <trkpt lat="48.67998" lon="6.14347">
        <ele>254</ele>
        <time>2013-07-06T10:18:20Z</time>
      </trkpt>
      <trkpt lat="48.67996" lon="6.1434">
        <ele>253</ele>
        <time>2013-07-06T10:18:22Z</time>
      </trkpt>
      <trkpt lat="48.67993" lon="6.14332">
        <ele>251</ele>
        <time>2013-07-06T10:18:24Z</time>
      </trkpt>
      <trkpt lat="48.67991" lon="6.14325">
        <ele>250</ele>
        <time>2013-07-06T10:18:26Z</time>
      </trkpt>
      <trkpt lat="48.67989" lon="6.1432">
        <ele>250</ele>
        <time>2013-07-06T10:18:28Z</time>
      </trkpt>
      <trkpt lat="48.67986" lon="6.14314">
        <ele>251</ele>
        <time>2013-07-06T10:18:30Z</time>
      </trkpt>
      <trkpt lat="48.67981" lon="6.14308">
        <ele>249</ele>
        <time>2013-07-06T10:18:32Z</time>
      </trkpt>
      <trkpt lat="48.67976" lon="6.14303">
        <ele>250</ele>
        <time>2013-07-06T10:18:34Z</time>
      </trkpt>
      <trkpt lat="48.67971" lon="6.14298">
        <ele>249</ele>
        <time>2013-07-06T10:18:36Z</time>
      </trkpt>
      <trkpt lat="48.67968" lon="6.14292">
        <ele>249</ele>
        <time>2013-07-06T10:18:38Z</time>
      </trkpt>
      <trkpt lat="48.67965" lon="6.14288">
        <ele>250</ele>
        <time>2013-07-06T10:18:40Z</time>
      </trkpt>
      <trkpt lat="48.67962" lon="6.14284">
        <ele>249</ele>
        <time>2013-07-06T10:18:42Z</time>
      </trkpt>
      <trkpt lat="48.67958" lon="6.1428">
        <ele>250</ele>
        <time>2013-07-06T10:18:44Z</time>
      </trkpt>
      <trkpt lat="48.67956" lon="6.14276">
        <ele>251</ele>
        <time>2013-07-06T10:18:46Z</time>
      </trkpt>
      <trkpt lat="48.67953" lon="6.14274">
        <ele>251</ele>
        <time>2013-07-06T10:18:48Z</time>
      </trkpt>
      <trkpt lat="48.67952" lon="6.14271">
        <ele>252</ele>
        <time>2013-07-06T10:18:50Z</time>
      </trkpt>
      <trkpt lat="48.6795" lon="6.1427">
        <ele>251</ele>
        <time>2013-07-06T10:18:52Z</time>
      </trkpt>
      <trkpt lat="48.67948" lon="6.14268">
        <ele>249</ele>
        <time>2013-07-06T10:18:54Z</time>
      </trkpt>
      <trkpt lat="48.67947" lon="6.14267">
        <ele>249</ele>
        <time>2013-07-06T10:18:56Z</time>
      </trkpt>
      <trkpt lat="48.67946" lon="6.14264">
        <ele>249</ele>
        <time>2013-07-06T10:18:58Z</time>
      </trkpt>
      <trkpt lat="48.67944" lon="6.1426">
        <ele>251</ele>
        <time>2013-07-06T10:19:00Z</time>
      </trkpt>
      <trkpt lat="48.67942" lon="6.14254">
        <ele>250</ele>
        <time>2013-07-06T10:19:02Z</time>
      </trkpt>
      <trkpt lat="48.6794" lon="6.14247">
        <ele>250</ele>
        <time>2013-07-06T10:19:04Z</time>
      </trkpt>
      <trkpt lat="48.67937" lon="6.14243">
        <ele>252</ele>
        <time>2013-07-06T10:19:06Z</time>
      </trkpt>
      <trkpt lat="48.67933" lon="6.14239">
        <ele>253</ele>
        <time>2013-07-06T10:19:08Z</time>
      </trkpt>
      <trkpt lat="48.6793" lon="6.14236">
        <ele>253</ele>
        <time>2013-07-06T10:19:10Z</time>
      </trkpt>
      <trkpt lat="48.67926" lon="6.14233">
        <ele>254</ele>
        <time>2013-07-06T10:19:12Z</time>
      </trkpt>
      <trkpt lat="48.67923" lon="6.14228">
        <ele>252</ele>
        <time>2013-07-06T10:19:14Z</time>
      </trkpt>
      <trkpt lat="48.67921" lon="6.14224">
        <ele>254</ele>
        <time>2013-07-06T10:19:16Z</time>
      </trkpt>
      <trkpt lat="48.67918" lon="6.1422">
        <ele>255</ele>
        <time>2013-07-06T10:19:18Z</time>
      </trkpt>
      <trkpt lat="48.67916" lon="6.14216">
        <ele>255</ele>
        <time>2013-07-06T10:19:20Z</time>
      </trkpt>
      <trkpt lat="48.67913" lon="6.14211">
        <ele>255</ele>
        <time>2013-07-06T10:19:22Z</time>
      </trkpt>
      <trkpt lat="48.67912" lon="6.14209">
        <ele>255</ele>
        <time>2013-07-06T10:19:23Z</time>
      </trkpt>
      <trkpt lat="48.6791" lon="6.14207">
        <ele>256</ele>
        <time>2013-07-06T10:19:24Z</time>
      </trkpt>
      <trkpt lat="48.67909" lon="6.14204">
        <ele>257</ele>
        <time>2013-07-06T10:19:25Z</time>
      </trkpt>
      <trkpt lat="48.67907" lon="6.14199">
        <ele>257</ele>
        <time>2013-07-06T10:19:27Z</time>
      </trkpt>
      <trkpt lat="48.67904" lon="6.14192">
        <ele>265</ele>
        <time>2013-07-06T10:19:31Z</time>
      </trkpt>
      <trkpt lat="48.67902" lon="6.14186">
        <ele>265</ele>
        <time>2013-07-06T10:19:33Z</time>
      </trkpt>
      <trkpt lat="48.67902" lon="6.14179">
        <ele>263</ele>
        <time>2013-07-06T10:19:35Z</time>
      </trkpt>
      <trkpt lat="48.67904" lon="6.14173">
        <ele>262</ele>
        <time>2013-07-06T10:19:37Z</time>
      </trkpt>
      <trkpt lat="48.67907" lon="6.14168">
        <ele>260</ele>
        <time>2013-07-06T10:19:39Z</time>
      </trkpt>
      <trkpt lat="48.67908" lon="6.14163">
        <ele>259</ele>
        <time>2013-07-06T10:19:41Z</time>
      </trkpt>
      <trkpt lat="48.6791" lon="6.14159">
        <ele>260</ele>
        <time>2013-07-06T10:19:43Z</time>
      </trkpt>
      <trkpt lat="48.67912" lon="6.14155">
        <ele>260</ele>
        <time>2013-07-06T10:19:45Z</time>
      </trkpt>
      <trkpt lat="48.67913" lon="6.1415">
        <ele>260</ele>
        <time>2013-07-06T10:19:47Z</time>
      </trkpt>
      <trkpt lat="48.67916" lon="6.14146">
        <ele>260</ele>
        <time>2013-07-06T10:19:49Z</time>
      </trkpt>
      <trkpt lat="48.6792" lon="6.14144">
        <ele>256</ele>
        <time>2013-07-06T10:19:51Z</time>
      </trkpt>
      <trkpt lat="48.67925" lon="6.14143">
        <ele>255</ele>
        <time>2013-07-06T10:19:53Z</time>
      </trkpt>
      <trkpt lat="48.6793" lon="6.14144">
        <ele>251</ele>
        <time>2013-07-06T10:19:55Z</time>
      </trkpt>
      <trkpt lat="48.67935" lon="6.14146">
        <ele>250</ele>
        <time>2013-07-06T10:19:57Z</time>
      </trkpt>
      <trkpt lat="48.67941" lon="6.14149">
        <ele>249</ele>
        <time>2013-07-06T10:19:59Z</time>
      </trkpt>
      <trkpt lat="48.67946" lon="6.14152">
        <ele>250</ele>
        <time>2013-07-06T10:20:01Z</time>
      </trkpt>
      <trkpt lat="48.67952" lon="6.14156">
        <ele>252</ele>
        <time>2013-07-06T10:20:03Z</time>
      </trkpt>
      <trkpt lat="48.67959" lon="6.14158">
        <ele>251</ele>
        <time>2013-07-06T10:20:05Z</time>
      </trkpt>
      <trkpt lat="48.67965" lon="6.1416">
        <ele>251</ele>
        <time>2013-07-06T10:20:07Z</time>
      </trkpt>
      <trkpt lat="48.67972" lon="6.14159">
        <ele>251</ele>
        <time>2013-07-06T10:20:09Z</time>
      </trkpt>
      <trkpt lat="48.67979" lon="6.14158">
        <ele>251</ele>
        <time>2013-07-06T10:20:11Z</time>
      </trkpt>
      <trkpt lat="48.67984" lon="6.14157">
        <ele>251</ele>
        <time>2013-07-06T10:20:13Z</time>
      </trkpt>
      <trkpt lat="48.67989" lon="6.14155">
        <ele>250</ele>
        <time>2013-07-06T10:20:15Z</time>
      </trkpt>
      <trkpt lat="48.67994" lon="6.14153">
        <ele>250</ele>
        <time>2013-07-06T10:20:17Z</time>
      </trkpt>
      <trkpt lat="48.67999" lon="6.14151">
        <ele>250</ele>
        <time>2013-07-06T10:20:19Z</time>
      </trkpt>
      <trkpt lat="48.68003" lon="6.14148">
        <ele>249</ele>
        <time>2013-07-06T10:20:21Z</time>
      </trkpt>
      <trkpt lat="48.68008" lon="6.14145">
        <ele>250</ele>
        <time>2013-07-06T10:20:23Z</time>
      </trkpt>
      <trkpt lat="48.68013" lon="6.14143">
        <ele>250</ele>
        <time>2013-07-06T10:20:25Z</time>
      </trkpt>
      <trkpt lat="48.68017" lon="6.14142">
        <ele>250</ele>
        <time>2013-07-06T10:20:27Z</time>
      </trkpt>
      <trkpt lat="48.68022" lon="6.1414">
        <ele>250</ele>
        <time>2013-07-06T10:20:29Z</time>
      </trkpt>
      <trkpt lat="48.68026" lon="6.14139">
        <ele>253</ele>
        <time>2013-07-06T10:20:31Z</time>
      </trkpt>
      <trkpt lat="48.6803" lon="6.14137">
        <ele>253</ele>
        <time>2013-07-06T10:20:33Z</time>
      </trkpt>
      <trkpt lat="48.68034" lon="6.14135">
        <ele>251</ele>
        <time>2013-07-06T10:20:35Z</time>
      </trkpt>
      <trkpt lat="48.68038" lon="6.14134">
        <ele>250</ele>
        <time>2013-07-06T10:20:37Z</time>
      </trkpt>
      <trkpt lat="48.68042" lon="6.14132">
        <ele>250</ele>
        <time>2013-07-06T10:20:39Z</time>
      </trkpt>
      <trkpt lat="48.68045" lon="6.1413">
        <ele>249</ele>
        <time>2013-07-06T10:20:41Z</time>
      </trkpt>
      <trkpt lat="48.6805" lon="6.14129">
        <ele>251</ele>
        <time>2013-07-06T10:20:43Z</time>
      </trkpt>
      <trkpt lat="48.68054" lon="6.14127">
        <ele>252</ele>
        <time>2013-07-06T10:20:45Z</time>
      </trkpt>
      <trkpt lat="48.68057" lon="6.14125">
        <ele>254</ele>
        <time>2013-07-06T10:20:47Z</time>
      </trkpt>
      <trkpt lat="48.6806" lon="6.14123">
        <ele>255</ele>
        <time>2013-07-06T10:20:49Z</time>
      </trkpt>
      <trkpt lat="48.68064" lon="6.1412">
        <ele>256</ele>
        <time>2013-07-06T10:20:51Z</time>
      </trkpt>
      <trkpt lat="48.68068" lon="6.14118">
        <ele>258</ele>
        <time>2013-07-06T10:20:53Z</time>
      </trkpt>
      <trkpt lat="48.68071" lon="6.14116">
        <ele>259</ele>
        <time>2013-07-06T10:20:55Z</time>
      </trkpt>
      <trkpt lat="48.68075" lon="6.14115">
        <ele>259</ele>
        <time>2013-07-06T10:20:57Z</time>
      </trkpt>
      <trkpt lat="48.68079" lon="6.14113">
        <ele>259</ele>
        <time>2013-07-06T10:20:59Z</time>
      </trkpt>
      <trkpt lat="48.68082" lon="6.14111">
        <ele>263</ele>
        <time>2013-07-06T10:21:01Z</time>
      </trkpt>
      <trkpt lat="48.68086" lon="6.14109">
        <ele>264</ele>
        <time>2013-07-06T10:21:03Z</time>
      </trkpt>
      <trkpt lat="48.68089" lon="6.14107">
        <ele>265</ele>
        <time>2013-07-06T10:21:05Z</time>
      </trkpt>
      <trkpt lat="48.68093" lon="6.14105">
        <ele>267</ele>
        <time>2013-07-06T10:21:07Z</time>
      </trkpt>
      <trkpt lat="48.68097" lon="6.14103">
        <ele>268</ele>
        <time>2013-07-06T10:21:09Z</time>
      </trkpt>
      <trkpt lat="48.681" lon="6.14101">
        <ele>267</ele>
        <time>2013-07-06T10:21:11Z</time>
      </trkpt>
      <trkpt lat="48.68104" lon="6.14099">
        <ele>267</ele>
        <time>2013-07-06T10:21:13Z</time>
      </trkpt>
      <trkpt lat="48.68108" lon="6.14097">
        <ele>267</ele>
        <time>2013-07-06T10:21:15Z</time>
      </trkpt>
      <trkpt lat="48.68112" lon="6.14094">
        <ele>265</ele>
        <time>2013-07-06T10:21:17Z</time>
      </trkpt>
      <trkpt lat="48.68116" lon="6.14093">
        <ele>264</ele>
        <time>2013-07-06T10:21:19Z</time>
      </trkpt>
      <trkpt lat="48.6812" lon="6.1409">
        <ele>264</ele>
        <time>2013-07-06T10:21:21Z</time>
      </trkpt>
      <trkpt lat="48.68124" lon="6.14087">
        <ele>263</ele>
        <time>2013-07-06T10:21:23Z</time>
      </trkpt>
      <trkpt lat="48.68129" lon="6.14084">
        <ele>264</ele>
        <time>2013-07-06T10:21:25Z</time>
      </trkpt>
      <trkpt lat="48.68133" lon="6.14082">
        <ele>262</ele>
        <time>2013-07-06T10:21:27Z</time>
      </trkpt>
      <trkpt lat="48.68137" lon="6.14079">
        <ele>263</ele>
        <time>2013-07-06T10:21:29Z</time>
      </trkpt>
      <trkpt lat="48.68141" lon="6.14077">
        <ele>264</ele>
        <time>2013-07-06T10:21:31Z</time>
      </trkpt>
      <trkpt lat="48.68144" lon="6.14075">
        <ele>266</ele>
        <time>2013-07-06T10:21:33Z</time>
      </trkpt>
      <trkpt lat="48.68147" lon="6.14073">
        <ele>266</ele>
        <time>2013-07-06T10:21:35Z</time>
      </trkpt>
      <trkpt lat="48.6815" lon="6.14071">
        <ele>267</ele>
        <time>2013-07-06T10:21:37Z</time>
      </trkpt>
      <trkpt lat="48.68153" lon="6.14069">
        <ele>268</ele>
        <time>2013-07-06T10:21:39Z</time>
      </trkpt>
      <trkpt lat="48.68157" lon="6.14066">
        <ele>268</ele>
        <time>2013-07-06T10:21:41Z</time>
      </trkpt>
      <trkpt lat="48.68161" lon="6.14064">
        <ele>268</ele>
        <time>2013-07-06T10:21:43Z</time>
      </trkpt>
      <trkpt lat="48.68164" lon="6.14061">
        <ele>268</ele>
        <time>2013-07-06T10:21:45Z</time>
      </trkpt>
      <trkpt lat="48.68168" lon="6.14058">
        <ele>268</ele>
        <time>2013-07-06T10:21:47Z</time>
      </trkpt>
      <trkpt lat="48.68173" lon="6.14056">
        <ele>268</ele>
        <time>2013-07-06T10:21:49Z</time>
      </trkpt>
      <trkpt lat="48.68176" lon="6.14052">
        <ele>268</ele>
        <time>2013-07-06T10:21:51Z</time>
      </trkpt>
      <trkpt lat="48.6818" lon="6.14048">
        <ele>268</ele>
        <time>2013-07-06T10:21:53Z</time>
      </trkpt>
      <trkpt lat="48.68184" lon="6.14044">
        <ele>268</ele>
        <time>2013-07-06T10:21:55Z</time>
      </trkpt>
      <trkpt lat="48.68188" lon="6.1404">
        <ele>267</ele>
        <time>2013-07-06T10:21:57Z</time>
      </trkpt>
      <trkpt lat="48.68192" lon="6.14035">
        <ele>267</ele>
        <time>2013-07-06T10:21:59Z</time>
      </trkpt>
      <trkpt lat="48.68196" lon="6.14031">
        <ele>267</ele>
        <time>2013-07-06T10:22:01Z</time>
      </trkpt>
      <trkpt lat="48.682" lon="6.14028">
        <ele>266</ele>
        <time>2013-07-06T10:22:03Z</time>
      </trkpt>
      <trkpt lat="48.68205" lon="6.14025">
        <ele>266</ele>
        <time>2013-07-06T10:22:05Z</time>
      </trkpt>
      <trkpt lat="48.68209" lon="6.14022">
        <ele>265</ele>
        <time>2013-07-06T10:22:07Z</time>
      </trkpt>
      <trkpt lat="48.68213" lon="6.14018">
        <ele>266</ele>
        <time>2013-07-06T10:22:09Z</time>
      </trkpt>
      <trkpt lat="48.68217" lon="6.14015">
        <ele>266</ele>
        <time>2013-07-06T10:22:11Z</time>
      </trkpt>
      <trkpt lat="48.68221" lon="6.14012">
        <ele>267</ele>
        <time>2013-07-06T10:22:13Z</time>
      </trkpt>
      <trkpt lat="48.68224" lon="6.14009">
        <ele>266</ele>
        <time>2013-07-06T10:22:15Z</time>
      </trkpt>
      <trkpt lat="48.68228" lon="6.14006">
        <ele>266</ele>
        <time>2013-07-06T10:22:17Z</time>
      </trkpt>
      <trkpt lat="48.68231" lon="6.14004">
        <ele>267</ele>
        <time>2013-07-06T10:22:19Z</time>
      </trkpt>
      <trkpt lat="48.68235" lon="6.14">
        <ele>267</ele>
        <time>2013-07-06T10:22:21Z</time>
      </trkpt>
      <trkpt lat="48.68238" lon="6.13997">
        <ele>268</ele>
        <time>2013-07-06T10:22:23Z</time>
      </trkpt>
      <trkpt lat="48.68241" lon="6.13994">
        <ele>269</ele>
        <time>2013-07-06T10:22:25Z</time>
      </trkpt>
      <trkpt lat="48.68244" lon="6.1399">
        <ele>270</ele>
        <time>2013-07-06T10:22:27Z</time>
      </trkpt>
      <trkpt lat="48.68248" lon="6.13987">
        <ele>270</ele>
        <time>2013-07-06T10:22:29Z</time>
      </trkpt>
      <trkpt lat="48.68252" lon="6.13984">
        <ele>269</ele>
        <time>2013-07-06T10:22:31Z</time>
      </trkpt>
      <trkpt lat="48.68256" lon="6.13982">
        <ele>270</ele>
        <time>2013-07-06T10:22:33Z</time>
      </trkpt>
      <trkpt lat="48.68259" lon="6.1398">
        <ele>271</ele>
        <time>2013-07-06T10:22:35Z</time>
      </trkpt>
      <trkpt lat="48.68263" lon="6.13977">
        <ele>271</ele>
        <time>2013-07-06T10:22:37Z</time>
      </trkpt>
      <trkpt lat="48.68266" lon="6.13974">
        <ele>271</ele>
        <time>2013-07-06T10:22:39Z</time>
      </trkpt>
      <trkpt lat="48.6827" lon="6.13972">
        <ele>270</ele>
        <time>2013-07-06T10:22:41Z</time>
      </trkpt>
      <trkpt lat="48.68274" lon="6.13969">
        <ele>271</ele>
        <time>2013-07-06T10:22:43Z</time>
      </trkpt>
      <trkpt lat="48.68277" lon="6.13966">
        <ele>271</ele>
        <time>2013-07-06T10:22:45Z</time>
      </trkpt>
      <trkpt lat="48.68281" lon="6.13964">
        <ele>272</ele>
        <time>2013-07-06T10:22:47Z</time>
      </trkpt>
      <trkpt lat="48.68285" lon="6.13961">
        <ele>272</ele>
        <time>2013-07-06T10:22:49Z</time>
      </trkpt>
      <trkpt lat="48.68288" lon="6.13958">
        <ele>273</ele>
        <time>2013-07-06T10:22:51Z</time>
      </trkpt>
      <trkpt lat="48.68292" lon="6.13955">
        <ele>274</ele>
        <time>2013-07-06T10:22:53Z</time>
      </trkpt>
      <trkpt lat="48.68295" lon="6.13952">
        <ele>275</ele>
        <time>2013-07-06T10:22:55Z</time>
      </trkpt>
      <trkpt lat="48.68298" lon="6.13948">
        <ele>277</ele>
        <time>2013-07-06T10:22:57Z</time>
      </trkpt>
      <trkpt lat="48.68301" lon="6.13944">
        <ele>278</ele>
        <time>2013-07-06T10:22:59Z</time>
      </trkpt>
      <trkpt lat="48.68303" lon="6.1394">
        <ele>279</ele>
        <time>2013-07-06T10:23:01Z</time>
      </trkpt>
      <trkpt lat="48.68306" lon="6.13938">
        <ele>279</ele>
        <time>2013-07-06T10:23:03Z</time>
      </trkpt>
      <trkpt lat="48.68309" lon="6.13935">
        <ele>280</ele>
        <time>2013-07-06T10:23:05Z</time>
      </trkpt>
      <trkpt lat="48.68313" lon="6.13932">
        <ele>280</ele>
        <time>2013-07-06T10:23:07Z</time>
      </trkpt>
      <trkpt lat="48.68316" lon="6.1393">
        <ele>281</ele>
        <time>2013-07-06T10:23:09Z</time>
      </trkpt>
      <trkpt lat="48.68319" lon="6.13926">
        <ele>282</ele>
        <time>2013-07-06T10:23:11Z</time>
      </trkpt>
      <trkpt lat="48.68321" lon="6.13922">
        <ele>282</ele>
        <time>2013-07-06T10:23:13Z</time>
      </trkpt>
      <trkpt lat="48.68323" lon="6.13918">
        <ele>282</ele>
        <time>2013-07-06T10:23:15Z</time>
      </trkpt>
      <trkpt lat="48.68325" lon="6.13916">
        <ele>282</ele>
        <time>2013-07-06T10:23:17Z</time>
      </trkpt>
      <trkpt lat="48.68327" lon="6.13915">
        <ele>283</ele>
        <time>2013-07-06T10:23:19Z</time>
      </trkpt>
      <trkpt lat="48.68329" lon="6.13915">
        <ele>281</ele>
        <time>2013-07-06T10:23:21Z</time>
      </trkpt>
      <trkpt lat="48.68333" lon="6.13915">
        <ele>279</ele>
        <time>2013-07-06T10:23:23Z</time>
      </trkpt>
      <trkpt lat="48.6834" lon="6.13915">
        <ele>276</ele>
        <time>2013-07-06T10:23:25Z</time>
      </trkpt>
      <trkpt lat="48.68347" lon="6.13917">
        <ele>275</ele>
        <time>2013-07-06T10:23:27Z</time>
      </trkpt>
      <trkpt lat="48.68357" lon="6.13916">
        <ele>276</ele>
        <time>2013-07-06T10:23:29Z</time>
      </trkpt>
      <trkpt lat="48.68364" lon="6.13911">
        <ele>276</ele>
        <time>2013-07-06T10:23:31Z</time>
      </trkpt>
      <trkpt lat="48.68369" lon="6.13906">
        <ele>278</ele>
        <time>2013-07-06T10:23:33Z</time>
      </trkpt>
      <trkpt lat="48.68373" lon="6.13903">
        <ele>279</ele>
        <time>2013-07-06T10:23:35Z</time>
      </trkpt>
      <trkpt lat="48.68376" lon="6.13901">
        <ele>279</ele>
        <time>2013-07-06T10:23:37Z</time>
      </trkpt>
      <trkpt lat="48.6838" lon="6.13899">
        <ele>279</ele>
        <time>2013-07-06T10:23:39Z</time>
      </trkpt>
      <trkpt lat="48.68383" lon="6.13895">
        <ele>279</ele>
        <time>2013-07-06T10:23:41Z</time>
      </trkpt>
      <trkpt lat="48.68387" lon="6.13892">
        <ele>280</ele>
        <time>2013-07-06T10:23:43Z</time>
      </trkpt>
      <trkpt lat="48.6839" lon="6.13889">
        <ele>281</ele>
        <time>2013-07-06T10:23:45Z</time>
      </trkpt>
      <trkpt lat="48.68393" lon="6.13886">
        <ele>281</ele>
        <time>2013-07-06T10:23:47Z</time>
      </trkpt>
      <trkpt lat="48.68396" lon="6.13883">
        <ele>281</ele>
        <time>2013-07-06T10:23:49Z</time>
      </trkpt>
      <trkpt lat="48.68399" lon="6.13879">
        <ele>282</ele>
        <time>2013-07-06T10:23:51Z</time>
      </trkpt>
      <trkpt lat="48.68403" lon="6.13876">
        <ele>282</ele>
        <time>2013-07-06T10:23:53Z</time>
      </trkpt>
      <trkpt lat="48.68406" lon="6.13872">
        <ele>282</ele>
        <time>2013-07-06T10:23:55Z</time>
      </trkpt>
      <trkpt lat="48.6841" lon="6.13868">
        <ele>282</ele>
        <time>2013-07-06T10:23:57Z</time>
      </trkpt>
      <trkpt lat="48.68413" lon="6.13864">
        <ele>282</ele>
        <time>2013-07-06T10:23:59Z</time>
      </trkpt>
      <trkpt lat="48.68416" lon="6.13859">
        <ele>281</ele>
        <time>2013-07-06T10:24:01Z</time>
      </trkpt>
      <trkpt lat="48.6842" lon="6.13855">
        <ele>281</ele>
        <time>2013-07-06T10:24:03Z</time>
      </trkpt>
      <trkpt lat="48.68424" lon="6.1385">
        <ele>281</ele>
        <time>2013-07-06T10:24:05Z</time>
      </trkpt>
      <trkpt lat="48.68427" lon="6.13845">
        <ele>280</ele>
        <time>2013-07-06T10:24:07Z</time>
      </trkpt>
      <trkpt lat="48.6843" lon="6.1384">
        <ele>280</ele>
        <time>2013-07-06T10:24:09Z</time>
      </trkpt>
      <trkpt lat="48.68434" lon="6.13834">
        <ele>280</ele>
        <time>2013-07-06T10:24:11Z</time>
      </trkpt>
      <trkpt lat="48.68437" lon="6.1383">
        <ele>280</ele>
        <time>2013-07-06T10:24:13Z</time>
      </trkpt>
      <trkpt lat="48.6844" lon="6.13825">
        <ele>280</ele>
        <time>2013-07-06T10:24:15Z</time>
      </trkpt>
      <trkpt lat="48.68443" lon="6.1382">
        <ele>280</ele>
        <time>2013-07-06T10:24:17Z</time>
      </trkpt>
      <trkpt lat="48.68446" lon="6.13815">
        <ele>280</ele>
        <time>2013-07-06T10:24:19Z</time>
      </trkpt>
      <trkpt lat="48.68448" lon="6.1381">
        <ele>281</ele>
        <time>2013-07-06T10:24:21Z</time>
      </trkpt>
      <trkpt lat="48.68451" lon="6.13805">
        <ele>282</ele>
        <time>2013-07-06T10:24:23Z</time>
      </trkpt>
      <trkpt lat="48.68453" lon="6.13799">
        <ele>281</ele>
        <time>2013-07-06T10:24:25Z</time>
      </trkpt>
      <trkpt lat="48.68456" lon="6.13793">
        <ele>283</ele>
        <time>2013-07-06T10:24:27Z</time>
      </trkpt>
      <trkpt lat="48.68457" lon="6.13788">
        <ele>283</ele>
        <time>2013-07-06T10:24:29Z</time>
      </trkpt>
      <trkpt lat="48.68459" lon="6.13783">
        <ele>285</ele>
        <time>2013-07-06T10:24:31Z</time>
      </trkpt>
      <trkpt lat="48.68462" lon="6.13778">
        <ele>287</ele>
        <time>2013-07-06T10:24:33Z</time>
      </trkpt>
      <trkpt lat="48.68464" lon="6.13773">
        <ele>288</ele>
        <time>2013-07-06T10:24:35Z</time>
      </trkpt>
      <trkpt lat="48.68467" lon="6.13767">
        <ele>290</ele>
        <time>2013-07-06T10:24:37Z</time>
      </trkpt>
      <trkpt lat="48.68469" lon="6.13762">
        <ele>291</ele>
        <time>2013-07-06T10:24:39Z</time>
      </trkpt>
      <trkpt lat="48.6847" lon="6.13757">
        <ele>290</ele>
        <time>2013-07-06T10:24:41Z</time>
      </trkpt>
      <trkpt lat="48.68472" lon="6.13751">
        <ele>289</ele>
        <time>2013-07-06T10:24:43Z</time>
      </trkpt>
      <trkpt lat="48.68473" lon="6.13745">
        <ele>290</ele>
        <time>2013-07-06T10:24:45Z</time>
      </trkpt>
      <trkpt lat="48.68473" lon="6.13741">
        <ele>292</ele>
        <time>2013-07-06T10:24:47Z</time>
      </trkpt>
      <trkpt lat="48.68475" lon="6.13736">
        <ele>291</ele>
        <time>2013-07-06T10:24:49Z</time>
      </trkpt>
      <trkpt lat="48.68476" lon="6.13731">
        <ele>292</ele>
        <time>2013-07-06T10:24:51Z</time>
      </trkpt>
      <trkpt lat="48.68477" lon="6.13725">
        <ele>294</ele>
        <time>2013-07-06T10:24:53Z</time>
      </trkpt>
      <trkpt lat="48.68478" lon="6.1372">
        <ele>296</ele>
        <time>2013-07-06T10:24:55Z</time>
      </trkpt>
      <trkpt lat="48.68478" lon="6.13715">
        <ele>297</ele>
        <time>2013-07-06T10:24:57Z</time>
      </trkpt>
      <trkpt lat="48.68478" lon="6.13708">
        <ele>299</ele>
        <time>2013-07-06T10:24:59Z</time>
      </trkpt>
      <trkpt lat="48.68479" lon="6.13702">
        <ele>300</ele>
        <time>2013-07-06T10:25:01Z</time>
      </trkpt>
      <trkpt lat="48.68479" lon="6.13696">
        <ele>301</ele>
        <time>2013-07-06T10:25:03Z</time>
      </trkpt>
      <trkpt lat="48.6848" lon="6.1369">
        <ele>302</ele>
        <time>2013-07-06T10:25:05Z</time>
      </trkpt>
      <trkpt lat="48.6848" lon="6.13683">
        <ele>302</ele>
        <time>2013-07-06T10:25:07Z</time>
      </trkpt>
      <trkpt lat="48.68481" lon="6.13676">
        <ele>301</ele>
        <time>2013-07-06T10:25:09Z</time>
      </trkpt>
      <trkpt lat="48.68481" lon="6.13669">
        <ele>301</ele>
        <time>2013-07-06T10:25:11Z</time>
      </trkpt>
      <trkpt lat="48.68482" lon="6.13664">
        <ele>303</ele>
        <time>2013-07-06T10:25:13Z</time>
      </trkpt>
      <trkpt lat="48.68481" lon="6.13659">
        <ele>304</ele>
        <time>2013-07-06T10:25:15Z</time>
      </trkpt>
      <trkpt lat="48.68481" lon="6.13653">
        <ele>305</ele>
        <time>2013-07-06T10:25:17Z</time>
      </trkpt>
      <trkpt lat="48.6848" lon="6.13649">
        <ele>304</ele>
        <time>2013-07-06T10:25:19Z</time>
      </trkpt>
      <trkpt lat="48.6848" lon="6.13642">
        <ele>304</ele>
        <time>2013-07-06T10:25:21Z</time>
      </trkpt>
      <trkpt lat="48.6848" lon="6.13635">
        <ele>306</ele>
        <time>2013-07-06T10:25:23Z</time>
      </trkpt>
      <trkpt lat="48.6848" lon="6.13627">
        <ele>306</ele>
        <time>2013-07-06T10:25:25Z</time>
      </trkpt>
      <trkpt lat="48.6848" lon="6.1362">
        <ele>307</ele>
        <time>2013-07-06T10:25:27Z</time>
      </trkpt>
      <trkpt lat="48.6848" lon="6.13614">
        <ele>308</ele>
        <time>2013-07-06T10:25:29Z</time>
      </trkpt>
      <trkpt lat="48.6848" lon="6.13608">
        <ele>308</ele>
        <time>2013-07-06T10:25:31Z</time>
      </trkpt>
      <trkpt lat="48.68481" lon="6.13601">
        <ele>308</ele>
        <time>2013-07-06T10:25:33Z</time>
      </trkpt>
      <trkpt lat="48.68481" lon="6.13596">
        <ele>311</ele>
        <time>2013-07-06T10:25:35Z</time>
      </trkpt>
      <trkpt lat="48.68481" lon="6.13589">
        <ele>310</ele>
        <time>2013-07-06T10:25:37Z</time>
      </trkpt>
      <trkpt lat="48.68481" lon="6.13581">
        <ele>309</ele>
        <time>2013-07-06T10:25:39Z</time>
      </trkpt>
      <trkpt lat="48.68481" lon="6.13574">
        <ele>310</ele>
        <time>2013-07-06T10:25:41Z</time>
      </trkpt>
      <trkpt lat="48.6848" lon="6.13566">
        <ele>309</ele>
        <time>2013-07-06T10:25:43Z</time>
      </trkpt>
      <trkpt lat="48.68479" lon="6.13559">
        <ele>308</ele>
        <time>2013-07-06T10:25:45Z</time>
      </trkpt>
      <trkpt lat="48.68479" lon="6.13553">
        <ele>310</ele>
        <time>2013-07-06T10:25:47Z</time>
      </trkpt>
      <trkpt lat="48.68478" lon="6.13548">
        <ele>310</ele>
        <time>2013-07-06T10:25:49Z</time>
      </trkpt>
      <trkpt lat="48.68477" lon="6.13541">
        <ele>309</ele>
        <time>2013-07-06T10:25:51Z</time>
      </trkpt>
      <trkpt lat="48.68476" lon="6.13535">
        <ele>309</ele>
        <time>2013-07-06T10:25:53Z</time>
      </trkpt>
      <trkpt lat="48.68476" lon="6.13528">
        <ele>310</ele>
        <time>2013-07-06T10:25:55Z</time>
      </trkpt>
      <trkpt lat="48.68476" lon="6.13522">
        <ele>310</ele>
        <time>2013-07-06T10:25:57Z</time>
      </trkpt>
      <trkpt lat="48.68476" lon="6.13515">
        <ele>310</ele>
        <time>2013-07-06T10:25:59Z</time>
      </trkpt>
      <trkpt lat="48.68475" lon="6.13509">
        <ele>310</ele>
        <time>2013-07-06T10:26:01Z</time>
      </trkpt>
      <trkpt lat="48.68475" lon="6.13502">
        <ele>310</ele>
        <time>2013-07-06T10:26:03Z</time>
      </trkpt>
      <trkpt lat="48.68475" lon="6.13496">
        <ele>311</ele>
        <time>2013-07-06T10:26:05Z</time>
      </trkpt>
      <trkpt lat="48.68476" lon="6.1349">
        <ele>312</ele>
        <time>2013-07-06T10:26:07Z</time>
      </trkpt>
      <trkpt lat="48.68477" lon="6.13484">
        <ele>312</ele>
        <time>2013-07-06T10:26:09Z</time>
      </trkpt>
      <trkpt lat="48.68478" lon="6.13477">
        <ele>313</ele>
        <time>2013-07-06T10:26:11Z</time>
      </trkpt>
      <trkpt lat="48.68477" lon="6.13471">
        <ele>313</ele>
        <time>2013-07-06T10:26:13Z</time>
      </trkpt>
      <trkpt lat="48.68477" lon="6.13464">
        <ele>309</ele>
        <time>2013-07-06T10:26:15Z</time>
      </trkpt>
      <trkpt lat="48.68476" lon="6.13457">
        <ele>307</ele>
        <time>2013-07-06T10:26:17Z</time>
      </trkpt>
      <trkpt lat="48.68476" lon="6.1345">
        <ele>305</ele>
        <time>2013-07-06T10:26:19Z</time>
      </trkpt>
      <trkpt lat="48.68476" lon="6.13442">
        <ele>303</ele>
        <time>2013-07-06T10:26:21Z</time>
      </trkpt>
      <trkpt lat="48.68476" lon="6.13434">
        <ele>302</ele>
        <time>2013-07-06T10:26:23Z</time>
      </trkpt>
      <trkpt lat="48.68476" lon="6.13428">
        <ele>301</ele>
        <time>2013-07-06T10:26:25Z</time>
      </trkpt>
      <trkpt lat="48.68476" lon="6.13421">
        <ele>301</ele>
        <time>2013-07-06T10:26:27Z</time>
      </trkpt>
      <trkpt lat="48.68476" lon="6.13416">
        <ele>301</ele>
        <time>2013-07-06T10:26:29Z</time>
      </trkpt>
      <trkpt lat="48.68477" lon="6.1341">
        <ele>304</ele>
        <time>2013-07-06T10:26:31Z</time>
      </trkpt>
      <trkpt lat="48.68477" lon="6.13405">
        <ele>305</ele>
        <time>2013-07-06T10:26:33Z</time>
      </trkpt>
      <trkpt lat="48.68478" lon="6.134">
        <ele>306</ele>
        <time>2013-07-06T10:26:35Z</time>
      </trkpt>
      <trkpt lat="48.68478" lon="6.13395">
        <ele>308</ele>
        <time>2013-07-06T10:26:37Z</time>
      </trkpt>
      <trkpt lat="48.68479" lon="6.13388">
        <ele>310</ele>
        <time>2013-07-06T10:26:39Z</time>
      </trkpt>
      <trkpt lat="48.68481" lon="6.13381">
        <ele>310</ele>
        <time>2013-07-06T10:26:41Z</time>
      </trkpt>
      <trkpt lat="48.68482" lon="6.13375">
        <ele>310</ele>
        <time>2013-07-06T10:26:43Z</time>
      </trkpt>
      <trkpt lat="48.68484" lon="6.13369">
        <ele>311</ele>
        <time>2013-07-06T10:26:45Z</time>
      </trkpt>
      <trkpt lat="48.68485" lon="6.13363">
        <ele>312</ele>
        <time>2013-07-06T10:26:47Z</time>
      </trkpt>
      <trkpt lat="48.68486" lon="6.13357">
        <ele>312</ele>
        <time>2013-07-06T10:26:49Z</time>
      </trkpt>
      <trkpt lat="48.68488" lon="6.13352">
        <ele>312</ele>
        <time>2013-07-06T10:26:51Z</time>
      </trkpt>
      <trkpt lat="48.68489" lon="6.13346">
        <ele>312</ele>
        <time>2013-07-06T10:26:53Z</time>
      </trkpt>
      <trkpt lat="48.68491" lon="6.1334">
        <ele>312</ele>
        <time>2013-07-06T10:26:55Z</time>
      </trkpt>
      <trkpt lat="48.68492" lon="6.13334">
        <ele>312</ele>
        <time>2013-07-06T10:26:57Z</time>
      </trkpt>
      <trkpt lat="48.68494" lon="6.13329">
        <ele>313</ele>
        <time>2013-07-06T10:26:59Z</time>
      </trkpt>
      <trkpt lat="48.68496" lon="6.13322">
        <ele>314</ele>
        <time>2013-07-06T10:27:01Z</time>
      </trkpt>
      <trkpt lat="48.68498" lon="6.13316">
        <ele>315</ele>
        <time>2013-07-06T10:27:03Z</time>
      </trkpt>
      <trkpt lat="48.68499" lon="6.13311">
        <ele>317</ele>
        <time>2013-07-06T10:27:05Z</time>
      </trkpt>
      <trkpt lat="48.68501" lon="6.13305">
        <ele>317</ele>
        <time>2013-07-06T10:27:07Z</time>
      </trkpt>
      <trkpt lat="48.68503" lon="6.133">
        <ele>317</ele>
        <time>2013-07-06T10:27:09Z</time>
      </trkpt>
      <trkpt lat="48.68506" lon="6.13294">
        <ele>318</ele>
        <time>2013-07-06T10:27:11Z</time>
      </trkpt>
      <trkpt lat="48.68508" lon="6.13288">
        <ele>317</ele>
        <time>2013-07-06T10:27:13Z</time>
      </trkpt>
      <trkpt lat="48.6851" lon="6.13282">
        <ele>317</ele>
        <time>2013-07-06T10:27:15Z</time>
      </trkpt>
      <trkpt lat="48.68512" lon="6.13277">
        <ele>317</ele>
        <time>2013-07-06T10:27:17Z</time>
      </trkpt>
      <trkpt lat="48.68515" lon="6.13272">
        <ele>317</ele>
        <time>2013-07-06T10:27:19Z</time>
      </trkpt>
      <trkpt lat="48.68518" lon="6.13265">
        <ele>316</ele>
        <time>2013-07-06T10:27:21Z</time>
      </trkpt>
      <trkpt lat="48.68521" lon="6.1326">
        <ele>314</ele>
        <time>2013-07-06T10:27:23Z</time>
      </trkpt>
      <trkpt lat="48.68524" lon="6.13255">
        <ele>313</ele>
        <time>2013-07-06T10:27:25Z</time>
      </trkpt>
      <trkpt lat="48.68527" lon="6.1325">
        <ele>313</ele>
        <time>2013-07-06T10:27:27Z</time>
      </trkpt>
      <trkpt lat="48.68529" lon="6.13246">
        <ele>314</ele>
        <time>2013-07-06T10:27:29Z</time>
      </trkpt>
      <trkpt lat="48.68533" lon="6.13241">
        <ele>314</ele>
        <time>2013-07-06T10:27:31Z</time>
      </trkpt>
      <trkpt lat="48.68536" lon="6.13235">
        <ele>314</ele>
        <time>2013-07-06T10:27:33Z</time>
      </trkpt>
      <trkpt lat="48.68539" lon="6.1323">
        <ele>313</ele>
        <time>2013-07-06T10:27:35Z</time>
      </trkpt>
      <trkpt lat="48.68543" lon="6.13225">
        <ele>314</ele>
        <time>2013-07-06T10:27:37Z</time>
      </trkpt>
      <trkpt lat="48.68546" lon="6.13221">
        <ele>314</ele>
        <time>2013-07-06T10:27:39Z</time>
      </trkpt>
      <trkpt lat="48.68549" lon="6.13217">
        <ele>315</ele>
        <time>2013-07-06T10:27:41Z</time>
      </trkpt>
      <trkpt lat="48.68552" lon="6.13214">
        <ele>317</ele>
        <time>2013-07-06T10:27:43Z</time>
      </trkpt>
      <trkpt lat="48.68556" lon="6.13211">
        <ele>318</ele>
        <time>2013-07-06T10:27:45Z</time>
      </trkpt>
      <trkpt lat="48.68559" lon="6.13208">
        <ele>319</ele>
        <time>2013-07-06T10:27:47Z</time>
      </trkpt>
      <trkpt lat="48.68563" lon="6.13204">
        <ele>319</ele>
        <time>2013-07-06T10:27:49Z</time>
      </trkpt>
      <trkpt lat="48.68566" lon="6.13199">
        <ele>318</ele>
        <time>2013-07-06T10:27:51Z</time>
      </trkpt>
      <trkpt lat="48.6857" lon="6.13194">
        <ele>318</ele>
        <time>2013-07-06T10:27:53Z</time>
      </trkpt>
      <trkpt lat="48.68574" lon="6.1319">
        <ele>316</ele>
        <time>2013-07-06T10:27:55Z</time>
      </trkpt>
      <trkpt lat="48.68578" lon="6.13186">
        <ele>317</ele>
        <time>2013-07-06T10:27:57Z</time>
      </trkpt>
      <trkpt lat="48.68581" lon="6.13182">
        <ele>317</ele>
        <time>2013-07-06T10:27:59Z</time>
      </trkpt>
      <trkpt lat="48.68584" lon="6.13179">
        <ele>317</ele>
        <time>2013-07-06T10:28:01Z</time>
      </trkpt>
      <trkpt lat="48.68588" lon="6.13176">
        <ele>316</ele>
        <time>2013-07-06T10:28:03Z</time>
      </trkpt>
      <trkpt lat="48.68591" lon="6.13173">
        <ele>317</ele>
        <time>2013-07-06T10:28:05Z</time>
      </trkpt>
      <trkpt lat="48.68594" lon="6.1317">
        <ele>318</ele>
        <time>2013-07-06T10:28:07Z</time>
      </trkpt>
      <trkpt lat="48.68597" lon="6.13168">
        <ele>318</ele>
        <time>2013-07-06T10:28:09Z</time>
      </trkpt>
      <trkpt lat="48.68601" lon="6.13166">
        <ele>319</ele>
        <time>2013-07-06T10:28:11Z</time>
      </trkpt>
      <trkpt lat="48.68604" lon="6.13163">
        <ele>319</ele>
        <time>2013-07-06T10:28:13Z</time>
      </trkpt>
      <trkpt lat="48.68608" lon="6.1316">
        <ele>320</ele>
        <time>2013-07-06T10:28:15Z</time>
      </trkpt>
      <trkpt lat="48.68611" lon="6.13157">
        <ele>320</ele>
        <time>2013-07-06T10:28:17Z</time>
      </trkpt>
      <trkpt lat="48.68615" lon="6.13155">
        <ele>321</ele>
        <time>2013-07-06T10:28:19Z</time>
      </trkpt>
      <trkpt lat="48.68618" lon="6.13153">
        <ele>321</ele>
        <time>2013-07-06T10:28:21Z</time>
      </trkpt>
      <trkpt lat="48.68622" lon="6.13151">
        <ele>321</ele>
        <time>2013-07-06T10:28:23Z</time>
      </trkpt>
      <trkpt lat="48.68626" lon="6.13149">
        <ele>322</ele>
        <time>2013-07-06T10:28:25Z</time>
      </trkpt>
      <trkpt lat="48.6863" lon="6.13147">
        <ele>322</ele>
        <time>2013-07-06T10:28:27Z</time>
      </trkpt>
      <trkpt lat="48.68634" lon="6.13146">
        <ele>322</ele>
        <time>2013-07-06T10:28:29Z</time>
      </trkpt>
      <trkpt lat="48.68638" lon="6.13144">
        <ele>323</ele>
        <time>2013-07-06T10:28:31Z</time>
      </trkpt>
      <trkpt lat="48.68642" lon="6.13143">
        <ele>323</ele>
        <time>2013-07-06T10:28:33Z</time>
      </trkpt>
      <trkpt lat="48.68646" lon="6.13143">
        <ele>321</ele>
        <time>2013-07-06T10:28:35Z</time>
      </trkpt>
      <trkpt lat="48.6865" lon="6.13142">
        <ele>319</ele>
        <time>2013-07-06T10:28:37Z</time>
      </trkpt>
      <trkpt lat="48.68654" lon="6.13141">
        <ele>316</ele>
        <time>2013-07-06T10:28:39Z</time>
      </trkpt>
      <trkpt lat="48.68658" lon="6.1314">
        <ele>317</ele>
        <time>2013-07-06T10:28:41Z</time>
      </trkpt>
      <trkpt lat="48.68663" lon="6.13138">
        <ele>319</ele>
        <time>2013-07-06T10:28:43Z</time>
      </trkpt>
      <trkpt lat="48.68667" lon="6.13137">
        <ele>319</ele>
        <time>2013-07-06T10:28:45Z</time>
      </trkpt>
      <trkpt lat="48.68671" lon="6.13136">
        <ele>317</ele>
        <time>2013-07-06T10:28:47Z</time>
      </trkpt>
      <trkpt lat="48.68675" lon="6.13135">
        <ele>317</ele>
        <time>2013-07-06T10:28:49Z</time>
      </trkpt>
      <trkpt lat="48.68679" lon="6.13135">
        <ele>318</ele>
        <time>2013-07-06T10:28:51Z</time>
      </trkpt>
      <trkpt lat="48.68683" lon="6.13135">
        <ele>318</ele>
        <time>2013-07-06T10:28:53Z</time>
      </trkpt>
      <trkpt lat="48.68688" lon="6.13135">
        <ele>317</ele>
        <time>2013-07-06T10:28:55Z</time>
      </trkpt>
      <trkpt lat="48.68693" lon="6.13134">
        <ele>317</ele>
        <time>2013-07-06T10:28:57Z</time>
      </trkpt>
      <trkpt lat="48.68698" lon="6.13135">
        <ele>316</ele>
        <time>2013-07-06T10:28:59Z</time>
      </trkpt>
      <trkpt lat="48.68703" lon="6.13134">
        <ele>317</ele>
        <time>2013-07-06T10:29:01Z</time>
      </trkpt>
      <trkpt lat="48.68708" lon="6.13135">
        <ele>318</ele>
        <time>2013-07-06T10:29:03Z</time>
      </trkpt>
      <trkpt lat="48.68712" lon="6.13135">
        <ele>320</ele>
        <time>2013-07-06T10:29:05Z</time>
      </trkpt>
      <trkpt lat="48.68716" lon="6.13135">
        <ele>320</ele>
        <time>2013-07-06T10:29:07Z</time>
      </trkpt>
      <trkpt lat="48.68721" lon="6.13136">
        <ele>321</ele>
        <time>2013-07-06T10:29:09Z</time>
      </trkpt>
      <trkpt lat="48.68726" lon="6.13137">
        <ele>321</ele>
        <time>2013-07-06T10:29:11Z</time>
      </trkpt>
      <trkpt lat="48.68731" lon="6.13139">
        <ele>321</ele>
        <time>2013-07-06T10:29:13Z</time>
      </trkpt>
      <trkpt lat="48.68735" lon="6.13139">
        <ele>322</ele>
        <time>2013-07-06T10:29:15Z</time>
      </trkpt>
      <trkpt lat="48.68739" lon="6.1314">
        <ele>322</ele>
        <time>2013-07-06T10:29:17Z</time>
      </trkpt>
      <trkpt lat="48.68743" lon="6.13141">
        <ele>322</ele>
        <time>2013-07-06T10:29:19Z</time>
      </trkpt>
      <trkpt lat="48.68747" lon="6.13141">
        <ele>324</ele>
        <time>2013-07-06T10:29:21Z</time>
      </trkpt>
      <trkpt lat="48.68751" lon="6.13142">
        <ele>325</ele>
        <time>2013-07-06T10:29:23Z</time>
      </trkpt>
      <trkpt lat="48.68755" lon="6.13142">
        <ele>326</ele>
        <time>2013-07-06T10:29:25Z</time>
      </trkpt>
      <trkpt lat="48.68759" lon="6.13143">
        <ele>326</ele>
        <time>2013-07-06T10:29:27Z</time>
      </trkpt>
      <trkpt lat="48.68763" lon="6.13144">
        <ele>326</ele>
        <time>2013-07-06T10:29:29Z</time>
      </trkpt>
      <trkpt lat="48.68767" lon="6.13144">
        <ele>327</ele>
        <time>2013-07-06T10:29:31Z</time>
      </trkpt>
      <trkpt lat="48.68771" lon="6.13145">
        <ele>328</ele>
        <time>2013-07-06T10:29:33Z</time>
      </trkpt>
      <trkpt lat="48.68775" lon="6.13147">
        <ele>327</ele>
        <time>2013-07-06T10:29:35Z</time>
      </trkpt>
      <trkpt lat="48.68779" lon="6.13149">
        <ele>328</ele>
        <time>2013-07-06T10:29:37Z</time>
      </trkpt>
      <trkpt lat="48.68783" lon="6.13152">
        <ele>330</ele>
        <time>2013-07-06T10:29:39Z</time>
      </trkpt>
      <trkpt lat="48.68786" lon="6.13154">
        <ele>329</ele>
        <time>2013-07-06T10:29:41Z</time>
      </trkpt>
      <trkpt lat="48.6879" lon="6.13156">
        <ele>328</ele>
        <time>2013-07-06T10:29:43Z</time>
      </trkpt>
      <trkpt lat="48.68796" lon="6.13157">
        <ele>327</ele>
        <time>2013-07-06T10:29:45Z</time>
      </trkpt>
      <trkpt lat="48.688" lon="6.13161">
        <ele>332</ele>
        <time>2013-07-06T10:29:47Z</time>
      </trkpt>
      <trkpt lat="48.68803" lon="6.13165">
        <ele>334</ele>
        <time>2013-07-06T10:29:49Z</time>
      </trkpt>
      <trkpt lat="48.68807" lon="6.13168">
        <ele>336</ele>
        <time>2013-07-06T10:29:51Z</time>
      </trkpt>
      <trkpt lat="48.6881" lon="6.13171">
        <ele>335</ele>
        <time>2013-07-06T10:29:53Z</time>
      </trkpt>
      <trkpt lat="48.68813" lon="6.13175">
        <ele>337</ele>
        <time>2013-07-06T10:29:55Z</time>
      </trkpt>
      <trkpt lat="48.68817" lon="6.13179">
        <ele>336</ele>
        <time>2013-07-06T10:29:57Z</time>
      </trkpt>
      <trkpt lat="48.68821" lon="6.13181">
        <ele>337</ele>
        <time>2013-07-06T10:29:59Z</time>
      </trkpt>
      <trkpt lat="48.68824" lon="6.1318">
        <ele>339</ele>
        <time>2013-07-06T10:30:01Z</time>
      </trkpt>
      <trkpt lat="48.68828" lon="6.13178">
        <ele>340</ele>
        <time>2013-07-06T10:30:03Z</time>
      </trkpt>
      <trkpt lat="48.68831" lon="6.13175">
        <ele>342</ele>
        <time>2013-07-06T10:30:05Z</time>
      </trkpt>
      <trkpt lat="48.68831" lon="6.1317">
        <ele>344</ele>
        <time>2013-07-06T10:30:07Z</time>
      </trkpt>
      <trkpt lat="48.68831" lon="6.13163">
        <ele>347</ele>
        <time>2013-07-06T10:30:09Z</time>
      </trkpt>
      <trkpt lat="48.68831" lon="6.13156">
        <ele>349</ele>
        <time>2013-07-06T10:30:11Z</time>
      </trkpt>
      <trkpt lat="48.68829" lon="6.1315">
        <ele>348</ele>
        <time>2013-07-06T10:30:13Z</time>
      </trkpt>
      <trkpt lat="48.68829" lon="6.13143">
        <ele>346</ele>
        <time>2013-07-06T10:30:15Z</time>
      </trkpt>
      <trkpt lat="48.68829" lon="6.13136">
        <ele>344</ele>
        <time>2013-07-06T10:30:17Z</time>
      </trkpt>
      <trkpt lat="48.68829" lon="6.13128">
        <ele>345</ele>
        <time>2013-07-06T10:30:19Z</time>
      </trkpt>
      <trkpt lat="48.68828" lon="6.13122">
        <ele>345</ele>
        <time>2013-07-06T10:30:21Z</time>
      </trkpt>
      <trkpt lat="48.68827" lon="6.13115">
        <ele>345</ele>
        <time>2013-07-06T10:30:23Z</time>
      </trkpt>
      <trkpt lat="48.68827" lon="6.13108">
        <ele>347</ele>
        <time>2013-07-06T10:30:25Z</time>
      </trkpt>
      <trkpt lat="48.68827" lon="6.13101">
        <ele>348</ele>
        <time>2013-07-06T10:30:27Z</time>
      </trkpt>
      <trkpt lat="48.68826" lon="6.13095">
        <ele>347</ele>
        <time>2013-07-06T10:30:29Z</time>
      </trkpt>
      <trkpt lat="48.68826" lon="6.13089">
        <ele>346</ele>
        <time>2013-07-06T10:30:31Z</time>
      </trkpt>
      <trkpt lat="48.68824" lon="6.13083">
        <ele>348</ele>
        <time>2013-07-06T10:30:33Z</time>
      </trkpt>
      <trkpt lat="48.68822" lon="6.13077">
        <ele>346</ele>
        <time>2013-07-06T10:30:35Z</time>
      </trkpt>
      <trkpt lat="48.68821" lon="6.13072">
        <ele>347</ele>
        <time>2013-07-06T10:30:37Z</time>
      </trkpt>
      <trkpt lat="48.6882" lon="6.13066">
        <ele>347</ele>
        <time>2013-07-06T10:30:39Z</time>
      </trkpt>
      <trkpt lat="48.68819" lon="6.13061">
        <ele>349</ele>
        <time>2013-07-06T10:30:41Z</time>
      </trkpt>
      <trkpt lat="48.68819" lon="6.13055">
        <ele>348</ele>
        <time>2013-07-06T10:30:43Z</time>
      </trkpt>
      <trkpt lat="48.68819" lon="6.13048">
        <ele>349</ele>
        <time>2013-07-06T10:30:45Z</time>
      </trkpt>
      <trkpt lat="48.68819" lon="6.13041">
        <ele>349</ele>
        <time>2013-07-06T10:30:47Z</time>
      </trkpt>
      <trkpt lat="48.68818" lon="6.13034">
        <ele>351</ele>
        <time>2013-07-06T10:30:49Z</time>
      </trkpt>
      <trkpt lat="48.68816" lon="6.13028">
        <ele>351</ele>
        <time>2013-07-06T10:30:51Z</time>
      </trkpt>
      <trkpt lat="48.68816" lon="6.13021">
        <ele>351</ele>
        <time>2013-07-06T10:30:53Z</time>
      </trkpt>
      <trkpt lat="48.68816" lon="6.13014">
        <ele>352</ele>
        <time>2013-07-06T10:30:55Z</time>
      </trkpt>
      <trkpt lat="48.68815" lon="6.13007">
        <ele>353</ele>
        <time>2013-07-06T10:30:57Z</time>
      </trkpt>
      <trkpt lat="48.68815" lon="6.13002">
        <ele>354</ele>
        <time>2013-07-06T10:30:59Z</time>
      </trkpt>
      <trkpt lat="48.68815" lon="6.12996">
        <ele>355</ele>
        <time>2013-07-06T10:31:01Z</time>
      </trkpt>
      <trkpt lat="48.68814" lon="6.1299">
        <ele>356</ele>
        <time>2013-07-06T10:31:03Z</time>
      </trkpt>
      <trkpt lat="48.68814" lon="6.12982">
        <ele>354</ele>
        <time>2013-07-06T10:31:05Z</time>
      </trkpt>
      <trkpt lat="48.68814" lon="6.12974">
        <ele>352</ele>
        <time>2013-07-06T10:31:07Z</time>
      </trkpt>
      <trkpt lat="48.68813" lon="6.12965">
        <ele>353</ele>
        <time>2013-07-06T10:31:09Z</time>
      </trkpt>
      <trkpt lat="48.68813" lon="6.12959">
        <ele>353</ele>
        <time>2013-07-06T10:31:11Z</time>
      </trkpt>
      <trkpt lat="48.68811" lon="6.12953">
        <ele>352</ele>
        <time>2013-07-06T10:31:13Z</time>
      </trkpt>
      <trkpt lat="48.6881" lon="6.12945">
        <ele>353</ele>
        <time>2013-07-06T10:31:15Z</time>
      </trkpt>
      <trkpt lat="48.68809" lon="6.12939">
        <ele>352</ele>
        <time>2013-07-06T10:31:17Z</time>
      </trkpt>
      <trkpt lat="48.68809" lon="6.12931">
        <ele>352</ele>
        <time>2013-07-06T10:31:19Z</time>
      </trkpt>
      <trkpt lat="48.6881" lon="6.12923">
        <ele>353</ele>
        <time>2013-07-06T10:31:21Z</time>
      </trkpt>
      <trkpt lat="48.68809" lon="6.12917">
        <ele>354</ele>
        <time>2013-07-06T10:31:23Z</time>
      </trkpt>
      <trkpt lat="48.68808" lon="6.12911">
        <ele>355</ele>
        <time>2013-07-06T10:31:25Z</time>
      </trkpt>
      <trkpt lat="48.68808" lon="6.12904">
        <ele>357</ele>
        <time>2013-07-06T10:31:27Z</time>
      </trkpt>
      <trkpt lat="48.68808" lon="6.12897">
        <ele>358</ele>
        <time>2013-07-06T10:31:29Z</time>
      </trkpt>
      <trkpt lat="48.68807" lon="6.12889">
        <ele>359</ele>
        <time>2013-07-06T10:31:31Z</time>
      </trkpt>
      <trkpt lat="48.68807" lon="6.12881">
        <ele>358</ele>
        <time>2013-07-06T10:31:33Z</time>
      </trkpt>
      <trkpt lat="48.68807" lon="6.12873">
        <ele>356</ele>
        <time>2013-07-06T10:31:35Z</time>
      </trkpt>
      <trkpt lat="48.68807" lon="6.12865">
        <ele>357</ele>
        <time>2013-07-06T10:31:37Z</time>
      </trkpt>
      <trkpt lat="48.68807" lon="6.12858">
        <ele>357</ele>
        <time>2013-07-06T10:31:39Z</time>
      </trkpt>
      <trkpt lat="48.68807" lon="6.1285">
        <ele>357</ele>
        <time>2013-07-06T10:31:41Z</time>
      </trkpt>
      <trkpt lat="48.68805" lon="6.12843">
        <ele>356</ele>
        <time>2013-07-06T10:31:43Z</time>
      </trkpt>
      <trkpt lat="48.68805" lon="6.12836">
        <ele>355</ele>
        <time>2013-07-06T10:31:45Z</time>
      </trkpt>
      <trkpt lat="48.68805" lon="6.1283">
        <ele>354</ele>
        <time>2013-07-06T10:31:47Z</time>
      </trkpt>
      <trkpt lat="48.68805" lon="6.12822">
        <ele>353</ele>
        <time>2013-07-06T10:31:49Z</time>
      </trkpt>
      <trkpt lat="48.68804" lon="6.12815">
        <ele>355</ele>
        <time>2013-07-06T10:31:51Z</time>
      </trkpt>
      <trkpt lat="48.68804" lon="6.12807">
        <ele>356</ele>
        <time>2013-07-06T10:31:53Z</time>
      </trkpt>
      <trkpt lat="48.68804" lon="6.12799">
        <ele>357</ele>
        <time>2013-07-06T10:31:55Z</time>
      </trkpt>
      <trkpt lat="48.68805" lon="6.12791">
        <ele>357</ele>
        <time>2013-07-06T10:31:57Z</time>
      </trkpt>
      <trkpt lat="48.68804" lon="6.12783">
        <ele>358</ele>
        <time>2013-07-06T10:31:59Z</time>
      </trkpt>
      <trkpt lat="48.68804" lon="6.12774">
        <ele>359</ele>
        <time>2013-07-06T10:32:01Z</time>
      </trkpt>
      <trkpt lat="48.68803" lon="6.12767">
        <ele>358</ele>
        <time>2013-07-06T10:32:03Z</time>
      </trkpt>
      <trkpt lat="48.68803" lon="6.1276">
        <ele>357</ele>
        <time>2013-07-06T10:32:05Z</time>
      </trkpt>
      <trkpt lat="48.68802" lon="6.12753">
        <ele>357</ele>
        <time>2013-07-06T10:32:07Z</time>
      </trkpt>
      <trkpt lat="48.688" lon="6.12746">
        <ele>357</ele>
        <time>2013-07-06T10:32:09Z</time>
      </trkpt>
      <trkpt lat="48.688" lon="6.1274">
        <ele>357</ele>
        <time>2013-07-06T10:32:11Z</time>
      </trkpt>
      <trkpt lat="48.68799" lon="6.12734">
        <ele>358</ele>
        <time>2013-07-06T10:32:13Z</time>
      </trkpt>
      <trkpt lat="48.68799" lon="6.12729">
        <ele>361</ele>
        <time>2013-07-06T10:32:15Z</time>
      </trkpt>
      <trkpt lat="48.688" lon="6.12725">
        <ele>361</ele>
        <time>2013-07-06T10:32:17Z</time>
      </trkpt>
      <trkpt lat="48.68801" lon="6.1272">
        <ele>359</ele>
        <time>2013-07-06T10:32:19Z</time>
      </trkpt>
      <trkpt lat="48.68802" lon="6.12718">
        <ele>360</ele>
        <time>2013-07-06T10:32:25Z</time>
      </trkpt>
      <trkpt lat="48.6881" lon="6.12715">
        <ele>369</ele>
        <time>2013-07-06T10:32:53Z</time>
      </trkpt>
      <trkpt lat="48.68813" lon="6.12713">
        <ele>367</ele>
        <time>2013-07-06T10:32:57Z</time>
      </trkpt>
      <trkpt lat="48.6881" lon="6.1271">
        <ele>356</ele>
        <time>2013-07-06T10:33:11Z</time>
      </trkpt>
      <trkpt lat="48.68806" lon="6.12712">
        <ele>357</ele>
        <time>2013-07-06T10:33:21Z</time>
      </trkpt>
      <trkpt lat="48.68804" lon="6.12713">
        <ele>356</ele>
        <time>2013-07-06T10:33:27Z</time>
      </trkpt>
      <trkpt lat="48.68803" lon="6.12713">
        <ele>357</ele>
        <time>2013-07-06T10:33:35Z</time>
      </trkpt>
      <trkpt lat="48.68803" lon="6.12712">
        <ele>357</ele>
        <time>2013-07-06T10:33:47Z</time>
      </trkpt>
      <trkpt lat="48.68803" lon="6.12713">
        <ele>356</ele>
        <time>2013-07-06T10:33:49Z</time>
      </trkpt>
      <trkpt lat="48.68802" lon="6.12714">
        <ele>356</ele>
        <time>2013-07-06T10:33:51Z</time>
      </trkpt>
      <trkpt lat="48.68802" lon="6.12715">
        <ele>354</ele>
        <time>2013-07-06T10:33:55Z</time>
      </trkpt>
      <trkpt lat="48.68802" lon="6.12714">
        <ele>351</ele>
        <time>2013-07-06T10:33:59Z</time>
      </trkpt>
      <trkpt lat="48.68802" lon="6.12714">
        <ele>356</ele>
        <time>2013-07-06T10:34:01Z</time>
      </trkpt>
      <trkpt lat="48.68803" lon="6.12713">
        <ele>352</ele>
        <time>2013-07-06T10:34:03Z</time>
      </trkpt>
      <trkpt lat="48.688" lon="6.12713">
        <ele>360</ele>
        <time>2013-07-06T10:34:33Z</time>
      </trkpt>
      <trkpt lat="48.68803" lon="6.1271">
        <ele>359</ele>
        <time>2013-07-06T10:34:47Z</time>
      </trkpt>
      <trkpt lat="48.68805" lon="6.12709">
        <ele>360</ele>
        <time>2013-07-06T10:34:49Z</time>
      </trkpt>
      <trkpt lat="48.68807" lon="6.12708">
        <ele>360</ele>
        <time>2013-07-06T10:34:53Z</time>
      </trkpt>
      <trkpt lat="48.68808" lon="6.12708">
        <ele>361</ele>
        <time>2013-07-06T10:34:55Z</time>
      </trkpt>
      <trkpt lat="48.68808" lon="6.12708">
        <ele>362</ele>
        <time>2013-07-06T10:34:57Z</time>
      </trkpt>
      <trkpt lat="48.68814" lon="6.1271">
        <ele>362</ele>
        <time>2013-07-06T10:35:29Z</time>
      </trkpt>
      <trkpt lat="48.68813" lon="6.1271">
        <ele>360</ele>
        <time>2013-07-06T10:35:31Z</time>
      </trkpt>
      <trkpt lat="48.68811" lon="6.1271">
        <ele>354</ele>
        <time>2013-07-06T10:35:47Z</time>
      </trkpt>
      <trkpt lat="48.68813" lon="6.12709">
        <ele>357</ele>
        <time>2013-07-06T10:35:49Z</time>
      </trkpt>
      <trkpt lat="48.68813" lon="6.12707">
        <ele>361</ele>
        <time>2013-07-06T10:35:51Z</time>
      </trkpt>
      <trkpt lat="48.6881" lon="6.12706">
        <ele>357</ele>
        <time>2013-07-06T10:35:57Z</time>
      </trkpt>
      <trkpt lat="48.68809" lon="6.12706">
        <ele>353</ele>
        <time>2013-07-06T10:35:59Z</time>
      </trkpt>
      <trkpt lat="48.68808" lon="6.12705">
        <ele>350</ele>
        <time>2013-07-06T10:36:01Z</time>
      </trkpt>
      <trkpt lat="48.68805" lon="6.12708">
        <ele>351</ele>
        <time>2013-07-06T10:36:03Z</time>
      </trkpt>
      <trkpt lat="48.68802" lon="6.12712">
        <ele>351</ele>
        <time>2013-07-06T10:36:05Z</time>
      </trkpt>
      <trkpt lat="48.68799" lon="6.12715">
        <ele>357</ele>
        <time>2013-07-06T10:36:07Z</time>
      </trkpt>
      <trkpt lat="48.68794" lon="6.12717">
        <ele>358</ele>
        <time>2013-07-06T10:36:09Z</time>
      </trkpt>
      <trkpt lat="48.68789" lon="6.12719">
        <ele>359</ele>
        <time>2013-07-06T10:36:11Z</time>
      </trkpt>
      <trkpt lat="48.68786" lon="6.1272">
        <ele>358</ele>
        <time>2013-07-06T10:36:13Z</time>
      </trkpt>
      <trkpt lat="48.6878" lon="6.12722">
        <ele>359</ele>
        <time>2013-07-06T10:36:15Z</time>
      </trkpt>
      <trkpt lat="48.68775" lon="6.12724">
        <ele>362</ele>
        <time>2013-07-06T10:36:17Z</time>
      </trkpt>
      <trkpt lat="48.68769" lon="6.1273">
        <ele>363</ele>
        <time>2013-07-06T10:36:19Z</time>
      </trkpt>
      <trkpt lat="48.68761" lon="6.12734">
        <ele>360</ele>
        <time>2013-07-06T10:36:21Z</time>
      </trkpt>
      <trkpt lat="48.68756" lon="6.12736">
        <ele>359</ele>
        <time>2013-07-06T10:36:23Z</time>
      </trkpt>
      <trkpt lat="48.6875" lon="6.12738">
        <ele>359</ele>
        <time>2013-07-06T10:36:25Z</time>
      </trkpt>
      <trkpt lat="48.68742" lon="6.12742">
        <ele>357</ele>
        <time>2013-07-06T10:36:27Z</time>
      </trkpt>
      <trkpt lat="48.68735" lon="6.12747">
        <ele>356</ele>
        <time>2013-07-06T10:36:29Z</time>
      </trkpt>
      <trkpt lat="48.68725" lon="6.12752">
        <ele>357</ele>
        <time>2013-07-06T10:36:31Z</time>
      </trkpt>
      <trkpt lat="48.68712" lon="6.12758">
        <ele>356</ele>
        <time>2013-07-06T10:36:33Z</time>
      </trkpt>
      <trkpt lat="48.68703" lon="6.12762">
        <ele>356</ele>
        <time>2013-07-06T10:36:35Z</time>
      </trkpt>
      <trkpt lat="48.68694" lon="6.12766">
        <ele>354</ele>
        <time>2013-07-06T10:36:37Z</time>
      </trkpt>
      <trkpt lat="48.68684" lon="6.12771">
        <ele>353</ele>
        <time>2013-07-06T10:36:39Z</time>
      </trkpt>
      <trkpt lat="48.68673" lon="6.12775">
        <ele>353</ele>
        <time>2013-07-06T10:36:41Z</time>
      </trkpt>
      <trkpt lat="48.68665" lon="6.12779">
        <ele>353</ele>
        <time>2013-07-06T10:36:43Z</time>
      </trkpt>
      <trkpt lat="48.68654" lon="6.12781">
        <ele>355</ele>
        <time>2013-07-06T10:36:45Z</time>
      </trkpt>
      <trkpt lat="48.68643" lon="6.12785">
        <ele>353</ele>
        <time>2013-07-06T10:36:47Z</time>
      </trkpt>
      <trkpt lat="48.6863" lon="6.12791">
        <ele>352</ele>
        <time>2013-07-06T10:36:49Z</time>
      </trkpt>
      <trkpt lat="48.68616" lon="6.12794">
        <ele>352</ele>
        <time>2013-07-06T10:36:51Z</time>
      </trkpt>
      <trkpt lat="48.68601" lon="6.12797">
        <ele>355</ele>
        <time>2013-07-06T10:36:53Z</time>
      </trkpt>
      <trkpt lat="48.68588" lon="6.12802">
        <ele>354</ele>
        <time>2013-07-06T10:36:55Z</time>
      </trkpt>
      <trkpt lat="48.68576" lon="6.12808">
        <ele>353</ele>
        <time>2013-07-06T10:36:57Z</time>
      </trkpt>
      <trkpt lat="48.68565" lon="6.12814">
        <ele>351</ele>
        <time>2013-07-06T10:36:59Z</time>
      </trkpt>
      <trkpt lat="48.68553" lon="6.1282">
        <ele>349</ele>
        <time>2013-07-06T10:37:01Z</time>
      </trkpt>
      <trkpt lat="48.68541" lon="6.12825">
        <ele>346</ele>
        <time>2013-07-06T10:37:03Z</time>
      </trkpt>
      <trkpt lat="48.68529" lon="6.12833">
        <ele>343</ele>
        <time>2013-07-06T10:37:05Z</time>
      </trkpt>
      <trkpt lat="48.68518" lon="6.12841">
        <ele>342</ele>
        <time>2013-07-06T10:37:07Z</time>
      </trkpt>
      <trkpt lat="48.68507" lon="6.1285">
        <ele>343</ele>
        <time>2013-07-06T10:37:09Z</time>
      </trkpt>
      <trkpt lat="48.68498" lon="6.12857">
        <ele>343</ele>
        <time>2013-07-06T10:37:11Z</time>
      </trkpt>
      <trkpt lat="48.68489" lon="6.12865">
        <ele>343</ele>
        <time>2013-07-06T10:37:13Z</time>
      </trkpt>
      <trkpt lat="48.68481" lon="6.12875">
        <ele>345</ele>
        <time>2013-07-06T10:37:15Z</time>
      </trkpt>
      <trkpt lat="48.68475" lon="6.12886">
        <ele>349</ele>
        <time>2013-07-06T10:37:17Z</time>
      </trkpt>
      <trkpt lat="48.68468" lon="6.12893">
        <ele>349</ele>
        <time>2013-07-06T10:37:19Z</time>
      </trkpt>
      <trkpt lat="48.68459" lon="6.12895">
        <ele>352</ele>
        <time>2013-07-06T10:37:21Z</time>
      </trkpt>
      <trkpt lat="48.68451" lon="6.12892">
        <ele>355</ele>
        <time>2013-07-06T10:37:23Z</time>
      </trkpt>
      <trkpt lat="48.68445" lon="6.12887">
        <ele>357</ele>
        <time>2013-07-06T10:37:25Z</time>
      </trkpt>
      <trkpt lat="48.68439" lon="6.12881">
        <ele>356</ele>
        <time>2013-07-06T10:37:27Z</time>
      </trkpt>
      <trkpt lat="48.68435" lon="6.12875">
        <ele>355</ele>
        <time>2013-07-06T10:37:29Z</time>
      </trkpt>
      <trkpt lat="48.68432" lon="6.1287">
        <ele>354</ele>
        <time>2013-07-06T10:37:31Z</time>
      </trkpt>
      <trkpt lat="48.68429" lon="6.12863">
        <ele>353</ele>
        <time>2013-07-06T10:37:33Z</time>
      </trkpt>
      <trkpt lat="48.68425" lon="6.12856">
        <ele>353</ele>
        <time>2013-07-06T10:37:35Z</time>
      </trkpt>
      <trkpt lat="48.68423" lon="6.12851">
        <ele>354</ele>
        <time>2013-07-06T10:37:37Z</time>
      </trkpt>
      <trkpt lat="48.6842" lon="6.12844">
        <ele>357</ele>
        <time>2013-07-06T10:37:39Z</time>
      </trkpt>
      <trkpt lat="48.68416" lon="6.12838">
        <ele>359</ele>
        <time>2013-07-06T10:37:41Z</time>
      </trkpt>
      <trkpt lat="48.68413" lon="6.12833">
        <ele>358</ele>
        <time>2013-07-06T10:37:43Z</time>
      </trkpt>
      <trkpt lat="48.68408" lon="6.12825">
        <ele>360</ele>
        <time>2013-07-06T10:37:45Z</time>
      </trkpt>
      <trkpt lat="48.68403" lon="6.12817">
        <ele>363</ele>
        <time>2013-07-06T10:37:47Z</time>
      </trkpt>
      <trkpt lat="48.68399" lon="6.12812">
        <ele>364</ele>
        <time>2013-07-06T10:37:49Z</time>
      </trkpt>
      <trkpt lat="48.68396" lon="6.12808">
        <ele>364</ele>
        <time>2013-07-06T10:37:51Z</time>
      </trkpt>
      <trkpt lat="48.68392" lon="6.12802">
        <ele>365</ele>
        <time>2013-07-06T10:37:53Z</time>
      </trkpt>
      <trkpt lat="48.68387" lon="6.12796">
        <ele>366</ele>
        <time>2013-07-06T10:37:55Z</time>
      </trkpt>
      <trkpt lat="48.68383" lon="6.1279">
        <ele>361</ele>
        <time>2013-07-06T10:37:57Z</time>
      </trkpt>
      <trkpt lat="48.68378" lon="6.12784">
        <ele>355</ele>
        <time>2013-07-06T10:37:59Z</time>
      </trkpt>
      <trkpt lat="48.68374" lon="6.12777">
        <ele>361</ele>
        <time>2013-07-06T10:38:01Z</time>
      </trkpt>
      <trkpt lat="48.6837" lon="6.1277">
        <ele>363</ele>
        <time>2013-07-06T10:38:03Z</time>
      </trkpt>
      <trkpt lat="48.68366" lon="6.12765">
        <ele>363</ele>
        <time>2013-07-06T10:38:05Z</time>
      </trkpt>
      <trkpt lat="48.68362" lon="6.1276">
        <ele>364</ele>
        <time>2013-07-06T10:38:07Z</time>
      </trkpt>
      <trkpt lat="48.68358" lon="6.12754">
        <ele>365</ele>
        <time>2013-07-06T10:38:09Z</time>
      </trkpt>
      <trkpt lat="48.68353" lon="6.12748">
        <ele>365</ele>
        <time>2013-07-06T10:38:11Z</time>
      </trkpt>
      <trkpt lat="48.68349" lon="6.12741">
        <ele>365</ele>
        <time>2013-07-06T10:38:13Z</time>
      </trkpt>
      <trkpt lat="48.68346" lon="6.12735">
        <ele>364</ele>
        <time>2013-07-06T10:38:15Z</time>
      </trkpt>
      <trkpt lat="48.68344" lon="6.1273">
        <ele>364</ele>
        <time>2013-07-06T10:38:17Z</time>
      </trkpt>
      <trkpt lat="48.6834" lon="6.12722">
        <ele>368</ele>
        <time>2013-07-06T10:38:19Z</time>
      </trkpt>
      <trkpt lat="48.68336" lon="6.12716">
        <ele>368</ele>
        <time>2013-07-06T10:38:21Z</time>
      </trkpt>
      <trkpt lat="48.68331" lon="6.12708">
        <ele>366</ele>
        <time>2013-07-06T10:38:23Z</time>
      </trkpt>
      <trkpt lat="48.68326" lon="6.127">
        <ele>367</ele>
        <time>2013-07-06T10:38:25Z</time>
      </trkpt>
      <trkpt lat="48.68322" lon="6.12693">
        <ele>368</ele>
        <time>2013-07-06T10:38:27Z</time>
      </trkpt>
      <trkpt lat="48.68317" lon="6.12684">
        <ele>368</ele>
        <time>2013-07-06T10:38:29Z</time>
      </trkpt>
      <trkpt lat="48.68314" lon="6.12675">
        <ele>365</ele>
        <time>2013-07-06T10:38:31Z</time>
      </trkpt>
      <trkpt lat="48.68311" lon="6.1267">
        <ele>366</ele>
        <time>2013-07-06T10:38:33Z</time>
      </trkpt>
      <trkpt lat="48.68305" lon="6.12662">
        <ele>366</ele>
        <time>2013-07-06T10:38:35Z</time>
      </trkpt>
      <trkpt lat="48.68299" lon="6.12656">
        <ele>366</ele>
        <time>2013-07-06T10:38:37Z</time>
      </trkpt>
      <trkpt lat="48.68293" lon="6.12651">
        <ele>365</ele>
        <time>2013-07-06T10:38:39Z</time>
      </trkpt>
      <trkpt lat="48.68288" lon="6.12646">
        <ele>367</ele>
        <time>2013-07-06T10:38:41Z</time>
      </trkpt>
      <trkpt lat="48.68282" lon="6.1264">
        <ele>365</ele>
        <time>2013-07-06T10:38:43Z</time>
      </trkpt>
      <trkpt lat="48.68277" lon="6.12634">
        <ele>364</ele>
        <time>2013-07-06T10:38:45Z</time>
      </trkpt>
      <trkpt lat="48.68271" lon="6.12625">
        <ele>365</ele>
        <time>2013-07-06T10:38:47Z</time>
      </trkpt>
      <trkpt lat="48.68264" lon="6.12619">
        <ele>362</ele>
        <time>2013-07-06T10:38:49Z</time>
      </trkpt>
      <trkpt lat="48.68257" lon="6.12614">
        <ele>357</ele>
        <time>2013-07-06T10:38:51Z</time>
      </trkpt>
      <trkpt lat="48.68251" lon="6.12608">
        <ele>356</ele>
        <time>2013-07-06T10:38:53Z</time>
      </trkpt>
      <trkpt lat="48.68245" lon="6.12601">
        <ele>357</ele>
        <time>2013-07-06T10:38:55Z</time>
      </trkpt>
      <trkpt lat="48.6824" lon="6.12595">
        <ele>356</ele>
        <time>2013-07-06T10:38:57Z</time>
      </trkpt>
      <trkpt lat="48.68234" lon="6.12587">
        <ele>356</ele>
        <time>2013-07-06T10:38:59Z</time>
      </trkpt>
      <trkpt lat="48.68227" lon="6.12579">
        <ele>354</ele>
        <time>2013-07-06T10:39:01Z</time>
      </trkpt>
      <trkpt lat="48.68222" lon="6.12573">
        <ele>354</ele>
        <time>2013-07-06T10:39:03Z</time>
      </trkpt>
      <trkpt lat="48.68214" lon="6.12568">
        <ele>353</ele>
        <time>2013-07-06T10:39:05Z</time>
      </trkpt>
      <trkpt lat="48.68206" lon="6.12564">
        <ele>354</ele>
        <time>2013-07-06T10:39:07Z</time>
      </trkpt>
      <trkpt lat="48.68198" lon="6.12559">
        <ele>356</ele>
        <time>2013-07-06T10:39:09Z</time>
      </trkpt>
      <trkpt lat="48.68192" lon="6.12551">
        <ele>357</ele>
        <time>2013-07-06T10:39:11Z</time>
      </trkpt>
      <trkpt lat="48.68188" lon="6.12544">
        <ele>360</ele>
        <time>2013-07-06T10:39:13Z</time>
      </trkpt>
      <trkpt lat="48.68184" lon="6.12537">
        <ele>363</ele>
        <time>2013-07-06T10:39:15Z</time>
      </trkpt>
      <trkpt lat="48.68182" lon="6.12529">
        <ele>366</ele>
        <time>2013-07-06T10:39:17Z</time>
      </trkpt>
      <trkpt lat="48.68179" lon="6.12522">
        <ele>367</ele>
        <time>2013-07-06T10:39:19Z</time>
      </trkpt>
      <trkpt lat="48.68177" lon="6.12517">
        <ele>366</ele>
        <time>2013-07-06T10:39:21Z</time>
      </trkpt>
      <trkpt lat="48.68174" lon="6.12509">
        <ele>371</ele>
        <time>2013-07-06T10:39:23Z</time>
      </trkpt>
      <trkpt lat="48.68171" lon="6.12502">
        <ele>371</ele>
        <time>2013-07-06T10:39:25Z</time>
      </trkpt>
      <trkpt lat="48.68168" lon="6.12494">
        <ele>368</ele>
        <time>2013-07-06T10:39:27Z</time>
      </trkpt>
      <trkpt lat="48.68163" lon="6.12487">
        <ele>368</ele>
        <time>2013-07-06T10:39:29Z</time>
      </trkpt>
      <trkpt lat="48.68158" lon="6.12479">
        <ele>374</ele>
        <time>2013-07-06T10:39:31Z</time>
      </trkpt>
      <trkpt lat="48.68152" lon="6.12473">
        <ele>377</ele>
        <time>2013-07-06T10:39:33Z</time>
      </trkpt>
      <trkpt lat="48.68145" lon="6.12466">
        <ele>376</ele>
        <time>2013-07-06T10:39:35Z</time>
      </trkpt>
      <trkpt lat="48.68142" lon="6.12454">
        <ele>381</ele>
        <time>2013-07-06T10:39:37Z</time>
      </trkpt>
      <trkpt lat="48.68139" lon="6.12442">
        <ele>380</ele>
        <time>2013-07-06T10:39:39Z</time>
      </trkpt>
      <trkpt lat="48.68137" lon="6.12431">
        <ele>384</ele>
        <time>2013-07-06T10:39:41Z</time>
      </trkpt>
      <trkpt lat="48.68134" lon="6.1242">
        <ele>385</ele>
        <time>2013-07-06T10:39:43Z</time>
      </trkpt>
      <trkpt lat="48.68131" lon="6.1241">
        <ele>383</ele>
        <time>2013-07-06T10:39:45Z</time>
      </trkpt>
      <trkpt lat="48.68127" lon="6.12401">
        <ele>389</ele>
        <time>2013-07-06T10:39:47Z</time>
      </trkpt>
      <trkpt lat="48.68122" lon="6.12392">
        <ele>390</ele>
        <time>2013-07-06T10:39:49Z</time>
      </trkpt>
      <trkpt lat="48.68117" lon="6.12382">
        <ele>389</ele>
        <time>2013-07-06T10:39:51Z</time>
      </trkpt>
      <trkpt lat="48.68111" lon="6.12372">
        <ele>387</ele>
        <time>2013-07-06T10:39:53Z</time>
      </trkpt>
      <trkpt lat="48.68106" lon="6.12359">
        <ele>390</ele>
        <time>2013-07-06T10:39:55Z</time>
      </trkpt>
      <trkpt lat="48.68101" lon="6.12342">
        <ele>386</ele>
        <time>2013-07-06T10:39:57Z</time>
      </trkpt>
      <trkpt lat="48.68096" lon="6.12328">
        <ele>383</ele>
        <time>2013-07-06T10:39:59Z</time>
      </trkpt>
      <trkpt lat="48.68091" lon="6.12314">
        <ele>381</ele>
        <time>2013-07-06T10:40:01Z</time>
      </trkpt>
      <trkpt lat="48.68087" lon="6.12302">
        <ele>382</ele>
        <time>2013-07-06T10:40:03Z</time>
      </trkpt>
      <trkpt lat="48.68082" lon="6.1229">
        <ele>382</ele>
        <time>2013-07-06T10:40:05Z</time>
      </trkpt>
      <trkpt lat="48.68076" lon="6.12278">
        <ele>383</ele>
        <time>2013-07-06T10:40:07Z</time>
      </trkpt>
      <trkpt lat="48.68069" lon="6.1227">
        <ele>385</ele>
        <time>2013-07-06T10:40:09Z</time>
      </trkpt>
      <trkpt lat="48.68062" lon="6.12261">
        <ele>388</ele>
        <time>2013-07-06T10:40:11Z</time>
      </trkpt>
      <trkpt lat="48.68056" lon="6.12247">
        <ele>392</ele>
        <time>2013-07-06T10:40:13Z</time>
      </trkpt>
      <trkpt lat="48.6805" lon="6.12232">
        <ele>389</ele>
        <time>2013-07-06T10:40:15Z</time>
      </trkpt>
      <trkpt lat="48.68045" lon="6.12217">
        <ele>386</ele>
        <time>2013-07-06T10:40:17Z</time>
      </trkpt>
      <trkpt lat="48.68041" lon="6.12203">
        <ele>384</ele>
        <time>2013-07-06T10:40:19Z</time>
      </trkpt>
      <trkpt lat="48.68037" lon="6.1219">
        <ele>383</ele>
        <time>2013-07-06T10:40:21Z</time>
      </trkpt>
      <trkpt lat="48.68031" lon="6.12179">
        <ele>383</ele>
        <time>2013-07-06T10:40:23Z</time>
      </trkpt>
      <trkpt lat="48.68025" lon="6.12166">
        <ele>381</ele>
        <time>2013-07-06T10:40:25Z</time>
      </trkpt>
      <trkpt lat="48.68021" lon="6.12154">
        <ele>377</ele>
        <time>2013-07-06T10:40:27Z</time>
      </trkpt>
      <trkpt lat="48.68017" lon="6.12143">
        <ele>376</ele>
        <time>2013-07-06T10:40:29Z</time>
      </trkpt>
      <trkpt lat="48.68013" lon="6.12133">
        <ele>377</ele>
        <time>2013-07-06T10:40:31Z</time>
      </trkpt>
      <trkpt lat="48.6801" lon="6.12121">
        <ele>377</ele>
        <time>2013-07-06T10:40:33Z</time>
      </trkpt>
      <trkpt lat="48.68007" lon="6.12108">
        <ele>376</ele>
        <time>2013-07-06T10:40:35Z</time>
      </trkpt>
      <trkpt lat="48.68005" lon="6.12095">
        <ele>378</ele>
        <time>2013-07-06T10:40:37Z</time>
      </trkpt>
      <trkpt lat="48.68003" lon="6.12083">
        <ele>376</ele>
        <time>2013-07-06T10:40:39Z</time>
      </trkpt>
      <trkpt lat="48.68001" lon="6.12069">
        <ele>376</ele>
        <time>2013-07-06T10:40:41Z</time>
      </trkpt>
      <trkpt lat="48.67998" lon="6.12054">
        <ele>375</ele>
        <time>2013-07-06T10:40:43Z</time>
      </trkpt>
      <trkpt lat="48.67996" lon="6.12041">
        <ele>375</ele>
        <time>2013-07-06T10:40:45Z</time>
      </trkpt>
      <trkpt lat="48.67992" lon="6.12027">
        <ele>371</ele>
        <time>2013-07-06T10:40:47Z</time>
      </trkpt>
      <trkpt lat="48.67986" lon="6.12013">
        <ele>363</ele>
        <time>2013-07-06T10:40:49Z</time>
      </trkpt>
      <trkpt lat="48.6798" lon="6.12006">
        <ele>360</ele>
        <time>2013-07-06T10:40:51Z</time>
      </trkpt>
      <trkpt lat="48.67974" lon="6.12005">
        <ele>355</ele>
        <time>2013-07-06T10:40:53Z</time>
      </trkpt>
      <trkpt lat="48.67967" lon="6.12005">
        <ele>354</ele>
        <time>2013-07-06T10:40:55Z</time>
      </trkpt>
      <trkpt lat="48.6796" lon="6.12007">
        <ele>350</ele>
        <time>2013-07-06T10:40:57Z</time>
      </trkpt>
      <trkpt lat="48.67953" lon="6.12008">
        <ele>351</ele>
        <time>2013-07-06T10:40:59Z</time>
      </trkpt>
      <trkpt lat="48.67946" lon="6.12011">
        <ele>351</ele>
        <time>2013-07-06T10:41:01Z</time>
      </trkpt>
      <trkpt lat="48.67939" lon="6.12014">
        <ele>350</ele>
        <time>2013-07-06T10:41:03Z</time>
      </trkpt>
      <trkpt lat="48.67931" lon="6.12016">
        <ele>349</ele>
        <time>2013-07-06T10:41:05Z</time>
      </trkpt>
      <trkpt lat="48.67925" lon="6.12018">
        <ele>350</ele>
        <time>2013-07-06T10:41:07Z</time>
      </trkpt>
      <trkpt lat="48.67918" lon="6.12021">
        <ele>349</ele>
        <time>2013-07-06T10:41:09Z</time>
      </trkpt>
      <trkpt lat="48.67911" lon="6.12025">
        <ele>348</ele>
        <time>2013-07-06T10:41:11Z</time>
      </trkpt>
      <trkpt lat="48.67904" lon="6.12028">
        <ele>347</ele>
        <time>2013-07-06T10:41:13Z</time>
      </trkpt>
      <trkpt lat="48.67896" lon="6.12031">
        <ele>346</ele>
        <time>2013-07-06T10:41:15Z</time>
      </trkpt>
      <trkpt lat="48.67889" lon="6.12034">
        <ele>344</ele>
        <time>2013-07-06T10:41:17Z</time>
      </trkpt>
      <trkpt lat="48.67882" lon="6.12037">
        <ele>343</ele>
        <time>2013-07-06T10:41:19Z</time>
      </trkpt>
      <trkpt lat="48.67875" lon="6.12039">
        <ele>342</ele>
        <time>2013-07-06T10:41:21Z</time>
      </trkpt>
      <trkpt lat="48.67868" lon="6.12042">
        <ele>341</ele>
        <time>2013-07-06T10:41:23Z</time>
      </trkpt>
      <trkpt lat="48.6786" lon="6.12045">
        <ele>340</ele>
        <time>2013-07-06T10:41:25Z</time>
      </trkpt>
      <trkpt lat="48.67853" lon="6.12048">
        <ele>340</ele>
        <time>2013-07-06T10:41:27Z</time>
      </trkpt>
      <trkpt lat="48.67846" lon="6.12051">
        <ele>338</ele>
        <time>2013-07-06T10:41:29Z</time>
      </trkpt>
      <trkpt lat="48.67839" lon="6.12054">
        <ele>338</ele>
        <time>2013-07-06T10:41:31Z</time>
      </trkpt>
      <trkpt lat="48.67831" lon="6.12057">
        <ele>338</ele>
        <time>2013-07-06T10:41:33Z</time>
      </trkpt>
      <trkpt lat="48.67824" lon="6.12059">
        <ele>338</ele>
        <time>2013-07-06T10:41:35Z</time>
      </trkpt>
      <trkpt lat="48.67817" lon="6.12061">
        <ele>339</ele>
        <time>2013-07-06T10:41:37Z</time>
      </trkpt>
      <trkpt lat="48.67811" lon="6.12058">
        <ele>346</ele>
        <time>2013-07-06T10:41:39Z</time>
      </trkpt>
      <trkpt lat="48.67804" lon="6.12057">
        <ele>348</ele>
        <time>2013-07-06T10:41:41Z</time>
      </trkpt>
      <trkpt lat="48.67797" lon="6.12058">
        <ele>349</ele>
        <time>2013-07-06T10:41:43Z</time>
      </trkpt>
      <trkpt lat="48.6779" lon="6.1206">
        <ele>350</ele>
        <time>2013-07-06T10:41:45Z</time>
      </trkpt>
      <trkpt lat="48.67782" lon="6.12062">
        <ele>351</ele>
        <time>2013-07-06T10:41:47Z</time>
      </trkpt>
      <trkpt lat="48.67774" lon="6.12065">
        <ele>350</ele>
        <time>2013-07-06T10:41:49Z</time>
      </trkpt>
      <trkpt lat="48.67765" lon="6.12068">
        <ele>349</ele>
        <time>2013-07-06T10:41:51Z</time>
      </trkpt>
      <trkpt lat="48.67756" lon="6.12071">
        <ele>349</ele>
        <time>2013-07-06T10:41:53Z</time>
      </trkpt>
      <trkpt lat="48.67746" lon="6.12074">
        <ele>351</ele>
        <time>2013-07-06T10:41:55Z</time>
      </trkpt>
      <trkpt lat="48.67735" lon="6.12078">
        <ele>349</ele>
        <time>2013-07-06T10:41:57Z</time>
      </trkpt>
      <trkpt lat="48.67727" lon="6.1208">
        <ele>349</ele>
        <time>2013-07-06T10:41:59Z</time>
      </trkpt>
      <trkpt lat="48.67722" lon="6.12081">
        <ele>350</ele>
        <time>2013-07-06T10:42:01Z</time>
      </trkpt>
      <trkpt lat="48.67717" lon="6.12082">
        <ele>353</ele>
        <time>2013-07-06T10:42:03Z</time>
      </trkpt>
      <trkpt lat="48.67711" lon="6.12084">
        <ele>352</ele>
        <time>2013-07-06T10:42:05Z</time>
      </trkpt>
      <trkpt lat="48.67705" lon="6.12086">
        <ele>352</ele>
        <time>2013-07-06T10:42:07Z</time>
      </trkpt>
      <trkpt lat="48.67699" lon="6.12087">
        <ele>353</ele>
        <time>2013-07-06T10:42:09Z</time>
      </trkpt>
      <trkpt lat="48.67694" lon="6.12089">
        <ele>352</ele>
        <time>2013-07-06T10:42:11Z</time>
      </trkpt>
      <trkpt lat="48.67688" lon="6.12092">
        <ele>351</ele>
        <time>2013-07-06T10:42:13Z</time>
      </trkpt>
      <trkpt lat="48.67683" lon="6.12096">
        <ele>350</ele>
        <time>2013-07-06T10:42:15Z</time>
      </trkpt>
      <trkpt lat="48.67679" lon="6.121">
        <ele>352</ele>
        <time>2013-07-06T10:42:17Z</time>
      </trkpt>
      <trkpt lat="48.67674" lon="6.12103">
        <ele>351</ele>
        <time>2013-07-06T10:42:19Z</time>
      </trkpt>
      <trkpt lat="48.6767" lon="6.12105">
        <ele>350</ele>
        <time>2013-07-06T10:42:21Z</time>
      </trkpt>
      <trkpt lat="48.67667" lon="6.12105">
        <ele>350</ele>
        <time>2013-07-06T10:42:23Z</time>
      </trkpt>
      <trkpt lat="48.67664" lon="6.12104">
        <ele>353</ele>
        <time>2013-07-06T10:42:25Z</time>
      </trkpt>
      <trkpt lat="48.67661" lon="6.12104">
        <ele>355</ele>
        <time>2013-07-06T10:42:27Z</time>
      </trkpt>
      <trkpt lat="48.67654" lon="6.12103">
        <ele>353</ele>
        <time>2013-07-06T10:42:31Z</time>
      </trkpt>
      <trkpt lat="48.67651" lon="6.12103">
        <ele>350</ele>
        <time>2013-07-06T10:42:33Z</time>
      </trkpt>
      <trkpt lat="48.67647" lon="6.12104">
        <ele>348</ele>
        <time>2013-07-06T10:42:35Z</time>
      </trkpt>
      <trkpt lat="48.67635" lon="6.12109">
        <ele>353</ele>
        <time>2013-07-06T10:42:43Z</time>
      </trkpt>
      <trkpt lat="48.6763" lon="6.12113">
        <ele>352</ele>
        <time>2013-07-06T10:42:45Z</time>
      </trkpt>
      <trkpt lat="48.67623" lon="6.12111">
        <ele>354</ele>
        <time>2013-07-06T10:42:47Z</time>
      </trkpt>
      <trkpt lat="48.67614" lon="6.12111">
        <ele>359</ele>
        <time>2013-07-06T10:42:49Z</time>
      </trkpt>
      <trkpt lat="48.67606" lon="6.12114">
        <ele>358</ele>
        <time>2013-07-06T10:42:51Z</time>
      </trkpt>
      <trkpt lat="48.67594" lon="6.12117">
        <ele>358</ele>
        <time>2013-07-06T10:42:53Z</time>
      </trkpt>
      <trkpt lat="48.67583" lon="6.12119">
        <ele>361</ele>
        <time>2013-07-06T10:42:55Z</time>
      </trkpt>
      <trkpt lat="48.67575" lon="6.1212">
        <ele>357</ele>
        <time>2013-07-06T10:42:57Z</time>
      </trkpt>
      <trkpt lat="48.67569" lon="6.12124">
        <ele>356</ele>
        <time>2013-07-06T10:42:59Z</time>
      </trkpt>
      <trkpt lat="48.67562" lon="6.12127">
        <ele>355</ele>
        <time>2013-07-06T10:43:01Z</time>
      </trkpt>
      <trkpt lat="48.67556" lon="6.12129">
        <ele>355</ele>
        <time>2013-07-06T10:43:03Z</time>
      </trkpt>
      <trkpt lat="48.67549" lon="6.12132">
        <ele>354</ele>
        <time>2013-07-06T10:43:05Z</time>
      </trkpt>
      <trkpt lat="48.67543" lon="6.12134">
        <ele>353</ele>
        <time>2013-07-06T10:43:07Z</time>
      </trkpt>
      <trkpt lat="48.67539" lon="6.12136">
        <ele>353</ele>
        <time>2013-07-06T10:43:09Z</time>
      </trkpt>
      <trkpt lat="48.67534" lon="6.12138">
        <ele>354</ele>
        <time>2013-07-06T10:43:11Z</time>
      </trkpt>
      <trkpt lat="48.67529" lon="6.1214">
        <ele>354</ele>
        <time>2013-07-06T10:43:13Z</time>
      </trkpt>
      <trkpt lat="48.67525" lon="6.12142">
        <ele>355</ele>
        <time>2013-07-06T10:43:15Z</time>
      </trkpt>
      <trkpt lat="48.67519" lon="6.12144">
        <ele>354</ele>
        <time>2013-07-06T10:43:17Z</time>
      </trkpt>
      <trkpt lat="48.67513" lon="6.12147">
        <ele>353</ele>
        <time>2013-07-06T10:43:19Z</time>
      </trkpt>
      <trkpt lat="48.67507" lon="6.12149">
        <ele>353</ele>
        <time>2013-07-06T10:43:21Z</time>
      </trkpt>
      <trkpt lat="48.67501" lon="6.12151">
        <ele>353</ele>
        <time>2013-07-06T10:43:23Z</time>
      </trkpt>
      <trkpt lat="48.67495" lon="6.12153">
        <ele>354</ele>
        <time>2013-07-06T10:43:25Z</time>
      </trkpt>
      <trkpt lat="48.67489" lon="6.12153">
        <ele>355</ele>
        <time>2013-07-06T10:43:27Z</time>
      </trkpt>
      <trkpt lat="48.67484" lon="6.12154">
        <ele>356</ele>
        <time>2013-07-06T10:43:29Z</time>
      </trkpt>
      <trkpt lat="48.67479" lon="6.12156">
        <ele>357</ele>
        <time>2013-07-06T10:43:31Z</time>
      </trkpt>
      <trkpt lat="48.67473" lon="6.12159">
        <ele>357</ele>
        <time>2013-07-06T10:43:33Z</time>
      </trkpt>
      <trkpt lat="48.67467" lon="6.12161">
        <ele>357</ele>
        <time>2013-07-06T10:43:35Z</time>
      </trkpt>
      <trkpt lat="48.67461" lon="6.12164">
        <ele>356</ele>
        <time>2013-07-06T10:43:37Z</time>
      </trkpt>
      <trkpt lat="48.67454" lon="6.12166">
        <ele>353</ele>
        <time>2013-07-06T10:43:39Z</time>
      </trkpt>
      <trkpt lat="48.67447" lon="6.12168">
        <ele>352</ele>
        <time>2013-07-06T10:43:41Z</time>
      </trkpt>
      <trkpt lat="48.6744" lon="6.12169">
        <ele>353</ele>
        <time>2013-07-06T10:43:43Z</time>
      </trkpt>
      <trkpt lat="48.67434" lon="6.12171">
        <ele>354</ele>
        <time>2013-07-06T10:43:45Z</time>
      </trkpt>
      <trkpt lat="48.67428" lon="6.12172">
        <ele>354</ele>
        <time>2013-07-06T10:43:47Z</time>
      </trkpt>
      <trkpt lat="48.67422" lon="6.12175">
        <ele>355</ele>
        <time>2013-07-06T10:43:49Z</time>
      </trkpt>
      <trkpt lat="48.67416" lon="6.12176">
        <ele>355</ele>
        <time>2013-07-06T10:43:51Z</time>
      </trkpt>
      <trkpt lat="48.67411" lon="6.12173">
        <ele>356</ele>
        <time>2013-07-06T10:43:53Z</time>
      </trkpt>
      <trkpt lat="48.67407" lon="6.12169">
        <ele>358</ele>
        <time>2013-07-06T10:43:55Z</time>
      </trkpt>
      <trkpt lat="48.67403" lon="6.12165">
        <ele>359</ele>
        <time>2013-07-06T10:43:57Z</time>
      </trkpt>
      <trkpt lat="48.67399" lon="6.12161">
        <ele>362</ele>
        <time>2013-07-06T10:43:59Z</time>
      </trkpt>
      <trkpt lat="48.67396" lon="6.12155">
        <ele>360</ele>
        <time>2013-07-06T10:44:01Z</time>
      </trkpt>
      <trkpt lat="48.67395" lon="6.12147">
        <ele>361</ele>
        <time>2013-07-06T10:44:03Z</time>
      </trkpt>
      <trkpt lat="48.67395" lon="6.12139">
        <ele>363</ele>
        <time>2013-07-06T10:44:05Z</time>
      </trkpt>
      <trkpt lat="48.67394" lon="6.12131">
        <ele>364</ele>
        <time>2013-07-06T10:44:07Z</time>
      </trkpt>
      <trkpt lat="48.67394" lon="6.12124">
        <ele>365</ele>
        <time>2013-07-06T10:44:09Z</time>
      </trkpt>
      <trkpt lat="48.67394" lon="6.12116">
        <ele>365</ele>
        <time>2013-07-06T10:44:11Z</time>
      </trkpt>
      <trkpt lat="48.67394" lon="6.12104">
        <ele>364</ele>
        <time>2013-07-06T10:44:13Z</time>
      </trkpt>
      <trkpt lat="48.67392" lon="6.12093">
        <ele>361</ele>
        <time>2013-07-06T10:44:15Z</time>
      </trkpt>
      <trkpt lat="48.67391" lon="6.12085">
        <ele>361</ele>
        <time>2013-07-06T10:44:17Z</time>
      </trkpt>
      <trkpt lat="48.67392" lon="6.12079">
        <ele>362</ele>
        <time>2013-07-06T10:44:19Z</time>
      </trkpt>
      <trkpt lat="48.67392" lon="6.12069">
        <ele>365</ele>
        <time>2013-07-06T10:44:21Z</time>
      </trkpt>
      <trkpt lat="48.67392" lon="6.12062">
        <ele>365</ele>
        <time>2013-07-06T10:44:23Z</time>
      </trkpt>
      <trkpt lat="48.67392" lon="6.12059">
        <ele>363</ele>
        <time>2013-07-06T10:44:25Z</time>
      </trkpt>
      <trkpt lat="48.67392" lon="6.12049">
        <ele>365</ele>
        <time>2013-07-06T10:44:29Z</time>
      </trkpt>
      <trkpt lat="48.67392" lon="6.12041">
        <ele>369</ele>
        <time>2013-07-06T10:44:31Z</time>
      </trkpt>
      <trkpt lat="48.67393" lon="6.12031">
        <ele>375</ele>
        <time>2013-07-06T10:44:33Z</time>
      </trkpt>
      <trkpt lat="48.67394" lon="6.12023">
        <ele>373</ele>
        <time>2013-07-06T10:44:35Z</time>
      </trkpt>
      <trkpt lat="48.67396" lon="6.12016">
        <ele>375</ele>
        <time>2013-07-06T10:44:37Z</time>
      </trkpt>
      <trkpt lat="48.67397" lon="6.12007">
        <ele>374</ele>
        <time>2013-07-06T10:44:39Z</time>
      </trkpt>
      <trkpt lat="48.67395" lon="6.11991">
        <ele>369</ele>
        <time>2013-07-06T10:44:45Z</time>
      </trkpt>
      <trkpt lat="48.67395" lon="6.11984">
        <ele>368</ele>
        <time>2013-07-06T10:44:47Z</time>
      </trkpt>
      <trkpt lat="48.67394" lon="6.11981">
        <ele>370</ele>
        <time>2013-07-06T10:44:49Z</time>
      </trkpt>
      <trkpt lat="48.67392" lon="6.11974">
        <ele>372</ele>
        <time>2013-07-06T10:44:55Z</time>
      </trkpt>
      <trkpt lat="48.67392" lon="6.1197">
        <ele>367</ele>
        <time>2013-07-06T10:44:57Z</time>
      </trkpt>
      <trkpt lat="48.67394" lon="6.11962">
        <ele>372</ele>
        <time>2013-07-06T10:45:03Z</time>
      </trkpt>
      <trkpt lat="48.67395" lon="6.11956">
        <ele>364</ele>
        <time>2013-07-06T10:45:07Z</time>
      </trkpt>
      <trkpt lat="48.67397" lon="6.11945">
        <ele>365</ele>
        <time>2013-07-06T10:45:15Z</time>
      </trkpt>
      <trkpt lat="48.67399" lon="6.11941">
        <ele>365</ele>
        <time>2013-07-06T10:45:17Z</time>
      </trkpt>
      <trkpt lat="48.67402" lon="6.11933">
        <ele>371</ele>
        <time>2013-07-06T10:45:21Z</time>
      </trkpt>
      <trkpt lat="48.67402" lon="6.11927">
        <ele>371</ele>
        <time>2013-07-06T10:45:25Z</time>
      </trkpt>
      <trkpt lat="48.67402" lon="6.11923">
        <ele>369</ele>
        <time>2013-07-06T10:45:27Z</time>
      </trkpt>
      <trkpt lat="48.67403" lon="6.11911">
        <ele>370</ele>
        <time>2013-07-06T10:45:31Z</time>
      </trkpt>
      <trkpt lat="48.67403" lon="6.11904">
        <ele>372</ele>
        <time>2013-07-06T10:45:33Z</time>
      </trkpt>
      <trkpt lat="48.67404" lon="6.11895">
        <ele>370</ele>
        <time>2013-07-06T10:45:35Z</time>
      </trkpt>
      <trkpt lat="48.67405" lon="6.11885">
        <ele>370</ele>
        <time>2013-07-06T10:45:37Z</time>
      </trkpt>
      <trkpt lat="48.67406" lon="6.11876">
        <ele>372</ele>
        <time>2013-07-06T10:45:39Z</time>
      </trkpt>
      <trkpt lat="48.67407" lon="6.11869">
        <ele>370</ele>
        <time>2013-07-06T10:45:41Z</time>
      </trkpt>
      <trkpt lat="48.67407" lon="6.11862">
        <ele>373</ele>
        <time>2013-07-06T10:45:43Z</time>
      </trkpt>
      <trkpt lat="48.67408" lon="6.11854">
        <ele>373</ele>
        <time>2013-07-06T10:45:45Z</time>
      </trkpt>
      <trkpt lat="48.6741" lon="6.11846">
        <ele>373</ele>
        <time>2013-07-06T10:45:47Z</time>
      </trkpt>
      <trkpt lat="48.6741" lon="6.11837">
        <ele>374</ele>
        <time>2013-07-06T10:45:49Z</time>
      </trkpt>
      <trkpt lat="48.6741" lon="6.11826">
        <ele>373</ele>
        <time>2013-07-06T10:45:51Z</time>
      </trkpt>
      <trkpt lat="48.67411" lon="6.11817">
        <ele>376</ele>
        <time>2013-07-06T10:45:53Z</time>
      </trkpt>
      <trkpt lat="48.67411" lon="6.11806">
        <ele>374</ele>
        <time>2013-07-06T10:45:55Z</time>
      </trkpt>
      <trkpt lat="48.67414" lon="6.11794">
        <ele>371</ele>
        <time>2013-07-06T10:45:57Z</time>
      </trkpt>
      <trkpt lat="48.67416" lon="6.11783">
        <ele>371</ele>
        <time>2013-07-06T10:45:59Z</time>
      </trkpt>
      <trkpt lat="48.67417" lon="6.11772">
        <ele>375</ele>
        <time>2013-07-06T10:46:01Z</time>
      </trkpt>
      <trkpt lat="48.67418" lon="6.11763">
        <ele>376</ele>
        <time>2013-07-06T10:46:03Z</time>
      </trkpt>
      <trkpt lat="48.67418" lon="6.11754">
        <ele>375</ele>
        <time>2013-07-06T10:46:05Z</time>
      </trkpt>
      <trkpt lat="48.67418" lon="6.11744">
        <ele>373</ele>
        <time>2013-07-06T10:46:07Z</time>
      </trkpt>
      <trkpt lat="48.67419" lon="6.11734">
        <ele>370</ele>
        <time>2013-07-06T10:46:09Z</time>
      </trkpt>
      <trkpt lat="48.67418" lon="6.11725">
        <ele>369</ele>
        <time>2013-07-06T10:46:11Z</time>
      </trkpt>
      <trkpt lat="48.67419" lon="6.11714">
        <ele>376</ele>
        <time>2013-07-06T10:46:13Z</time>
      </trkpt>
      <trkpt lat="48.6742" lon="6.11704">
        <ele>374</ele>
        <time>2013-07-06T10:46:15Z</time>
      </trkpt>
      <trkpt lat="48.67421" lon="6.11694">
        <ele>377</ele>
        <time>2013-07-06T10:46:17Z</time>
      </trkpt>
      <trkpt lat="48.67422" lon="6.11683">
        <ele>377</ele>
        <time>2013-07-06T10:46:19Z</time>
      </trkpt>
      <trkpt lat="48.67423" lon="6.1167">
        <ele>370</ele>
        <time>2013-07-06T10:46:21Z</time>
      </trkpt>
      <trkpt lat="48.67424" lon="6.11658">
        <ele>372</ele>
        <time>2013-07-06T10:46:23Z</time>
      </trkpt>
      <trkpt lat="48.67425" lon="6.11643">
        <ele>371</ele>
        <time>2013-07-06T10:46:25Z</time>
      </trkpt>
      <trkpt lat="48.67424" lon="6.11629">
        <ele>373</ele>
        <time>2013-07-06T10:46:27Z</time>
      </trkpt>
      <trkpt lat="48.6742" lon="6.11618">
        <ele>367</ele>
        <time>2013-07-06T10:46:29Z</time>
      </trkpt>
      <trkpt lat="48.67418" lon="6.11606">
        <ele>369</ele>
        <time>2013-07-06T10:46:31Z</time>
      </trkpt>
      <trkpt lat="48.67417" lon="6.11592">
        <ele>369</ele>
        <time>2013-07-06T10:46:33Z</time>
      </trkpt>
      <trkpt lat="48.67414" lon="6.11583">
        <ele>365</ele>
        <time>2013-07-06T10:46:35Z</time>
      </trkpt>
      <trkpt lat="48.67408" lon="6.11574">
        <ele>367</ele>
        <time>2013-07-06T10:46:37Z</time>
      </trkpt>
      <trkpt lat="48.67403" lon="6.11568">
        <ele>365</ele>
        <time>2013-07-06T10:46:39Z</time>
      </trkpt>
      <trkpt lat="48.674" lon="6.11563">
        <ele>364</ele>
        <time>2013-07-06T10:46:41Z</time>
      </trkpt>
      <trkpt lat="48.67397" lon="6.11558">
        <ele>360</ele>
        <time>2013-07-06T10:46:43Z</time>
      </trkpt>
      <trkpt lat="48.67392" lon="6.11547">
        <ele>357</ele>
        <time>2013-07-06T10:46:48Z</time>
      </trkpt>
      <trkpt lat="48.6739" lon="6.11544">
        <ele>357</ele>
        <time>2013-07-06T10:46:50Z</time>
      </trkpt>
      <trkpt lat="48.67384" lon="6.11529">
        <ele>338</ele>
        <time>2013-07-06T10:46:56Z</time>
      </trkpt>
      <trkpt lat="48.67384" lon="6.11524">
        <ele>335</ele>
        <time>2013-07-06T10:46:58Z</time>
      </trkpt>
      <trkpt lat="48.67384" lon="6.11522">
        <ele>327</ele>
        <time>2013-07-06T10:47:00Z</time>
      </trkpt>
      <trkpt lat="48.67383" lon="6.11521">
        <ele>327</ele>
        <time>2013-07-06T10:47:02Z</time>
      </trkpt>
      <trkpt lat="48.67382" lon="6.1152">
        <ele>328</ele>
        <time>2013-07-06T10:47:04Z</time>
      </trkpt>
      <trkpt lat="48.67381" lon="6.1152">
        <ele>330</ele>
        <time>2013-07-06T10:47:06Z</time>
      </trkpt>
      <trkpt lat="48.67379" lon="6.11518">
        <ele>328</ele>
        <time>2013-07-06T10:47:08Z</time>
      </trkpt>
      <trkpt lat="48.67378" lon="6.11519">
        <ele>325</ele>
        <time>2013-07-06T10:47:10Z</time>
      </trkpt>
      <trkpt lat="48.67375" lon="6.11524">
        <ele>339</ele>
        <time>2013-07-06T10:47:30Z</time>
      </trkpt>
      <trkpt lat="48.67374" lon="6.11526">
        <ele>337</ele>
        <time>2013-07-06T10:47:40Z</time>
      </trkpt>
      <trkpt lat="48.67373" lon="6.11526">
        <ele>341</ele>
        <time>2013-07-06T10:47:42Z</time>
      </trkpt>
      <trkpt lat="48.67372" lon="6.11526">
        <ele>340</ele>
        <time>2013-07-06T10:47:44Z</time>
      </trkpt>
      <trkpt lat="48.67374" lon="6.1152">
        <ele>333</ele>
        <time>2013-07-06T10:47:58Z</time>
      </trkpt>
      <trkpt lat="48.67374" lon="6.11517">
        <ele>329</ele>
        <time>2013-07-06T10:48:00Z</time>
      </trkpt>
      <trkpt lat="48.67375" lon="6.11515">
        <ele>323</ele>
        <time>2013-07-06T10:48:08Z</time>
      </trkpt>
      <trkpt lat="48.6737" lon="6.11505">
        <ele>308</ele>
        <time>2013-07-06T10:48:34Z</time>
      </trkpt>
      <trkpt lat="48.6737" lon="6.11505">
        <ele>310</ele>
        <time>2013-07-06T10:48:38Z</time>
      </trkpt>
      <trkpt lat="48.6737" lon="6.11503">
        <ele>312</ele>
        <time>2013-07-06T10:48:40Z</time>
      </trkpt>
      <trkpt lat="48.67372" lon="6.11497">
        <ele>305</ele>
        <time>2013-07-06T10:48:46Z</time>
      </trkpt>
      <trkpt lat="48.67373" lon="6.11494">
        <ele>303</ele>
        <time>2013-07-06T10:48:48Z</time>
      </trkpt>
      <trkpt lat="48.67372" lon="6.11482">
        <ele>304</ele>
        <time>2013-07-06T10:49:02Z</time>
      </trkpt>
      <trkpt lat="48.67367" lon="6.11473">
        <ele>315</ele>
        <time>2013-07-06T10:49:10Z</time>
      </trkpt>
      <trkpt lat="48.67368" lon="6.11472">
        <ele>305</ele>
        <time>2013-07-06T10:49:12Z</time>
      </trkpt>
      <trkpt lat="48.67367" lon="6.11473">
        <ele>308</ele>
        <time>2013-07-06T10:49:14Z</time>
      </trkpt>
      <trkpt lat="48.67367" lon="6.11473">
        <ele>310</ele>
        <time>2013-07-06T10:49:18Z</time>
      </trkpt>
      <trkpt lat="48.67366" lon="6.11474">
        <ele>305</ele>
        <time>2013-07-06T10:49:22Z</time>
      </trkpt>
      <trkpt lat="48.67366" lon="6.11474">
        <ele>308</ele>
        <time>2013-07-06T10:49:28Z</time>
      </trkpt>
      <trkpt lat="48.67366" lon="6.11474">
        <ele>309</ele>
        <time>2013-07-06T10:49:30Z</time>
      </trkpt>
      <trkpt lat="48.67366" lon="6.11474">
        <ele>308</ele>
        <time>2013-07-06T10:49:32Z</time>
      </trkpt>
      <trkpt lat="48.67365" lon="6.11475">
        <ele>307</ele>
        <time>2013-07-06T10:49:34Z</time>
      </trkpt>
      <trkpt lat="48.67365" lon="6.11475">
        <ele>311</ele>
        <time>2013-07-06T10:49:36Z</time>
      </trkpt>
      <trkpt lat="48.67364" lon="6.11475">
        <ele>315</ele>
        <time>2013-07-06T10:49:38Z</time>
      </trkpt>
      <trkpt lat="48.67363" lon="6.11476">
        <ele>313</ele>
        <time>2013-07-06T10:49:42Z</time>
      </trkpt>
      <trkpt lat="48.67363" lon="6.11477">
        <ele>313</ele>
        <time>2013-07-06T10:49:44Z</time>
      </trkpt>
      <trkpt lat="48.67362" lon="6.1148">
        <ele>310</ele>
        <time>2013-07-06T10:49:52Z</time>
      </trkpt>
      <trkpt lat="48.67362" lon="6.11481">
        <ele>317</ele>
        <time>2013-07-06T10:49:54Z</time>
      </trkpt>
      <trkpt lat="48.67363" lon="6.11482">
        <ele>330</ele>
        <time>2013-07-06T10:50:00Z</time>
      </trkpt>
      <trkpt lat="48.67365" lon="6.11488">
        <ele>329</ele>
        <time>2013-07-06T10:50:04Z</time>
      </trkpt>
      <trkpt lat="48.67365" lon="6.11491">
        <ele>324</ele>
        <time>2013-07-06T10:50:06Z</time>
      </trkpt>
      <trkpt lat="48.67366" lon="6.11494">
        <ele>325</ele>
        <time>2013-07-06T10:50:08Z</time>
      </trkpt>
      <trkpt lat="48.67366" lon="6.11495">
        <ele>330</ele>
        <time>2013-07-06T10:50:10Z</time>
      </trkpt>
      <trkpt lat="48.67368" lon="6.11497">
        <ele>327</ele>
        <time>2013-07-06T10:50:14Z</time>
      </trkpt>
      <trkpt lat="48.67369" lon="6.11499">
        <ele>326</ele>
        <time>2013-07-06T10:50:16Z</time>
      </trkpt>
      <trkpt lat="48.6737" lon="6.11501">
        <ele>327</ele>
        <time>2013-07-06T10:50:18Z</time>
      </trkpt>
      <trkpt lat="48.6737" lon="6.11504">
        <ele>330</ele>
        <time>2013-07-06T10:50:20Z</time>
      </trkpt>
      <trkpt lat="48.67371" lon="6.11511">
        <ele>334</ele>
        <time>2013-07-06T10:50:24Z</time>
      </trkpt>
      <trkpt lat="48.67372" lon="6.11512">
        <ele>336</ele>
        <time>2013-07-06T10:50:26Z</time>
      </trkpt>
      <trkpt lat="48.67373" lon="6.11514">
        <ele>337</ele>
        <time>2013-07-06T10:50:28Z</time>
      </trkpt>
      <trkpt lat="48.67381" lon="6.11494">
        <ele>341</ele>
        <time>2013-07-06T10:51:12Z</time>
      </trkpt>
      <trkpt lat="48.67376" lon="6.11492">
        <ele>325</ele>
        <time>2013-07-06T10:51:28Z</time>
      </trkpt>
      <trkpt lat="48.67373" lon="6.1149">
        <ele>308</ele>
        <time>2013-07-06T10:51:46Z</time>
      </trkpt>
      <trkpt lat="48.67368" lon="6.11492">
        <ele>316</ele>
        <time>2013-07-06T10:51:52Z</time>
      </trkpt>
      <trkpt lat="48.67365" lon="6.11495">
        <ele>305</ele>
        <time>2013-07-06T10:51:58Z</time>
      </trkpt>
      <trkpt lat="48.67363" lon="6.11493">
        <ele>296</ele>
        <time>2013-07-06T10:52:06Z</time>
      </trkpt>
      <trkpt lat="48.67368" lon="6.11494">
        <ele>294</ele>
        <time>2013-07-06T10:52:14Z</time>
      </trkpt>
      <trkpt lat="48.67376" lon="6.11482">
        <ele>347</ele>
        <time>2013-07-06T10:52:44Z</time>
      </trkpt>
      <trkpt lat="48.67376" lon="6.11464">
        <ele>332</ele>
        <time>2013-07-06T10:53:04Z</time>
      </trkpt>
      <trkpt lat="48.67374" lon="6.1146">
        <ele>319</ele>
        <time>2013-07-06T10:53:12Z</time>
      </trkpt>
      <trkpt lat="48.6737" lon="6.11456">
        <ele>311</ele>
        <time>2013-07-06T10:53:22Z</time>
      </trkpt>
      <trkpt lat="48.67371" lon="6.11456">
        <ele>315</ele>
        <time>2013-07-06T10:53:24Z</time>
      </trkpt>
      <trkpt lat="48.67374" lon="6.11456">
        <ele>321</ele>
        <time>2013-07-06T10:53:28Z</time>
      </trkpt>
      <trkpt lat="48.67377" lon="6.11457">
        <ele>319</ele>
        <time>2013-07-06T10:53:30Z</time>
      </trkpt>
      <trkpt lat="48.67381" lon="6.11455">
        <ele>320</ele>
        <time>2013-07-06T10:53:32Z</time>
      </trkpt>
      <trkpt lat="48.67384" lon="6.11453">
        <ele>318</ele>
        <time>2013-07-06T10:53:34Z</time>
      </trkpt>
      <trkpt lat="48.6739" lon="6.1145">
        <ele>317</ele>
        <time>2013-07-06T10:53:36Z</time>
      </trkpt>
      <trkpt lat="48.67397" lon="6.11448">
        <ele>320</ele>
        <time>2013-07-06T10:53:38Z</time>
      </trkpt>
      <trkpt lat="48.67403" lon="6.11443">
        <ele>325</ele>
        <time>2013-07-06T10:53:40Z</time>
      </trkpt>
      <trkpt lat="48.6741" lon="6.11442">
        <ele>326</ele>
        <time>2013-07-06T10:53:42Z</time>
      </trkpt>
      <trkpt lat="48.67415" lon="6.1144">
        <ele>327</ele>
        <time>2013-07-06T10:53:44Z</time>
      </trkpt>
      <trkpt lat="48.67423" lon="6.11439">
        <ele>333</ele>
        <time>2013-07-06T10:53:46Z</time>
      </trkpt>
      <trkpt lat="48.67429" lon="6.11439">
        <ele>336</ele>
        <time>2013-07-06T10:53:48Z</time>
      </trkpt>
      <trkpt lat="48.67436" lon="6.11439">
        <ele>335</ele>
        <time>2013-07-06T10:53:50Z</time>
      </trkpt>
      <trkpt lat="48.67442" lon="6.11441">
        <ele>337</ele>
        <time>2013-07-06T10:53:52Z</time>
      </trkpt>
      <trkpt lat="48.67447" lon="6.11442">
        <ele>337</ele>
        <time>2013-07-06T10:53:54Z</time>
      </trkpt>
      <trkpt lat="48.67451" lon="6.1144">
        <ele>334</ele>
        <time>2013-07-06T10:53:56Z</time>
      </trkpt>
      <trkpt lat="48.67455" lon="6.11438">
        <ele>338</ele>
        <time>2013-07-06T10:53:58Z</time>
      </trkpt>
      <trkpt lat="48.6746" lon="6.11437">
        <ele>338</ele>
        <time>2013-07-06T10:54:00Z</time>
      </trkpt>
      <trkpt lat="48.67467" lon="6.11434">
        <ele>340</ele>
        <time>2013-07-06T10:54:02Z</time>
      </trkpt>
      <trkpt lat="48.67475" lon="6.11432">
        <ele>339</ele>
        <time>2013-07-06T10:54:04Z</time>
      </trkpt>
      <trkpt lat="48.67483" lon="6.11428">
        <ele>337</ele>
        <time>2013-07-06T10:54:06Z</time>
      </trkpt>
      <trkpt lat="48.67492" lon="6.11427">
        <ele>335</ele>
        <time>2013-07-06T10:54:08Z</time>
      </trkpt>
      <trkpt lat="48.67501" lon="6.11425">
        <ele>333</ele>
        <time>2013-07-06T10:54:10Z</time>
      </trkpt>
      <trkpt lat="48.67507" lon="6.11423">
        <ele>334</ele>
        <time>2013-07-06T10:54:12Z</time>
      </trkpt>
      <trkpt lat="48.67513" lon="6.11421">
        <ele>334</ele>
        <time>2013-07-06T10:54:14Z</time>
      </trkpt>
      <trkpt lat="48.67519" lon="6.11419">
        <ele>334</ele>
        <time>2013-07-06T10:54:16Z</time>
      </trkpt>
      <trkpt lat="48.67527" lon="6.1142">
        <ele>331</ele>
        <time>2013-07-06T10:54:18Z</time>
      </trkpt>
      <trkpt lat="48.67535" lon="6.11419">
        <ele>329</ele>
        <time>2013-07-06T10:54:20Z</time>
      </trkpt>
      <trkpt lat="48.67544" lon="6.11419">
        <ele>331</ele>
        <time>2013-07-06T10:54:22Z</time>
      </trkpt>
      <trkpt lat="48.67553" lon="6.11422">
        <ele>331</ele>
        <time>2013-07-06T10:54:24Z</time>
      </trkpt>
      <trkpt lat="48.67561" lon="6.11423">
        <ele>331</ele>
        <time>2013-07-06T10:54:26Z</time>
      </trkpt>
      <trkpt lat="48.67569" lon="6.11422">
        <ele>333</ele>
        <time>2013-07-06T10:54:28Z</time>
      </trkpt>
      <trkpt lat="48.67576" lon="6.11423">
        <ele>334</ele>
        <time>2013-07-06T10:54:30Z</time>
      </trkpt>
      <trkpt lat="48.67583" lon="6.1142">
        <ele>335</ele>
        <time>2013-07-06T10:54:32Z</time>
      </trkpt>
      <trkpt lat="48.67589" lon="6.11419">
        <ele>337</ele>
        <time>2013-07-06T10:54:34Z</time>
      </trkpt>
      <trkpt lat="48.67596" lon="6.11418">
        <ele>341</ele>
        <time>2013-07-06T10:54:36Z</time>
      </trkpt>
      <trkpt lat="48.67604" lon="6.11418">
        <ele>337</ele>
        <time>2013-07-06T10:54:38Z</time>
      </trkpt>
      <trkpt lat="48.67611" lon="6.11416">
        <ele>334</ele>
        <time>2013-07-06T10:54:40Z</time>
      </trkpt>
      <trkpt lat="48.67619" lon="6.11413">
        <ele>336</ele>
        <time>2013-07-06T10:54:42Z</time>
      </trkpt>
      <trkpt lat="48.67627" lon="6.11411">
        <ele>338</ele>
        <time>2013-07-06T10:54:44Z</time>
      </trkpt>
      <trkpt lat="48.67636" lon="6.1141">
        <ele>341</ele>
        <time>2013-07-06T10:54:46Z</time>
      </trkpt>
      <trkpt lat="48.67645" lon="6.11411">
        <ele>341</ele>
        <time>2013-07-06T10:54:48Z</time>
      </trkpt>
      <trkpt lat="48.67653" lon="6.11411">
        <ele>339</ele>
        <time>2013-07-06T10:54:50Z</time>
      </trkpt>
      <trkpt lat="48.6766" lon="6.11411">
        <ele>340</ele>
        <time>2013-07-06T10:54:52Z</time>
      </trkpt>
      <trkpt lat="48.67666" lon="6.11412">
        <ele>344</ele>
        <time>2013-07-06T10:54:54Z</time>
      </trkpt>
      <trkpt lat="48.67673" lon="6.11415">
        <ele>347</ele>
        <time>2013-07-06T10:54:56Z</time>
      </trkpt>
      <trkpt lat="48.67675" lon="6.11417">
        <ele>343</ele>
        <time>2013-07-06T10:54:58Z</time>
      </trkpt>
      <trkpt lat="48.67678" lon="6.11419">
        <ele>346</ele>
        <time>2013-07-06T10:55:00Z</time>
      </trkpt>
      <trkpt lat="48.67681" lon="6.11423">
        <ele>349</ele>
        <time>2013-07-06T10:55:02Z</time>
      </trkpt>
      <trkpt lat="48.67684" lon="6.11426">
        <ele>345</ele>
        <time>2013-07-06T10:55:04Z</time>
      </trkpt>
      <trkpt lat="48.67687" lon="6.1143">
        <ele>347</ele>
        <time>2013-07-06T10:55:06Z</time>
      </trkpt>
      <trkpt lat="48.6769" lon="6.11433">
        <ele>342</ele>
        <time>2013-07-06T10:55:08Z</time>
      </trkpt>
      <trkpt lat="48.67693" lon="6.11438">
        <ele>351</ele>
        <time>2013-07-06T10:55:10Z</time>
      </trkpt>
      <trkpt lat="48.67698" lon="6.11442">
        <ele>344</ele>
        <time>2013-07-06T10:55:12Z</time>
      </trkpt>
      <trkpt lat="48.67704" lon="6.11441">
        <ele>342</ele>
        <time>2013-07-06T10:55:14Z</time>
      </trkpt>
      <trkpt lat="48.6771" lon="6.11442">
        <ele>341</ele>
        <time>2013-07-06T10:55:16Z</time>
      </trkpt>
      <trkpt lat="48.67715" lon="6.11444">
        <ele>341</ele>
        <time>2013-07-06T10:55:18Z</time>
      </trkpt>
      <trkpt lat="48.67722" lon="6.11444">
        <ele>342</ele>
        <time>2013-07-06T10:55:20Z</time>
      </trkpt>
      <trkpt lat="48.67728" lon="6.11445">
        <ele>344</ele>
        <time>2013-07-06T10:55:22Z</time>
      </trkpt>
      <trkpt lat="48.67734" lon="6.11448">
        <ele>345</ele>
        <time>2013-07-06T10:55:24Z</time>
      </trkpt>
      <trkpt lat="48.67742" lon="6.11449">
        <ele>341</ele>
        <time>2013-07-06T10:55:26Z</time>
      </trkpt>
      <trkpt lat="48.67746" lon="6.11449">
        <ele>347</ele>
        <time>2013-07-06T10:55:28Z</time>
      </trkpt>
      <trkpt lat="48.67751" lon="6.1145">
        <ele>350</ele>
        <time>2013-07-06T10:55:30Z</time>
      </trkpt>
      <trkpt lat="48.67755" lon="6.11453">
        <ele>349</ele>
        <time>2013-07-06T10:55:32Z</time>
      </trkpt>
      <trkpt lat="48.67759" lon="6.11454">
        <ele>345</ele>
        <time>2013-07-06T10:55:34Z</time>
      </trkpt>
      <trkpt lat="48.67762" lon="6.11455">
        <ele>345</ele>
        <time>2013-07-06T10:55:36Z</time>
      </trkpt>
      <trkpt lat="48.67766" lon="6.11454">
        <ele>350</ele>
        <time>2013-07-06T10:55:38Z</time>
      </trkpt>
      <trkpt lat="48.67769" lon="6.11451">
        <ele>347</ele>
        <time>2013-07-06T10:55:40Z</time>
      </trkpt>
      <trkpt lat="48.67772" lon="6.1145">
        <ele>343</ele>
        <time>2013-07-06T10:55:42Z</time>
      </trkpt>
      <trkpt lat="48.67776" lon="6.11448">
        <ele>347</ele>
        <time>2013-07-06T10:55:44Z</time>
      </trkpt>
      <trkpt lat="48.67781" lon="6.1145">
        <ele>346</ele>
        <time>2013-07-06T10:55:46Z</time>
      </trkpt>
      <trkpt lat="48.67786" lon="6.11452">
        <ele>350</ele>
        <time>2013-07-06T10:55:48Z</time>
      </trkpt>
      <trkpt lat="48.67789" lon="6.11452">
        <ele>344</ele>
        <time>2013-07-06T10:55:50Z</time>
      </trkpt>
      <trkpt lat="48.67793" lon="6.11451">
        <ele>341</ele>
        <time>2013-07-06T10:55:52Z</time>
      </trkpt>
      <trkpt lat="48.67796" lon="6.1145">
        <ele>340</ele>
        <time>2013-07-06T10:55:54Z</time>
      </trkpt>
      <trkpt lat="48.67798" lon="6.11449">
        <ele>346</ele>
        <time>2013-07-06T10:55:56Z</time>
      </trkpt>
      <trkpt lat="48.678" lon="6.11449">
        <ele>347</ele>
        <time>2013-07-06T10:55:58Z</time>
      </trkpt>
      <trkpt lat="48.67804" lon="6.1145">
        <ele>349</ele>
        <time>2013-07-06T10:56:00Z</time>
      </trkpt>
      <trkpt lat="48.67809" lon="6.11451">
        <ele>349</ele>
        <time>2013-07-06T10:56:02Z</time>
      </trkpt>
      <trkpt lat="48.67812" lon="6.11451">
        <ele>346</ele>
        <time>2013-07-06T10:56:04Z</time>
      </trkpt>
      <trkpt lat="48.67817" lon="6.1145">
        <ele>353</ele>
        <time>2013-07-06T10:56:06Z</time>
      </trkpt>
      <trkpt lat="48.67821" lon="6.11448">
        <ele>353</ele>
        <time>2013-07-06T10:56:08Z</time>
      </trkpt>
      <trkpt lat="48.67825" lon="6.11449">
        <ele>351</ele>
        <time>2013-07-06T10:56:10Z</time>
      </trkpt>
      <trkpt lat="48.6783" lon="6.11453">
        <ele>347</ele>
        <time>2013-07-06T10:56:12Z</time>
      </trkpt>
      <trkpt lat="48.67835" lon="6.11453">
        <ele>349</ele>
        <time>2013-07-06T10:56:14Z</time>
      </trkpt>
      <trkpt lat="48.67846" lon="6.11455">
        <ele>347</ele>
        <time>2013-07-06T10:56:18Z</time>
      </trkpt>
      <trkpt lat="48.6785" lon="6.11456">
        <ele>347</ele>
        <time>2013-07-06T10:56:20Z</time>
      </trkpt>
      <trkpt lat="48.67853" lon="6.11456">
        <ele>348</ele>
        <time>2013-07-06T10:56:22Z</time>
      </trkpt>
      <trkpt lat="48.67856" lon="6.11457">
        <ele>350</ele>
        <time>2013-07-06T10:56:24Z</time>
      </trkpt>
      <trkpt lat="48.6786" lon="6.11457">
        <ele>346</ele>
        <time>2013-07-06T10:56:26Z</time>
      </trkpt>
      <trkpt lat="48.67864" lon="6.11453">
        <ele>347</ele>
        <time>2013-07-06T10:56:28Z</time>
      </trkpt>
      <trkpt lat="48.6787" lon="6.1145">
        <ele>354</ele>
        <time>2013-07-06T10:56:32Z</time>
      </trkpt>
      <trkpt lat="48.67872" lon="6.11447">
        <ele>349</ele>
        <time>2013-07-06T10:56:34Z</time>
      </trkpt>
      <trkpt lat="48.67873" lon="6.11443">
        <ele>350</ele>
        <time>2013-07-06T10:56:36Z</time>
      </trkpt>
      <trkpt lat="48.67875" lon="6.11435">
        <ele>337</ele>
        <time>2013-07-06T10:56:40Z</time>
      </trkpt>
      <trkpt lat="48.67876" lon="6.11431">
        <ele>334</ele>
        <time>2013-07-06T10:56:42Z</time>
      </trkpt>
      <trkpt lat="48.67877" lon="6.11425">
        <ele>337</ele>
        <time>2013-07-06T10:56:44Z</time>
      </trkpt>
      <trkpt lat="48.67878" lon="6.11419">
        <ele>336</ele>
        <time>2013-07-06T10:56:46Z</time>
      </trkpt>
      <trkpt lat="48.6788" lon="6.11415">
        <ele>338</ele>
        <time>2013-07-06T10:56:48Z</time>
      </trkpt>
      <trkpt lat="48.67881" lon="6.11408">
        <ele>340</ele>
        <time>2013-07-06T10:56:50Z</time>
      </trkpt>
      <trkpt lat="48.67882" lon="6.11401">
        <ele>341</ele>
        <time>2013-07-06T10:56:52Z</time>
      </trkpt>
      <trkpt lat="48.67883" lon="6.11393">
        <ele>345</ele>
        <time>2013-07-06T10:56:54Z</time>
      </trkpt>
      <trkpt lat="48.67885" lon="6.11383">
        <ele>346</ele>
        <time>2013-07-06T10:56:56Z</time>
      </trkpt>
      <trkpt lat="48.67888" lon="6.11375">
        <ele>349</ele>
        <time>2013-07-06T10:56:58Z</time>
      </trkpt>
      <trkpt lat="48.67889" lon="6.11365">
        <ele>350</ele>
        <time>2013-07-06T10:57:00Z</time>
      </trkpt>
      <trkpt lat="48.67889" lon="6.11358">
        <ele>350</ele>
        <time>2013-07-06T10:57:02Z</time>
      </trkpt>
      <trkpt lat="48.67888" lon="6.11351">
        <ele>351</ele>
        <time>2013-07-06T10:57:04Z</time>
      </trkpt>
      <trkpt lat="48.67889" lon="6.11341">
        <ele>349</ele>
        <time>2013-07-06T10:57:06Z</time>
      </trkpt>
      <trkpt lat="48.6789" lon="6.11333">
        <ele>347</ele>
        <time>2013-07-06T10:57:08Z</time>
      </trkpt>
      <trkpt lat="48.67891" lon="6.11326">
        <ele>348</ele>
        <time>2013-07-06T10:57:10Z</time>
      </trkpt>
      <trkpt lat="48.67891" lon="6.11318">
        <ele>347</ele>
        <time>2013-07-06T10:57:12Z</time>
      </trkpt>
      <trkpt lat="48.67891" lon="6.11311">
        <ele>347</ele>
        <time>2013-07-06T10:57:14Z</time>
      </trkpt>
      <trkpt lat="48.67891" lon="6.11303">
        <ele>348</ele>
        <time>2013-07-06T10:57:16Z</time>
      </trkpt>
      <trkpt lat="48.6789" lon="6.11295">
        <ele>341</ele>
        <time>2013-07-06T10:57:18Z</time>
      </trkpt>
      <trkpt lat="48.67889" lon="6.11289">
        <ele>347</ele>
        <time>2013-07-06T10:57:20Z</time>
      </trkpt>
      <trkpt lat="48.67888" lon="6.11284">
        <ele>347</ele>
        <time>2013-07-06T10:57:22Z</time>
      </trkpt>
      <trkpt lat="48.67886" lon="6.11278">
        <ele>347</ele>
        <time>2013-07-06T10:57:24Z</time>
      </trkpt>
      <trkpt lat="48.67883" lon="6.11272">
        <ele>348</ele>
        <time>2013-07-06T10:57:26Z</time>
      </trkpt>
      <trkpt lat="48.67881" lon="6.11268">
        <ele>348</ele>
        <time>2013-07-06T10:57:28Z</time>
      </trkpt>
      <trkpt lat="48.67879" lon="6.11265">
        <ele>348</ele>
        <time>2013-07-06T10:57:30Z</time>
      </trkpt>
      <trkpt lat="48.67876" lon="6.11262">
        <ele>348</ele>
        <time>2013-07-06T10:57:32Z</time>
      </trkpt>
      <trkpt lat="48.67875" lon="6.11256">
        <ele>350</ele>
        <time>2013-07-06T10:57:34Z</time>
      </trkpt>
      <trkpt lat="48.67876" lon="6.11244">
        <ele>347</ele>
        <time>2013-07-06T10:57:36Z</time>
      </trkpt>
      <trkpt lat="48.67877" lon="6.11236">
        <ele>348</ele>
        <time>2013-07-06T10:57:38Z</time>
      </trkpt>
      <trkpt lat="48.67878" lon="6.11226">
        <ele>347</ele>
        <time>2013-07-06T10:57:40Z</time>
      </trkpt>
      <trkpt lat="48.6788" lon="6.11211">
        <ele>351</ele>
        <time>2013-07-06T10:57:44Z</time>
      </trkpt>
      <trkpt lat="48.67879" lon="6.11204">
        <ele>351</ele>
        <time>2013-07-06T10:57:46Z</time>
      </trkpt>
      <trkpt lat="48.67878" lon="6.11198">
        <ele>348</ele>
        <time>2013-07-06T10:57:48Z</time>
      </trkpt>
      <trkpt lat="48.67876" lon="6.11192">
        <ele>348</ele>
        <time>2013-07-06T10:57:50Z</time>
      </trkpt>
      <trkpt lat="48.67876" lon="6.11185">
        <ele>351</ele>
        <time>2013-07-06T10:57:52Z</time>
      </trkpt>
      <trkpt lat="48.67876" lon="6.11177">
        <ele>352</ele>
        <time>2013-07-06T10:57:54Z</time>
      </trkpt>
      <trkpt lat="48.67876" lon="6.1117">
        <ele>350</ele>
        <time>2013-07-06T10:57:56Z</time>
      </trkpt>
      <trkpt lat="48.67876" lon="6.11164">
        <ele>353</ele>
        <time>2013-07-06T10:57:58Z</time>
      </trkpt>
      <trkpt lat="48.67874" lon="6.11158">
        <ele>354</ele>
        <time>2013-07-06T10:58:00Z</time>
      </trkpt>
      <trkpt lat="48.67873" lon="6.11152">
        <ele>354</ele>
        <time>2013-07-06T10:58:02Z</time>
      </trkpt>
      <trkpt lat="48.67873" lon="6.11145">
        <ele>357</ele>
        <time>2013-07-06T10:58:04Z</time>
      </trkpt>
      <trkpt lat="48.67876" lon="6.11134">
        <ele>358</ele>
        <time>2013-07-06T10:58:06Z</time>
      </trkpt>
      <trkpt lat="48.67876" lon="6.11128">
        <ele>355</ele>
        <time>2013-07-06T10:58:08Z</time>
      </trkpt>
      <trkpt lat="48.67875" lon="6.11122">
        <ele>356</ele>
        <time>2013-07-06T10:58:10Z</time>
      </trkpt>
      <trkpt lat="48.67876" lon="6.11114">
        <ele>361</ele>
        <time>2013-07-06T10:58:12Z</time>
      </trkpt>
      <trkpt lat="48.67877" lon="6.11107">
        <ele>355</ele>
        <time>2013-07-06T10:58:14Z</time>
      </trkpt>
      <trkpt lat="48.67877" lon="6.11102">
        <ele>358</ele>
        <time>2013-07-06T10:58:16Z</time>
      </trkpt>
      <trkpt lat="48.67877" lon="6.11096">
        <ele>362</ele>
        <time>2013-07-06T10:58:18Z</time>
      </trkpt>
      <trkpt lat="48.67876" lon="6.1109">
        <ele>370</ele>
        <time>2013-07-06T10:58:20Z</time>
      </trkpt>
      <trkpt lat="48.67875" lon="6.11085">
        <ele>372</ele>
        <time>2013-07-06T10:58:22Z</time>
      </trkpt>
      <trkpt lat="48.67873" lon="6.11078">
        <ele>374</ele>
        <time>2013-07-06T10:58:24Z</time>
      </trkpt>
      <trkpt lat="48.6787" lon="6.11074">
        <ele>373</ele>
        <time>2013-07-06T10:58:26Z</time>
      </trkpt>
      <trkpt lat="48.67868" lon="6.1107">
        <ele>371</ele>
        <time>2013-07-06T10:58:28Z</time>
      </trkpt>
      <trkpt lat="48.67866" lon="6.11065">
        <ele>371</ele>
        <time>2013-07-06T10:58:30Z</time>
      </trkpt>
      <trkpt lat="48.67865" lon="6.11058">
        <ele>373</ele>
        <time>2013-07-06T10:58:32Z</time>
      </trkpt>
      <trkpt lat="48.67864" lon="6.11052">
        <ele>374</ele>
        <time>2013-07-06T10:58:34Z</time>
      </trkpt>
      <trkpt lat="48.67864" lon="6.11044">
        <ele>371</ele>
        <time>2013-07-06T10:58:36Z</time>
      </trkpt>
      <trkpt lat="48.67864" lon="6.11036">
        <ele>366</ele>
        <time>2013-07-06T10:58:38Z</time>
      </trkpt>
      <trkpt lat="48.67863" lon="6.11028">
        <ele>367</ele>
        <time>2013-07-06T10:58:40Z</time>
      </trkpt>
      <trkpt lat="48.67862" lon="6.11022">
        <ele>367</ele>
        <time>2013-07-06T10:58:42Z</time>
      </trkpt>
      <trkpt lat="48.67862" lon="6.11015">
        <ele>367</ele>
        <time>2013-07-06T10:58:44Z</time>
      </trkpt>
      <trkpt lat="48.67861" lon="6.11008">
        <ele>369</ele>
        <time>2013-07-06T10:58:46Z</time>
      </trkpt>
      <trkpt lat="48.67861" lon="6.11">
        <ele>370</ele>
        <time>2013-07-06T10:58:48Z</time>
      </trkpt>
      <trkpt lat="48.6786" lon="6.10992">
        <ele>371</ele>
        <time>2013-07-06T10:58:50Z</time>
      </trkpt>
      <trkpt lat="48.67858" lon="6.10984">
        <ele>369</ele>
        <time>2013-07-06T10:58:52Z</time>
      </trkpt>
      <trkpt lat="48.67857" lon="6.10976">
        <ele>371</ele>
        <time>2013-07-06T10:58:54Z</time>
      </trkpt>
      <trkpt lat="48.67855" lon="6.10967">
        <ele>372</ele>
        <time>2013-07-06T10:58:56Z</time>
      </trkpt>
      <trkpt lat="48.67854" lon="6.10956">
        <ele>375</ele>
        <time>2013-07-06T10:58:58Z</time>
      </trkpt>
      <trkpt lat="48.67853" lon="6.10946">
        <ele>371</ele>
        <time>2013-07-06T10:59:00Z</time>
      </trkpt>
      <trkpt lat="48.67851" lon="6.10935">
        <ele>370</ele>
        <time>2013-07-06T10:59:02Z</time>
      </trkpt>
      <trkpt lat="48.67849" lon="6.10925">
        <ele>368</ele>
        <time>2013-07-06T10:59:04Z</time>
      </trkpt>
      <trkpt lat="48.67848" lon="6.10915">
        <ele>366</ele>
        <time>2013-07-06T10:59:06Z</time>
      </trkpt>
      <trkpt lat="48.67847" lon="6.10905">
        <ele>364</ele>
        <time>2013-07-06T10:59:08Z</time>
      </trkpt>
      <trkpt lat="48.67845" lon="6.10895">
        <ele>359</ele>
        <time>2013-07-06T10:59:10Z</time>
      </trkpt>
      <trkpt lat="48.67843" lon="6.10886">
        <ele>357</ele>
        <time>2013-07-06T10:59:12Z</time>
      </trkpt>
      <trkpt lat="48.6784" lon="6.10877">
        <ele>355</ele>
        <time>2013-07-06T10:59:14Z</time>
      </trkpt>
      <trkpt lat="48.67838" lon="6.10867">
        <ele>354</ele>
        <time>2013-07-06T10:59:16Z</time>
      </trkpt>
      <trkpt lat="48.67836" lon="6.10858">
        <ele>353</ele>
        <time>2013-07-06T10:59:18Z</time>
      </trkpt>
      <trkpt lat="48.67835" lon="6.10848">
        <ele>352</ele>
        <time>2013-07-06T10:59:20Z</time>
      </trkpt>
      <trkpt lat="48.67833" lon="6.10837">
        <ele>354</ele>
        <time>2013-07-06T10:59:22Z</time>
      </trkpt>
      <trkpt lat="48.67831" lon="6.10828">
        <ele>354</ele>
        <time>2013-07-06T10:59:24Z</time>
      </trkpt>
      <trkpt lat="48.67829" lon="6.10818">
        <ele>356</ele>
        <time>2013-07-06T10:59:26Z</time>
      </trkpt>
      <trkpt lat="48.67827" lon="6.10808">
        <ele>355</ele>
        <time>2013-07-06T10:59:28Z</time>
      </trkpt>
      <trkpt lat="48.67826" lon="6.10798">
        <ele>357</ele>
        <time>2013-07-06T10:59:30Z</time>
      </trkpt>
      <trkpt lat="48.67825" lon="6.10787">
        <ele>357</ele>
        <time>2013-07-06T10:59:32Z</time>
      </trkpt>
      <trkpt lat="48.67824" lon="6.10777">
        <ele>355</ele>
        <time>2013-07-06T10:59:34Z</time>
      </trkpt>
      <trkpt lat="48.67823" lon="6.10767">
        <ele>351</ele>
        <time>2013-07-06T10:59:36Z</time>
      </trkpt>
      <trkpt lat="48.67822" lon="6.10756">
        <ele>352</ele>
        <time>2013-07-06T10:59:38Z</time>
      </trkpt>
      <trkpt lat="48.67821" lon="6.10747">
        <ele>352</ele>
        <time>2013-07-06T10:59:40Z</time>
      </trkpt>
      <trkpt lat="48.67819" lon="6.10737">
        <ele>352</ele>
        <time>2013-07-06T10:59:42Z</time>
      </trkpt>
      <trkpt lat="48.67819" lon="6.10727">
        <ele>351</ele>
        <time>2013-07-06T10:59:44Z</time>
      </trkpt>
      <trkpt lat="48.67817" lon="6.10717">
        <ele>349</ele>
        <time>2013-07-06T10:59:46Z</time>
      </trkpt>
      <trkpt lat="48.67817" lon="6.10707">
        <ele>348</ele>
        <time>2013-07-06T10:59:48Z</time>
      </trkpt>
      <trkpt lat="48.67815" lon="6.10697">
        <ele>349</ele>
        <time>2013-07-06T10:59:50Z</time>
      </trkpt>
      <trkpt lat="48.67815" lon="6.10686">
        <ele>351</ele>
        <time>2013-07-06T10:59:52Z</time>
      </trkpt>
      <trkpt lat="48.67815" lon="6.10676">
        <ele>349</ele>
        <time>2013-07-06T10:59:54Z</time>
      </trkpt>
      <trkpt lat="48.67813" lon="6.10667">
        <ele>350</ele>
        <time>2013-07-06T10:59:56Z</time>
      </trkpt>
      <trkpt lat="48.67812" lon="6.10657">
        <ele>351</ele>
        <time>2013-07-06T10:59:58Z</time>
      </trkpt>
      <trkpt lat="48.67811" lon="6.10647">
        <ele>352</ele>
        <time>2013-07-06T11:00:00Z</time>
      </trkpt>
      <trkpt lat="48.6781" lon="6.10637">
        <ele>353</ele>
        <time>2013-07-06T11:00:02Z</time>
      </trkpt>
      <trkpt lat="48.6781" lon="6.10626">
        <ele>353</ele>
        <time>2013-07-06T11:00:04Z</time>
      </trkpt>
      <trkpt lat="48.67807" lon="6.10616">
        <ele>353</ele>
        <time>2013-07-06T11:00:06Z</time>
      </trkpt>
      <trkpt lat="48.67804" lon="6.10605">
        <ele>354</ele>
        <time>2013-07-06T11:00:08Z</time>
      </trkpt>
      <trkpt lat="48.67802" lon="6.10596">
        <ele>359</ele>
        <time>2013-07-06T11:00:10Z</time>
      </trkpt>
      <trkpt lat="48.67801" lon="6.10586">
        <ele>356</ele>
        <time>2013-07-06T11:00:12Z</time>
      </trkpt>
      <trkpt lat="48.678" lon="6.10573">
        <ele>354</ele>
        <time>2013-07-06T11:00:14Z</time>
      </trkpt>
      <trkpt lat="48.67799" lon="6.1056">
        <ele>352</ele>
        <time>2013-07-06T11:00:16Z</time>
      </trkpt>
      <trkpt lat="48.67798" lon="6.10547">
        <ele>346</ele>
        <time>2013-07-06T11:00:18Z</time>
      </trkpt>
      <trkpt lat="48.67795" lon="6.10534">
        <ele>344</ele>
        <time>2013-07-06T11:00:20Z</time>
      </trkpt>
      <trkpt lat="48.67794" lon="6.10522">
        <ele>346</ele>
        <time>2013-07-06T11:00:22Z</time>
      </trkpt>
      <trkpt lat="48.67792" lon="6.1051">
        <ele>345</ele>
        <time>2013-07-06T11:00:24Z</time>
      </trkpt>
      <trkpt lat="48.67788" lon="6.10497">
        <ele>343</ele>
        <time>2013-07-06T11:00:26Z</time>
      </trkpt>
      <trkpt lat="48.67785" lon="6.10486">
        <ele>345</ele>
        <time>2013-07-06T11:00:28Z</time>
      </trkpt>
      <trkpt lat="48.67783" lon="6.1047">
        <ele>343</ele>
        <time>2013-07-06T11:00:30Z</time>
      </trkpt>
      <trkpt lat="48.6778" lon="6.10455">
        <ele>342</ele>
        <time>2013-07-06T11:00:32Z</time>
      </trkpt>
      <trkpt lat="48.67778" lon="6.10438">
        <ele>342</ele>
        <time>2013-07-06T11:00:34Z</time>
      </trkpt>
      <trkpt lat="48.67776" lon="6.10422">
        <ele>342</ele>
        <time>2013-07-06T11:00:36Z</time>
      </trkpt>
      <trkpt lat="48.67774" lon="6.10404">
        <ele>342</ele>
        <time>2013-07-06T11:00:38Z</time>
      </trkpt>
      <trkpt lat="48.67772" lon="6.1039">
        <ele>344</ele>
        <time>2013-07-06T11:00:40Z</time>
      </trkpt>
      <trkpt lat="48.6777" lon="6.1037">
        <ele>345</ele>
        <time>2013-07-06T11:00:42Z</time>
      </trkpt>
      <trkpt lat="48.67767" lon="6.10349">
        <ele>346</ele>
        <time>2013-07-06T11:00:44Z</time>
      </trkpt>
      <trkpt lat="48.67765" lon="6.10328">
        <ele>346</ele>
        <time>2013-07-06T11:00:46Z</time>
      </trkpt>
      <trkpt lat="48.67763" lon="6.10306">
        <ele>347</ele>
        <time>2013-07-06T11:00:48Z</time>
      </trkpt>
      <trkpt lat="48.67762" lon="6.10286">
        <ele>347</ele>
        <time>2013-07-06T11:00:50Z</time>
      </trkpt>
      <trkpt lat="48.67761" lon="6.10272">
        <ele>352</ele>
        <time>2013-07-06T11:00:52Z</time>
      </trkpt>
      <trkpt lat="48.67759" lon="6.10261">
        <ele>358</ele>
        <time>2013-07-06T11:00:54Z</time>
      </trkpt>
      <trkpt lat="48.67758" lon="6.10251">
        <ele>359</ele>
        <time>2013-07-06T11:00:58Z</time>
      </trkpt>
      <trkpt lat="48.67757" lon="6.10238">
        <ele>359</ele>
        <time>2013-07-06T11:01:02Z</time>
      </trkpt>
      <trkpt lat="48.67756" lon="6.10231">
        <ele>363</ele>
        <time>2013-07-06T11:01:04Z</time>
      </trkpt>
      <trkpt lat="48.67755" lon="6.10224">
        <ele>365</ele>
        <time>2013-07-06T11:01:06Z</time>
      </trkpt>
      <trkpt lat="48.67753" lon="6.10217">
        <ele>362</ele>
        <time>2013-07-06T11:01:08Z</time>
      </trkpt>
      <trkpt lat="48.67751" lon="6.10211">
        <ele>360</ele>
        <time>2013-07-06T11:01:10Z</time>
      </trkpt>
      <trkpt lat="48.6775" lon="6.10205">
        <ele>362</ele>
        <time>2013-07-06T11:01:12Z</time>
      </trkpt>
      <trkpt lat="48.67749" lon="6.10196">
        <ele>363</ele>
        <time>2013-07-06T11:01:14Z</time>
      </trkpt>
      <trkpt lat="48.67748" lon="6.10186">
        <ele>363</ele>
        <time>2013-07-06T11:01:16Z</time>
      </trkpt>
      <trkpt lat="48.67747" lon="6.10177">
        <ele>361</ele>
        <time>2013-07-06T11:01:18Z</time>
      </trkpt>
      <trkpt lat="48.67744" lon="6.10169">
        <ele>360</ele>
        <time>2013-07-06T11:01:20Z</time>
      </trkpt>
      <trkpt lat="48.67741" lon="6.1016">
        <ele>361</ele>
        <time>2013-07-06T11:01:22Z</time>
      </trkpt>
      <trkpt lat="48.6774" lon="6.1015">
        <ele>362</ele>
        <time>2013-07-06T11:01:24Z</time>
      </trkpt>
      <trkpt lat="48.67739" lon="6.10141">
        <ele>363</ele>
        <time>2013-07-06T11:01:26Z</time>
      </trkpt>
      <trkpt lat="48.67739" lon="6.10132">
        <ele>366</ele>
        <time>2013-07-06T11:01:28Z</time>
      </trkpt>
      <trkpt lat="48.67739" lon="6.10122">
        <ele>367</ele>
        <time>2013-07-06T11:01:30Z</time>
      </trkpt>
      <trkpt lat="48.6774" lon="6.10112">
        <ele>366</ele>
        <time>2013-07-06T11:01:32Z</time>
      </trkpt>
      <trkpt lat="48.67738" lon="6.10102">
        <ele>366</ele>
        <time>2013-07-06T11:01:34Z</time>
      </trkpt>
      <trkpt lat="48.67737" lon="6.1009">
        <ele>367</ele>
        <time>2013-07-06T11:01:36Z</time>
      </trkpt>
      <trkpt lat="48.67736" lon="6.10078">
        <ele>367</ele>
        <time>2013-07-06T11:01:38Z</time>
      </trkpt>
      <trkpt lat="48.67735" lon="6.10068">
        <ele>366</ele>
        <time>2013-07-06T11:01:40Z</time>
      </trkpt>
      <trkpt lat="48.67733" lon="6.10059">
        <ele>365</ele>
        <time>2013-07-06T11:01:42Z</time>
      </trkpt>
      <trkpt lat="48.67733" lon="6.10048">
        <ele>365</ele>
        <time>2013-07-06T11:01:44Z</time>
      </trkpt>
      <trkpt lat="48.67733" lon="6.10043">
        <ele>362</ele>
        <time>2013-07-06T11:01:45Z</time>
      </trkpt>
      <trkpt lat="48.67731" lon="6.10033">
        <ele>357</ele>
        <time>2013-07-06T11:01:47Z</time>
      </trkpt>
      <trkpt lat="48.67729" lon="6.10028">
        <ele>352</ele>
        <time>2013-07-06T11:01:49Z</time>
      </trkpt>
      <trkpt lat="48.67726" lon="6.10019">
        <ele>355</ele>
        <time>2013-07-06T11:01:51Z</time>
      </trkpt>
      <trkpt lat="48.67721" lon="6.10007">
        <ele>359</ele>
        <time>2013-07-06T11:01:54Z</time>
      </trkpt>
      <trkpt lat="48.67719" lon="6.09998">
        <ele>358</ele>
        <time>2013-07-06T11:01:56Z</time>
      </trkpt>
      <trkpt lat="48.67717" lon="6.09988">
        <ele>359</ele>
        <time>2013-07-06T11:01:58Z</time>
      </trkpt>
      <trkpt lat="48.67719" lon="6.09974">
        <ele>360</ele>
        <time>2013-07-06T11:02:00Z</time>
      </trkpt>
      <trkpt lat="48.67717" lon="6.09965">
        <ele>362</ele>
        <time>2013-07-06T11:02:02Z</time>
      </trkpt>
      <trkpt lat="48.67714" lon="6.09956">
        <ele>362</ele>
        <time>2013-07-06T11:02:04Z</time>
      </trkpt>
      <trkpt lat="48.67712" lon="6.09947">
        <ele>363</ele>
        <time>2013-07-06T11:02:06Z</time>
      </trkpt>
      <trkpt lat="48.67709" lon="6.09939">
        <ele>363</ele>
        <time>2013-07-06T11:02:08Z</time>
      </trkpt>
      <trkpt lat="48.67708" lon="6.09932">
        <ele>359</ele>
        <time>2013-07-06T11:02:10Z</time>
      </trkpt>
      <trkpt lat="48.67706" lon="6.09925">
        <ele>359</ele>
        <time>2013-07-06T11:02:12Z</time>
      </trkpt>
      <trkpt lat="48.67705" lon="6.09917">
        <ele>360</ele>
        <time>2013-07-06T11:02:14Z</time>
      </trkpt>
      <trkpt lat="48.67704" lon="6.09911">
        <ele>362</ele>
        <time>2013-07-06T11:02:16Z</time>
      </trkpt>
      <trkpt lat="48.67703" lon="6.09901">
        <ele>361</ele>
        <time>2013-07-06T11:02:18Z</time>
      </trkpt>
      <trkpt lat="48.67702" lon="6.09893">
        <ele>365</ele>
        <time>2013-07-06T11:02:20Z</time>
      </trkpt>
      <trkpt lat="48.67701" lon="6.09885">
        <ele>367</ele>
        <time>2013-07-06T11:02:22Z</time>
      </trkpt>
      <trkpt lat="48.67699" lon="6.09877">
        <ele>366</ele>
        <time>2013-07-06T11:02:24Z</time>
      </trkpt>
      <trkpt lat="48.67698" lon="6.09871">
        <ele>366</ele>
        <time>2013-07-06T11:02:26Z</time>
      </trkpt>
      <trkpt lat="48.67697" lon="6.09861">
        <ele>367</ele>
        <time>2013-07-06T11:02:28Z</time>
      </trkpt>
      <trkpt lat="48.67696" lon="6.09851">
        <ele>366</ele>
        <time>2013-07-06T11:02:30Z</time>
      </trkpt>
      <trkpt lat="48.67696" lon="6.0984">
        <ele>366</ele>
        <time>2013-07-06T11:02:32Z</time>
      </trkpt>
      <trkpt lat="48.67695" lon="6.09829">
        <ele>368</ele>
        <time>2013-07-06T11:02:34Z</time>
      </trkpt>
      <trkpt lat="48.67695" lon="6.09818">
        <ele>370</ele>
        <time>2013-07-06T11:02:36Z</time>
      </trkpt>
      <trkpt lat="48.67695" lon="6.09807">
        <ele>370</ele>
        <time>2013-07-06T11:02:38Z</time>
      </trkpt>
      <trkpt lat="48.67695" lon="6.09797">
        <ele>371</ele>
        <time>2013-07-06T11:02:40Z</time>
      </trkpt>
      <trkpt lat="48.67693" lon="6.09788">
        <ele>372</ele>
        <time>2013-07-06T11:02:42Z</time>
      </trkpt>
      <trkpt lat="48.67693" lon="6.0978">
        <ele>372</ele>
        <time>2013-07-06T11:02:44Z</time>
      </trkpt>
      <trkpt lat="48.67694" lon="6.09772">
        <ele>369</ele>
        <time>2013-07-06T11:02:46Z</time>
      </trkpt>
      <trkpt lat="48.67695" lon="6.09763">
        <ele>368</ele>
        <time>2013-07-06T11:02:48Z</time>
      </trkpt>
      <trkpt lat="48.67696" lon="6.09753">
        <ele>367</ele>
        <time>2013-07-06T11:02:50Z</time>
      </trkpt>
      <trkpt lat="48.67697" lon="6.09744">
        <ele>364</ele>
        <time>2013-07-06T11:02:52Z</time>
      </trkpt>
      <trkpt lat="48.67699" lon="6.09732">
        <ele>362</ele>
        <time>2013-07-06T11:02:54Z</time>
      </trkpt>
      <trkpt lat="48.677" lon="6.09722">
        <ele>364</ele>
        <time>2013-07-06T11:02:56Z</time>
      </trkpt>
      <trkpt lat="48.67701" lon="6.09712">
        <ele>364</ele>
        <time>2013-07-06T11:02:58Z</time>
      </trkpt>
      <trkpt lat="48.67702" lon="6.09702">
        <ele>362</ele>
        <time>2013-07-06T11:03:00Z</time>
      </trkpt>
      <trkpt lat="48.67703" lon="6.09692">
        <ele>361</ele>
        <time>2013-07-06T11:03:02Z</time>
      </trkpt>
      <trkpt lat="48.67705" lon="6.09681">
        <ele>361</ele>
        <time>2013-07-06T11:03:04Z</time>
      </trkpt>
      <trkpt lat="48.67706" lon="6.0967">
        <ele>359</ele>
        <time>2013-07-06T11:03:06Z</time>
      </trkpt>
      <trkpt lat="48.67706" lon="6.09661">
        <ele>355</ele>
        <time>2013-07-06T11:03:08Z</time>
      </trkpt>
      <trkpt lat="48.67706" lon="6.09652">
        <ele>354</ele>
        <time>2013-07-06T11:03:10Z</time>
      </trkpt>
      <trkpt lat="48.67707" lon="6.09642">
        <ele>355</ele>
        <time>2013-07-06T11:03:12Z</time>
      </trkpt>
      <trkpt lat="48.67709" lon="6.09632">
        <ele>354</ele>
        <time>2013-07-06T11:03:14Z</time>
      </trkpt>
      <trkpt lat="48.67709" lon="6.09621">
        <ele>355</ele>
        <time>2013-07-06T11:03:16Z</time>
      </trkpt>
      <trkpt lat="48.6771" lon="6.09613">
        <ele>353</ele>
        <time>2013-07-06T11:03:18Z</time>
      </trkpt>
      <trkpt lat="48.67712" lon="6.09604">
        <ele>352</ele>
        <time>2013-07-06T11:03:20Z</time>
      </trkpt>
      <trkpt lat="48.67712" lon="6.09595">
        <ele>351</ele>
        <time>2013-07-06T11:03:22Z</time>
      </trkpt>
      <trkpt lat="48.67713" lon="6.09584">
        <ele>354</ele>
        <time>2013-07-06T11:03:24Z</time>
      </trkpt>
      <trkpt lat="48.67714" lon="6.09574">
        <ele>355</ele>
        <time>2013-07-06T11:03:26Z</time>
      </trkpt>
      <trkpt lat="48.67715" lon="6.09565">
        <ele>355</ele>
        <time>2013-07-06T11:03:28Z</time>
      </trkpt>
      <trkpt lat="48.67716" lon="6.09554">
        <ele>355</ele>
        <time>2013-07-06T11:03:30Z</time>
      </trkpt>
      <trkpt lat="48.67717" lon="6.09544">
        <ele>355</ele>
        <time>2013-07-06T11:03:32Z</time>
      </trkpt>
      <trkpt lat="48.67718" lon="6.09535">
        <ele>355</ele>
        <time>2013-07-06T11:03:34Z</time>
      </trkpt>
      <trkpt lat="48.67719" lon="6.09526">
        <ele>355</ele>
        <time>2013-07-06T11:03:36Z</time>
      </trkpt>
      <trkpt lat="48.6772" lon="6.09517">
        <ele>355</ele>
        <time>2013-07-06T11:03:38Z</time>
      </trkpt>
      <trkpt lat="48.67721" lon="6.09508">
        <ele>356</ele>
        <time>2013-07-06T11:03:40Z</time>
      </trkpt>
      <trkpt lat="48.67722" lon="6.09498">
        <ele>357</ele>
        <time>2013-07-06T11:03:42Z</time>
      </trkpt>
      <trkpt lat="48.67723" lon="6.09489">
        <ele>357</ele>
        <time>2013-07-06T11:03:44Z</time>
      </trkpt>
      <trkpt lat="48.67724" lon="6.0948">
        <ele>356</ele>
        <time>2013-07-06T11:03:46Z</time>
      </trkpt>
      <trkpt lat="48.67726" lon="6.09469">
        <ele>354</ele>
        <time>2013-07-06T11:03:48Z</time>
      </trkpt>
      <trkpt lat="48.67727" lon="6.09458">
        <ele>354</ele>
        <time>2013-07-06T11:03:50Z</time>
      </trkpt>
      <trkpt lat="48.67727" lon="6.09446">
        <ele>354</ele>
        <time>2013-07-06T11:03:52Z</time>
      </trkpt>
      <trkpt lat="48.67728" lon="6.09435">
        <ele>356</ele>
        <time>2013-07-06T11:03:54Z</time>
      </trkpt>
      <trkpt lat="48.6773" lon="6.09423">
        <ele>356</ele>
        <time>2013-07-06T11:03:56Z</time>
      </trkpt>
      <trkpt lat="48.67731" lon="6.09412">
        <ele>357</ele>
        <time>2013-07-06T11:03:58Z</time>
      </trkpt>
      <trkpt lat="48.67733" lon="6.094">
        <ele>357</ele>
        <time>2013-07-06T11:04:00Z</time>
      </trkpt>
      <trkpt lat="48.67733" lon="6.09389">
        <ele>356</ele>
        <time>2013-07-06T11:04:02Z</time>
      </trkpt>
      <trkpt lat="48.67734" lon="6.09377">
        <ele>356</ele>
        <time>2013-07-06T11:04:04Z</time>
      </trkpt>
      <trkpt lat="48.67735" lon="6.09363">
        <ele>357</ele>
        <time>2013-07-06T11:04:06Z</time>
      </trkpt>
      <trkpt lat="48.67736" lon="6.0935">
        <ele>359</ele>
        <time>2013-07-06T11:04:08Z</time>
      </trkpt>
      <trkpt lat="48.67736" lon="6.09336">
        <ele>358</ele>
        <time>2013-07-06T11:04:10Z</time>
      </trkpt>
      <trkpt lat="48.67738" lon="6.09324">
        <ele>358</ele>
        <time>2013-07-06T11:04:12Z</time>
      </trkpt>
      <trkpt lat="48.67739" lon="6.09311">
        <ele>356</ele>
        <time>2013-07-06T11:04:14Z</time>
      </trkpt>
      <trkpt lat="48.67739" lon="6.09297">
        <ele>357</ele>
        <time>2013-07-06T11:04:16Z</time>
      </trkpt>
      <trkpt lat="48.6774" lon="6.09284">
        <ele>357</ele>
        <time>2013-07-06T11:04:18Z</time>
      </trkpt>
      <trkpt lat="48.67741" lon="6.0927">
        <ele>356</ele>
        <time>2013-07-06T11:04:20Z</time>
      </trkpt>
      <trkpt lat="48.67742" lon="6.09256">
        <ele>356</ele>
        <time>2013-07-06T11:04:22Z</time>
      </trkpt>
      <trkpt lat="48.67743" lon="6.0924">
        <ele>355</ele>
        <time>2013-07-06T11:04:24Z</time>
      </trkpt>
      <trkpt lat="48.67745" lon="6.09223">
        <ele>354</ele>
        <time>2013-07-06T11:04:26Z</time>
      </trkpt>
      <trkpt lat="48.67747" lon="6.09208">
        <ele>352</ele>
        <time>2013-07-06T11:04:28Z</time>
      </trkpt>
      <trkpt lat="48.67748" lon="6.09192">
        <ele>352</ele>
        <time>2013-07-06T11:04:30Z</time>
      </trkpt>
      <trkpt lat="48.67749" lon="6.09176">
        <ele>350</ele>
        <time>2013-07-06T11:04:32Z</time>
      </trkpt>
      <trkpt lat="48.6775" lon="6.09161">
        <ele>349</ele>
        <time>2013-07-06T11:04:34Z</time>
      </trkpt>
      <trkpt lat="48.67751" lon="6.09145">
        <ele>351</ele>
        <time>2013-07-06T11:04:36Z</time>
      </trkpt>
      <trkpt lat="48.67752" lon="6.09128">
        <ele>350</ele>
        <time>2013-07-06T11:04:38Z</time>
      </trkpt>
      <trkpt lat="48.67753" lon="6.09111">
        <ele>349</ele>
        <time>2013-07-06T11:04:40Z</time>
      </trkpt>
      <trkpt lat="48.67755" lon="6.09093">
        <ele>350</ele>
        <time>2013-07-06T11:04:42Z</time>
      </trkpt>
      <trkpt lat="48.67756" lon="6.09075">
        <ele>350</ele>
        <time>2013-07-06T11:04:44Z</time>
      </trkpt>
      <trkpt lat="48.67758" lon="6.09056">
        <ele>349</ele>
        <time>2013-07-06T11:04:46Z</time>
      </trkpt>
      <trkpt lat="48.6776" lon="6.09036">
        <ele>349</ele>
        <time>2013-07-06T11:04:48Z</time>
      </trkpt>
      <trkpt lat="48.67763" lon="6.09017">
        <ele>347</ele>
        <time>2013-07-06T11:04:50Z</time>
      </trkpt>
      <trkpt lat="48.67763" lon="6.08998">
        <ele>348</ele>
        <time>2013-07-06T11:04:52Z</time>
      </trkpt>
      <trkpt lat="48.67759" lon="6.08983">
        <ele>350</ele>
        <time>2013-07-06T11:04:54Z</time>
      </trkpt>
      <trkpt lat="48.67753" lon="6.08972">
        <ele>352</ele>
        <time>2013-07-06T11:04:56Z</time>
      </trkpt>
      <trkpt lat="48.67744" lon="6.08962">
        <ele>354</ele>
        <time>2013-07-06T11:04:58Z</time>
      </trkpt>
      <trkpt lat="48.67736" lon="6.08951">
        <ele>355</ele>
        <time>2013-07-06T11:05:00Z</time>
      </trkpt>
      <trkpt lat="48.67729" lon="6.08946">
        <ele>355</ele>
        <time>2013-07-06T11:05:02Z</time>
      </trkpt>
      <trkpt lat="48.67723" lon="6.0894">
        <ele>358</ele>
        <time>2013-07-06T11:05:04Z</time>
      </trkpt>
      <trkpt lat="48.67718" lon="6.08935">
        <ele>358</ele>
        <time>2013-07-06T11:05:06Z</time>
      </trkpt>
      <trkpt lat="48.67713" lon="6.08929">
        <ele>358</ele>
        <time>2013-07-06T11:05:08Z</time>
      </trkpt>
      <trkpt lat="48.67709" lon="6.08925">
        <ele>359</ele>
        <time>2013-07-06T11:05:10Z</time>
      </trkpt>
      <trkpt lat="48.67704" lon="6.0892">
        <ele>362</ele>
        <time>2013-07-06T11:05:12Z</time>
      </trkpt>
      <trkpt lat="48.67698" lon="6.08917">
        <ele>362</ele>
        <time>2013-07-06T11:05:14Z</time>
      </trkpt>
      <trkpt lat="48.67692" lon="6.08911">
        <ele>362</ele>
        <time>2013-07-06T11:05:16Z</time>
      </trkpt>
      <trkpt lat="48.67685" lon="6.08905">
        <ele>364</ele>
        <time>2013-07-06T11:05:18Z</time>
      </trkpt>
      <trkpt lat="48.67677" lon="6.08899">
        <ele>367</ele>
        <time>2013-07-06T11:05:20Z</time>
      </trkpt>
      <trkpt lat="48.67669" lon="6.08893">
        <ele>370</ele>
        <time>2013-07-06T11:05:22Z</time>
      </trkpt>
      <trkpt lat="48.67661" lon="6.08886">
        <ele>372</ele>
        <time>2013-07-06T11:05:24Z</time>
      </trkpt>
      <trkpt lat="48.6764" lon="6.08872">
        <ele>369</ele>
        <time>2013-07-06T11:05:28Z</time>
      </trkpt>
      <trkpt lat="48.67629" lon="6.08868">
        <ele>369</ele>
        <time>2013-07-06T11:05:30Z</time>
      </trkpt>
      <trkpt lat="48.67624" lon="6.08866">
        <ele>368</ele>
        <time>2013-07-06T11:05:31Z</time>
      </trkpt>
      <trkpt lat="48.67598" lon="6.08866">
        <ele>365</ele>
        <time>2013-07-06T11:05:34Z</time>
      </trkpt>
      <trkpt lat="48.67588" lon="6.08867">
        <ele>366</ele>
        <time>2013-07-06T11:05:35Z</time>
      </trkpt>
      <trkpt lat="48.67578" lon="6.08866">
        <ele>366</ele>
        <time>2013-07-06T11:05:36Z</time>
      </trkpt>
      <trkpt lat="48.67546" lon="6.08852">
        <ele>364</ele>
        <time>2013-07-06T11:05:39Z</time>
      </trkpt>
      <trkpt lat="48.67527" lon="6.0884">
        <ele>369</ele>
        <time>2013-07-06T11:05:41Z</time>
      </trkpt>
      <trkpt lat="48.67518" lon="6.08835">
        <ele>368</ele>
        <time>2013-07-06T11:05:42Z</time>
      </trkpt>
      <trkpt lat="48.67509" lon="6.0883">
        <ele>365</ele>
        <time>2013-07-06T11:05:43Z</time>
      </trkpt>
      <trkpt lat="48.67498" lon="6.08826">
        <ele>365</ele>
        <time>2013-07-06T11:05:44Z</time>
      </trkpt>
      <trkpt lat="48.67451" lon="6.08828">
        <ele>358</ele>
        <time>2013-07-06T11:05:48Z</time>
      </trkpt>
      <trkpt lat="48.67423" lon="6.08839">
        <ele>356</ele>
        <time>2013-07-06T11:05:50Z</time>
      </trkpt>
      <trkpt lat="48.674" lon="6.08843">
        <ele>348</ele>
        <time>2013-07-06T11:05:52Z</time>
      </trkpt>
      <trkpt lat="48.67377" lon="6.08844">
        <ele>347</ele>
        <time>2013-07-06T11:05:54Z</time>
      </trkpt>
      <trkpt lat="48.67365" lon="6.08823">
        <ele>344</ele>
        <time>2013-07-06T11:05:56Z</time>
      </trkpt>
      <trkpt lat="48.67357" lon="6.088">
        <ele>346</ele>
        <time>2013-07-06T11:05:58Z</time>
      </trkpt>
      <trkpt lat="48.67354" lon="6.0878">
        <ele>345</ele>
        <time>2013-07-06T11:06:00Z</time>
      </trkpt>
      <trkpt lat="48.67352" lon="6.08762">
        <ele>347</ele>
        <time>2013-07-06T11:06:02Z</time>
      </trkpt>
      <trkpt lat="48.6735" lon="6.08747">
        <ele>353</ele>
        <time>2013-07-06T11:06:04Z</time>
      </trkpt>
      <trkpt lat="48.67348" lon="6.08734">
        <ele>356</ele>
        <time>2013-07-06T11:06:06Z</time>
      </trkpt>
      <trkpt lat="48.67347" lon="6.08724">
        <ele>354</ele>
        <time>2013-07-06T11:06:08Z</time>
      </trkpt>
      <trkpt lat="48.67346" lon="6.08715">
        <ele>354</ele>
        <time>2013-07-06T11:06:10Z</time>
      </trkpt>
      <trkpt lat="48.67345" lon="6.08709">
        <ele>352</ele>
        <time>2013-07-06T11:06:12Z</time>
      </trkpt>
      <trkpt lat="48.67343" lon="6.08699">
        <ele>354</ele>
        <time>2013-07-06T11:06:16Z</time>
      </trkpt>
      <trkpt lat="48.67342" lon="6.08692">
        <ele>356</ele>
        <time>2013-07-06T11:06:18Z</time>
      </trkpt>
      <trkpt lat="48.6734" lon="6.08687">
        <ele>356</ele>
        <time>2013-07-06T11:06:20Z</time>
      </trkpt>
      <trkpt lat="48.67336" lon="6.08681">
        <ele>360</ele>
        <time>2013-07-06T11:06:24Z</time>
      </trkpt>
      <trkpt lat="48.67329" lon="6.08676">
        <ele>362</ele>
        <time>2013-07-06T11:06:28Z</time>
      </trkpt>
      <trkpt lat="48.67321" lon="6.08667">
        <ele>371</ele>
        <time>2013-07-06T11:06:32Z</time>
      </trkpt>
      <trkpt lat="48.67318" lon="6.08662">
        <ele>369</ele>
        <time>2013-07-06T11:06:34Z</time>
      </trkpt>
      <trkpt lat="48.67314" lon="6.08656">
        <ele>370</ele>
        <time>2013-07-06T11:06:36Z</time>
      </trkpt>
      <trkpt lat="48.67311" lon="6.0865">
        <ele>368</ele>
        <time>2013-07-06T11:06:38Z</time>
      </trkpt>
      <trkpt lat="48.67307" lon="6.08645">
        <ele>366</ele>
        <time>2013-07-06T11:06:40Z</time>
      </trkpt>
      <trkpt lat="48.67303" lon="6.0864">
        <ele>368</ele>
        <time>2013-07-06T11:06:42Z</time>
      </trkpt>
      <trkpt lat="48.673" lon="6.08634">
        <ele>365</ele>
        <time>2013-07-06T11:06:44Z</time>
      </trkpt>
      <trkpt lat="48.67297" lon="6.08627">
        <ele>370</ele>
        <time>2013-07-06T11:06:46Z</time>
      </trkpt>
      <trkpt lat="48.67294" lon="6.0862">
        <ele>370</ele>
        <time>2013-07-06T11:06:48Z</time>
      </trkpt>
      <trkpt lat="48.67291" lon="6.08614">
        <ele>373</ele>
        <time>2013-07-06T11:06:50Z</time>
      </trkpt>
      <trkpt lat="48.67287" lon="6.0861">
        <ele>374</ele>
        <time>2013-07-06T11:06:52Z</time>
      </trkpt>
      <trkpt lat="48.67284" lon="6.08605">
        <ele>372</ele>
        <time>2013-07-06T11:06:54Z</time>
      </trkpt>
      <trkpt lat="48.67276" lon="6.08596">
        <ele>374</ele>
        <time>2013-07-06T11:06:58Z</time>
      </trkpt>
      <trkpt lat="48.67272" lon="6.08592">
        <ele>371</ele>
        <time>2013-07-06T11:07:00Z</time>
      </trkpt>
      <trkpt lat="48.67265" lon="6.0858">
        <ele>372</ele>
        <time>2013-07-06T11:07:04Z</time>
      </trkpt>
      <trkpt lat="48.67262" lon="6.08575">
        <ele>371</ele>
        <time>2013-07-06T11:07:06Z</time>
      </trkpt>
      <trkpt lat="48.67259" lon="6.0857">
        <ele>374</ele>
        <time>2013-07-06T11:07:08Z</time>
      </trkpt>
      <trkpt lat="48.67251" lon="6.08561">
        <ele>375</ele>
        <time>2013-07-06T11:07:12Z</time>
      </trkpt>
      <trkpt lat="48.67247" lon="6.08558">
        <ele>374</ele>
        <time>2013-07-06T11:07:14Z</time>
      </trkpt>
      <trkpt lat="48.67242" lon="6.08554">
        <ele>374</ele>
        <time>2013-07-06T11:07:16Z</time>
      </trkpt>
      <trkpt lat="48.67239" lon="6.08549">
        <ele>374</ele>
        <time>2013-07-06T11:07:18Z</time>
      </trkpt>
      <trkpt lat="48.67235" lon="6.08544">
        <ele>373</ele>
        <time>2013-07-06T11:07:20Z</time>
      </trkpt>
      <trkpt lat="48.67231" lon="6.08539">
        <ele>374</ele>
        <time>2013-07-06T11:07:22Z</time>
      </trkpt>
      <trkpt lat="48.67225" lon="6.08527">
        <ele>376</ele>
        <time>2013-07-06T11:07:26Z</time>
      </trkpt>
      <trkpt lat="48.67223" lon="6.0852">
        <ele>376</ele>
        <time>2013-07-06T11:07:28Z</time>
      </trkpt>
      <trkpt lat="48.6722" lon="6.08515">
        <ele>376</ele>
        <time>2013-07-06T11:07:30Z</time>
      </trkpt>
      <trkpt lat="48.67215" lon="6.08496">
        <ele>380</ele>
        <time>2013-07-06T11:07:36Z</time>
      </trkpt>
      <trkpt lat="48.67213" lon="6.08489">
        <ele>380</ele>
        <time>2013-07-06T11:07:38Z</time>
      </trkpt>
      <trkpt lat="48.67211" lon="6.08484">
        <ele>380</ele>
        <time>2013-07-06T11:07:40Z</time>
      </trkpt>
      <trkpt lat="48.67203" lon="6.08469">
        <ele>379</ele>
        <time>2013-07-06T11:07:46Z</time>
      </trkpt>
      <trkpt lat="48.67187" lon="6.08446">
        <ele>379</ele>
        <time>2013-07-06T11:07:56Z</time>
      </trkpt>
      <trkpt lat="48.67184" lon="6.08441">
        <ele>379</ele>
        <time>2013-07-06T11:07:58Z</time>
      </trkpt>
      <trkpt lat="48.67176" lon="6.08427">
        <ele>378</ele>
        <time>2013-07-06T11:08:04Z</time>
      </trkpt>
      <trkpt lat="48.67168" lon="6.08419">
        <ele>379</ele>
        <time>2013-07-06T11:08:08Z</time>
      </trkpt>
      <trkpt lat="48.67164" lon="6.08417">
        <ele>379</ele>
        <time>2013-07-06T11:08:10Z</time>
      </trkpt>
      <trkpt lat="48.6716" lon="6.08415">
        <ele>380</ele>
        <time>2013-07-06T11:08:12Z</time>
      </trkpt>
      <trkpt lat="48.67149" lon="6.08407">
        <ele>383</ele>
        <time>2013-07-06T11:08:18Z</time>
      </trkpt>
      <trkpt lat="48.67144" lon="6.08403">
        <ele>380</ele>
        <time>2013-07-06T11:08:20Z</time>
      </trkpt>
      <trkpt lat="48.67139" lon="6.08399">
        <ele>376</ele>
        <time>2013-07-06T11:08:22Z</time>
      </trkpt>
      <trkpt lat="48.67132" lon="6.08395">
        <ele>370</ele>
        <time>2013-07-06T11:08:24Z</time>
      </trkpt>
      <trkpt lat="48.67126" lon="6.08392">
        <ele>370</ele>
        <time>2013-07-06T11:08:26Z</time>
      </trkpt>
      <trkpt lat="48.6712" lon="6.08389">
        <ele>369</ele>
        <time>2013-07-06T11:08:28Z</time>
      </trkpt>
      <trkpt lat="48.67115" lon="6.08386">
        <ele>370</ele>
        <time>2013-07-06T11:08:30Z</time>
      </trkpt>
      <trkpt lat="48.67111" lon="6.08383">
        <ele>371</ele>
        <time>2013-07-06T11:08:32Z</time>
      </trkpt>
      <trkpt lat="48.67107" lon="6.08381">
        <ele>371</ele>
        <time>2013-07-06T11:08:34Z</time>
      </trkpt>
      <trkpt lat="48.67104" lon="6.08377">
        <ele>372</ele>
        <time>2013-07-06T11:08:36Z</time>
      </trkpt>
      <trkpt lat="48.67101" lon="6.08373">
        <ele>372</ele>
        <time>2013-07-06T11:08:38Z</time>
      </trkpt>
      <trkpt lat="48.67096" lon="6.08364">
        <ele>374</ele>
        <time>2013-07-06T11:08:42Z</time>
      </trkpt>
      <trkpt lat="48.67093" lon="6.08362">
        <ele>374</ele>
        <time>2013-07-06T11:08:44Z</time>
      </trkpt>
      <trkpt lat="48.6709" lon="6.08359">
        <ele>376</ele>
        <time>2013-07-06T11:08:46Z</time>
      </trkpt>
      <trkpt lat="48.67086" lon="6.08356">
        <ele>376</ele>
        <time>2013-07-06T11:08:48Z</time>
      </trkpt>
      <trkpt lat="48.67082" lon="6.08353">
        <ele>377</ele>
        <time>2013-07-06T11:08:50Z</time>
      </trkpt>
      <trkpt lat="48.67075" lon="6.08346">
        <ele>380</ele>
        <time>2013-07-06T11:08:54Z</time>
      </trkpt>
      <trkpt lat="48.67072" lon="6.08342">
        <ele>380</ele>
        <time>2013-07-06T11:08:56Z</time>
      </trkpt>
      <trkpt lat="48.67068" lon="6.08338">
        <ele>382</ele>
        <time>2013-07-06T11:08:58Z</time>
      </trkpt>
      <trkpt lat="48.67064" lon="6.08337">
        <ele>383</ele>
        <time>2013-07-06T11:09:00Z</time>
      </trkpt>
      <trkpt lat="48.67059" lon="6.08335">
        <ele>383</ele>
        <time>2013-07-06T11:09:02Z</time>
      </trkpt>
      <trkpt lat="48.67054" lon="6.08333">
        <ele>384</ele>
        <time>2013-07-06T11:09:04Z</time>
      </trkpt>
      <trkpt lat="48.67036" lon="6.08321">
        <ele>385</ele>
        <time>2013-07-06T11:09:12Z</time>
      </trkpt>
      <trkpt lat="48.67033" lon="6.08315">
        <ele>385</ele>
        <time>2013-07-06T11:09:14Z</time>
      </trkpt>
      <trkpt lat="48.67028" lon="6.08304">
        <ele>386</ele>
        <time>2013-07-06T11:09:18Z</time>
      </trkpt>
      <trkpt lat="48.67024" lon="6.08299">
        <ele>386</ele>
        <time>2013-07-06T11:09:20Z</time>
      </trkpt>
      <trkpt lat="48.67011" lon="6.08288">
        <ele>388</ele>
        <time>2013-07-06T11:09:26Z</time>
      </trkpt>
      <trkpt lat="48.67006" lon="6.08284">
        <ele>390</ele>
        <time>2013-07-06T11:09:28Z</time>
      </trkpt>
      <trkpt lat="48.67001" lon="6.0828">
        <ele>390</ele>
        <time>2013-07-06T11:09:30Z</time>
      </trkpt>
      <trkpt lat="48.66997" lon="6.08276">
        <ele>390</ele>
        <time>2013-07-06T11:09:32Z</time>
      </trkpt>
      <trkpt lat="48.66992" lon="6.08273">
        <ele>391</ele>
        <time>2013-07-06T11:09:34Z</time>
      </trkpt>
      <trkpt lat="48.66987" lon="6.08271">
        <ele>391</ele>
        <time>2013-07-06T11:09:36Z</time>
      </trkpt>
      <trkpt lat="48.66981" lon="6.08263">
        <ele>395</ele>
        <time>2013-07-06T11:09:40Z</time>
      </trkpt>
      <trkpt lat="48.66977" lon="6.08259">
        <ele>395</ele>
        <time>2013-07-06T11:09:42Z</time>
      </trkpt>
      <trkpt lat="48.66972" lon="6.08256">
        <ele>397</ele>
        <time>2013-07-06T11:09:44Z</time>
      </trkpt>
      <trkpt lat="48.66968" lon="6.08253">
        <ele>398</ele>
        <time>2013-07-06T11:09:46Z</time>
      </trkpt>
      <trkpt lat="48.66959" lon="6.08238">
        <ele>400</ele>
        <time>2013-07-06T11:09:52Z</time>
      </trkpt>
      <trkpt lat="48.66956" lon="6.08234">
        <ele>400</ele>
        <time>2013-07-06T11:09:54Z</time>
      </trkpt>
      <trkpt lat="48.66952" lon="6.08231">
        <ele>401</ele>
        <time>2013-07-06T11:09:56Z</time>
      </trkpt>
      <trkpt lat="48.66947" lon="6.08228">
        <ele>402</ele>
        <time>2013-07-06T11:09:58Z</time>
      </trkpt>
      <trkpt lat="48.66942" lon="6.08226">
        <ele>400</ele>
        <time>2013-07-06T11:10:00Z</time>
      </trkpt>
      <trkpt lat="48.66937" lon="6.08223">
        <ele>402</ele>
        <time>2013-07-06T11:10:02Z</time>
      </trkpt>
      <trkpt lat="48.66932" lon="6.08219">
        <ele>402</ele>
        <time>2013-07-06T11:10:04Z</time>
      </trkpt>
      <trkpt lat="48.66922" lon="6.08212">
        <ele>400</ele>
        <time>2013-07-06T11:10:08Z</time>
      </trkpt>
      <trkpt lat="48.66916" lon="6.08206">
        <ele>400</ele>
        <time>2013-07-06T11:10:10Z</time>
      </trkpt>
      <trkpt lat="48.66912" lon="6.08202">
        <ele>400</ele>
        <time>2013-07-06T11:10:12Z</time>
      </trkpt>
      <trkpt lat="48.66907" lon="6.08199">
        <ele>401</ele>
        <time>2013-07-06T11:10:14Z</time>
      </trkpt>
      <trkpt lat="48.66903" lon="6.08194">
        <ele>402</ele>
        <time>2013-07-06T11:10:16Z</time>
      </trkpt>
      <trkpt lat="48.66899" lon="6.0819">
        <ele>402</ele>
        <time>2013-07-06T11:10:18Z</time>
      </trkpt>
      <trkpt lat="48.66895" lon="6.08188">
        <ele>403</ele>
        <time>2013-07-06T11:10:20Z</time>
      </trkpt>
      <trkpt lat="48.66891" lon="6.08185">
        <ele>400</ele>
        <time>2013-07-06T11:10:22Z</time>
      </trkpt>
      <trkpt lat="48.66882" lon="6.08177">
        <ele>400</ele>
        <time>2013-07-06T11:10:26Z</time>
      </trkpt>
      <trkpt lat="48.6688" lon="6.08174">
        <ele>401</ele>
        <time>2013-07-06T11:10:27Z</time>
      </trkpt>
      <trkpt lat="48.66878" lon="6.08172">
        <ele>401</ele>
        <time>2013-07-06T11:10:28Z</time>
      </trkpt>
      <trkpt lat="48.66874" lon="6.08167">
        <ele>401</ele>
        <time>2013-07-06T11:10:30Z</time>
      </trkpt>
      <trkpt lat="48.66869" lon="6.08163">
        <ele>404</ele>
        <time>2013-07-06T11:10:32Z</time>
      </trkpt>
      <trkpt lat="48.66864" lon="6.08157">
        <ele>401</ele>
        <time>2013-07-06T11:10:34Z</time>
      </trkpt>
      <trkpt lat="48.66856" lon="6.08149">
        <ele>401</ele>
        <time>2013-07-06T11:10:38Z</time>
      </trkpt>
      <trkpt lat="48.66848" lon="6.08138">
        <ele>407</ele>
        <time>2013-07-06T11:10:42Z</time>
      </trkpt>
      <trkpt lat="48.66843" lon="6.08131">
        <ele>405</ele>
        <time>2013-07-06T11:10:44Z</time>
      </trkpt>
      <trkpt lat="48.66839" lon="6.08124">
        <ele>405</ele>
        <time>2013-07-06T11:10:46Z</time>
      </trkpt>
      <trkpt lat="48.66834" lon="6.08118">
        <ele>407</ele>
        <time>2013-07-06T11:10:48Z</time>
      </trkpt>
      <trkpt lat="48.6683" lon="6.08112">
        <ele>409</ele>
        <time>2013-07-06T11:10:50Z</time>
      </trkpt>
      <trkpt lat="48.66827" lon="6.08107">
        <ele>408</ele>
        <time>2013-07-06T11:10:52Z</time>
      </trkpt>
      <trkpt lat="48.66823" lon="6.08103">
        <ele>408</ele>
        <time>2013-07-06T11:10:54Z</time>
      </trkpt>
      <trkpt lat="48.66818" lon="6.08098">
        <ele>406</ele>
        <time>2013-07-06T11:10:56Z</time>
      </trkpt>
      <trkpt lat="48.66813" lon="6.08096">
        <ele>410</ele>
        <time>2013-07-06T11:10:58Z</time>
      </trkpt>
      <trkpt lat="48.66804" lon="6.0809">
        <ele>413</ele>
        <time>2013-07-06T11:11:02Z</time>
      </trkpt>
      <trkpt lat="48.668" lon="6.08087">
        <ele>412</ele>
        <time>2013-07-06T11:11:04Z</time>
      </trkpt>
      <trkpt lat="48.66793" lon="6.0808">
        <ele>409</ele>
        <time>2013-07-06T11:11:06Z</time>
      </trkpt>
      <trkpt lat="48.66787" lon="6.08071">
        <ele>402</ele>
        <time>2013-07-06T11:11:08Z</time>
      </trkpt>
      <trkpt lat="48.6678" lon="6.08062">
        <ele>399</ele>
        <time>2013-07-06T11:11:10Z</time>
      </trkpt>
      <trkpt lat="48.66775" lon="6.08052">
        <ele>396</ele>
        <time>2013-07-06T11:11:12Z</time>
      </trkpt>
      <trkpt lat="48.6677" lon="6.08047">
        <ele>396</ele>
        <time>2013-07-06T11:11:14Z</time>
      </trkpt>
      <trkpt lat="48.66766" lon="6.08042">
        <ele>395</ele>
        <time>2013-07-06T11:11:16Z</time>
      </trkpt>
      <trkpt lat="48.6676" lon="6.08037">
        <ele>394</ele>
        <time>2013-07-06T11:11:18Z</time>
      </trkpt>
      <trkpt lat="48.66752" lon="6.08034">
        <ele>389</ele>
        <time>2013-07-06T11:11:20Z</time>
      </trkpt>
      <trkpt lat="48.66744" lon="6.08035">
        <ele>387</ele>
        <time>2013-07-06T11:11:22Z</time>
      </trkpt>
      <trkpt lat="48.66739" lon="6.08044">
        <ele>379</ele>
        <time>2013-07-06T11:11:24Z</time>
      </trkpt>
      <trkpt lat="48.66737" lon="6.08053">
        <ele>375</ele>
        <time>2013-07-06T11:11:26Z</time>
      </trkpt>
      <trkpt lat="48.66737" lon="6.08065">
        <ele>373</ele>
        <time>2013-07-06T11:11:28Z</time>
      </trkpt>
      <trkpt lat="48.66737" lon="6.08079">
        <ele>372</ele>
        <time>2013-07-06T11:11:30Z</time>
      </trkpt>
      <trkpt lat="48.66738" lon="6.08094">
        <ele>371</ele>
        <time>2013-07-06T11:11:32Z</time>
      </trkpt>
      <trkpt lat="48.66738" lon="6.08109">
        <ele>371</ele>
        <time>2013-07-06T11:11:34Z</time>
      </trkpt>
      <trkpt lat="48.66738" lon="6.08126">
        <ele>371</ele>
        <time>2013-07-06T11:11:36Z</time>
      </trkpt>
      <trkpt lat="48.66738" lon="6.08142">
        <ele>370</ele>
        <time>2013-07-06T11:11:38Z</time>
      </trkpt>
      <trkpt lat="48.66739" lon="6.0816">
        <ele>370</ele>
        <time>2013-07-06T11:11:40Z</time>
      </trkpt>
      <trkpt lat="48.66739" lon="6.08176">
        <ele>368</ele>
        <time>2013-07-06T11:11:42Z</time>
      </trkpt>
      <trkpt lat="48.6674" lon="6.08192">
        <ele>366</ele>
        <time>2013-07-06T11:11:44Z</time>
      </trkpt>
      <trkpt lat="48.6674" lon="6.082">
        <ele>364</ele>
        <time>2013-07-06T11:11:45Z</time>
      </trkpt>
      <trkpt lat="48.66741" lon="6.08219">
        <ele>364</ele>
        <time>2013-07-06T11:11:47Z</time>
      </trkpt>
      <trkpt lat="48.66742" lon="6.08239">
        <ele>363</ele>
        <time>2013-07-06T11:11:49Z</time>
      </trkpt>
      <trkpt lat="48.66742" lon="6.0825">
        <ele>362</ele>
        <time>2013-07-06T11:11:50Z</time>
      </trkpt>
      <trkpt lat="48.66743" lon="6.08261">
        <ele>362</ele>
        <time>2013-07-06T11:11:51Z</time>
      </trkpt>
      <trkpt lat="48.66744" lon="6.08285">
        <ele>362</ele>
        <time>2013-07-06T11:11:53Z</time>
      </trkpt>
      <trkpt lat="48.66743" lon="6.0831">
        <ele>360</ele>
        <time>2013-07-06T11:11:55Z</time>
      </trkpt>
      <trkpt lat="48.66743" lon="6.08336">
        <ele>359</ele>
        <time>2013-07-06T11:11:57Z</time>
      </trkpt>
      <trkpt lat="48.66744" lon="6.08365">
        <ele>357</ele>
        <time>2013-07-06T11:11:59Z</time>
      </trkpt>
      <trkpt lat="48.66744" lon="6.08396">
        <ele>357</ele>
        <time>2013-07-06T11:12:01Z</time>
      </trkpt>
      <trkpt lat="48.66742" lon="6.08425">
        <ele>356</ele>
        <time>2013-07-06T11:12:03Z</time>
      </trkpt>
      <trkpt lat="48.66744" lon="6.08448">
        <ele>358</ele>
        <time>2013-07-06T11:12:05Z</time>
      </trkpt>
      <trkpt lat="48.66746" lon="6.08473">
        <ele>358</ele>
        <time>2013-07-06T11:12:07Z</time>
      </trkpt>
      <trkpt lat="48.66747" lon="6.08499">
        <ele>354</ele>
        <time>2013-07-06T11:12:09Z</time>
      </trkpt>
      <trkpt lat="48.66749" lon="6.08527">
        <ele>353</ele>
        <time>2013-07-06T11:12:11Z</time>
      </trkpt>
      <trkpt lat="48.66753" lon="6.08555">
        <ele>350</ele>
        <time>2013-07-06T11:12:13Z</time>
      </trkpt>
      <trkpt lat="48.66756" lon="6.08584">
        <ele>349</ele>
        <time>2013-07-06T11:12:15Z</time>
      </trkpt>
      <trkpt lat="48.66757" lon="6.08608">
        <ele>349</ele>
        <time>2013-07-06T11:12:17Z</time>
      </trkpt>
      <trkpt lat="48.66758" lon="6.08626">
        <ele>349</ele>
        <time>2013-07-06T11:12:19Z</time>
      </trkpt>
      <trkpt lat="48.66758" lon="6.0864">
        <ele>354</ele>
        <time>2013-07-06T11:12:21Z</time>
      </trkpt>
      <trkpt lat="48.66759" lon="6.08653">
        <ele>352</ele>
        <time>2013-07-06T11:12:23Z</time>
      </trkpt>
      <trkpt lat="48.66759" lon="6.08667">
        <ele>351</ele>
        <time>2013-07-06T11:12:25Z</time>
      </trkpt>
      <trkpt lat="48.66758" lon="6.08678">
        <ele>349</ele>
        <time>2013-07-06T11:12:27Z</time>
      </trkpt>
      <trkpt lat="48.66759" lon="6.08688">
        <ele>349</ele>
        <time>2013-07-06T11:12:29Z</time>
      </trkpt>
      <trkpt lat="48.66759" lon="6.08698">
        <ele>349</ele>
        <time>2013-07-06T11:12:31Z</time>
      </trkpt>
      <trkpt lat="48.6676" lon="6.08709">
        <ele>347</ele>
        <time>2013-07-06T11:12:33Z</time>
      </trkpt>
      <trkpt lat="48.66759" lon="6.08721">
        <ele>345</ele>
        <time>2013-07-06T11:12:35Z</time>
      </trkpt>
      <trkpt lat="48.66755" lon="6.08733">
        <ele>344</ele>
        <time>2013-07-06T11:12:37Z</time>
      </trkpt>
      <trkpt lat="48.66753" lon="6.08745">
        <ele>343</ele>
        <time>2013-07-06T11:12:39Z</time>
      </trkpt>
      <trkpt lat="48.6675" lon="6.08755">
        <ele>343</ele>
        <time>2013-07-06T11:12:41Z</time>
      </trkpt>
      <trkpt lat="48.66748" lon="6.08765">
        <ele>343</ele>
        <time>2013-07-06T11:12:43Z</time>
      </trkpt>
      <trkpt lat="48.66749" lon="6.08775">
        <ele>343</ele>
        <time>2013-07-06T11:12:45Z</time>
      </trkpt>
      <trkpt lat="48.66751" lon="6.08782">
        <ele>343</ele>
        <time>2013-07-06T11:12:47Z</time>
      </trkpt>
      <trkpt lat="48.6675" lon="6.08788">
        <ele>344</ele>
        <time>2013-07-06T11:12:49Z</time>
      </trkpt>
      <trkpt lat="48.66751" lon="6.08788">
        <ele>346</ele>
        <time>2013-07-06T11:12:51Z</time>
      </trkpt>
      <trkpt lat="48.6675" lon="6.08787">
        <ele>349</ele>
        <time>2013-07-06T11:12:53Z</time>
      </trkpt>
      <trkpt lat="48.6675" lon="6.08785">
        <ele>351</ele>
        <time>2013-07-06T11:12:55Z</time>
      </trkpt>
      <trkpt lat="48.6675" lon="6.08785">
        <ele>349</ele>
        <time>2013-07-06T11:12:57Z</time>
      </trkpt>
      <trkpt lat="48.66752" lon="6.08785">
        <ele>352</ele>
        <time>2013-07-06T11:13:04Z</time>
      </trkpt>
      <trkpt lat="48.66753" lon="6.08783">
        <ele>351</ele>
        <time>2013-07-06T11:13:28Z</time>
      </trkpt>
      <trkpt lat="48.66752" lon="6.08786">
        <ele>349</ele>
        <time>2013-07-06T11:13:30Z</time>
      </trkpt>
      <trkpt lat="48.66751" lon="6.08792">
        <ele>352</ele>
        <time>2013-07-06T11:13:32Z</time>
      </trkpt>
      <trkpt lat="48.6675" lon="6.08799">
        <ele>353</ele>
        <time>2013-07-06T11:13:34Z</time>
      </trkpt>
      <trkpt lat="48.6675" lon="6.08803">
        <ele>352</ele>
        <time>2013-07-06T11:13:36Z</time>
      </trkpt>
      <trkpt lat="48.6675" lon="6.08808">
        <ele>350</ele>
        <time>2013-07-06T11:13:38Z</time>
      </trkpt>
      <trkpt lat="48.66748" lon="6.0882">
        <ele>353</ele>
        <time>2013-07-06T11:13:44Z</time>
      </trkpt>
      <trkpt lat="48.66748" lon="6.08822">
        <ele>354</ele>
        <time>2013-07-06T11:13:45Z</time>
      </trkpt>
      <trkpt lat="48.66747" lon="6.08825">
        <ele>351</ele>
        <time>2013-07-06T11:13:47Z</time>
      </trkpt>
      <trkpt lat="48.66746" lon="6.08824">
        <ele>353</ele>
        <time>2013-07-06T11:14:11Z</time>
      </trkpt>
      <trkpt lat="48.66747" lon="6.08824">
        <ele>355</ele>
        <time>2013-07-06T11:14:19Z</time>
      </trkpt>
      <trkpt lat="48.66748" lon="6.0883">
        <ele>366</ele>
        <time>2013-07-06T11:14:29Z</time>
      </trkpt>
      <trkpt lat="48.6675" lon="6.08831">
        <ele>362</ele>
        <time>2013-07-06T11:14:33Z</time>
      </trkpt>
      <trkpt lat="48.66752" lon="6.08829">
        <ele>354</ele>
        <time>2013-07-06T11:14:55Z</time>
      </trkpt>
      <trkpt lat="48.66753" lon="6.08828">
        <ele>356</ele>
        <time>2013-07-06T11:15:09Z</time>
      </trkpt>
      <trkpt lat="48.66755" lon="6.08826">
        <ele>352</ele>
        <time>2013-07-06T11:15:59Z</time>
      </trkpt>
      <trkpt lat="48.66755" lon="6.08827">
        <ele>358</ele>
        <time>2013-07-06T11:16:03Z</time>
      </trkpt>
      <trkpt lat="48.66753" lon="6.08827">
        <ele>359</ele>
        <time>2013-07-06T11:16:09Z</time>
      </trkpt>
      <trkpt lat="48.66751" lon="6.08824">
        <ele>363</ele>
        <time>2013-07-06T11:16:17Z</time>
      </trkpt>
      <trkpt lat="48.66747" lon="6.08828">
        <ele>347</ele>
        <time>2013-07-06T11:16:51Z</time>
      </trkpt>
      <trkpt lat="48.66744" lon="6.08831">
        <ele>367</ele>
        <time>2013-07-06T11:17:40Z</time>
      </trkpt>
      <trkpt lat="48.6674" lon="6.08828">
        <ele>359</ele>
        <time>2013-07-06T11:17:50Z</time>
      </trkpt>
      <trkpt lat="48.66737" lon="6.08828">
        <ele>351</ele>
        <time>2013-07-06T11:18:01Z</time>
      </trkpt>
      <trkpt lat="48.66736" lon="6.08828">
        <ele>350</ele>
        <time>2013-07-06T11:18:02Z</time>
      </trkpt>
      <trkpt lat="48.66735" lon="6.08829">
        <ele>350</ele>
        <time>2013-07-06T11:18:14Z</time>
      </trkpt>
      <trkpt lat="48.66738" lon="6.08828">
        <ele>351</ele>
        <time>2013-07-06T11:18:28Z</time>
      </trkpt>
      <trkpt lat="48.6674" lon="6.0883">
        <ele>348</ele>
        <time>2013-07-06T11:18:34Z</time>
      </trkpt>
      <trkpt lat="48.66741" lon="6.08836">
        <ele>349</ele>
        <time>2013-07-06T11:18:36Z</time>
      </trkpt>
      <trkpt lat="48.6674" lon="6.08842">
        <ele>352</ele>
        <time>2013-07-06T11:18:38Z</time>
      </trkpt>
      <trkpt lat="48.66741" lon="6.08847">
        <ele>352</ele>
        <time>2013-07-06T11:18:40Z</time>
      </trkpt>
      <trkpt lat="48.66743" lon="6.08854">
        <ele>353</ele>
        <time>2013-07-06T11:18:42Z</time>
      </trkpt>
      <trkpt lat="48.66742" lon="6.08862">
        <ele>354</ele>
        <time>2013-07-06T11:18:44Z</time>
      </trkpt>
      <trkpt lat="48.66744" lon="6.08871">
        <ele>354</ele>
        <time>2013-07-06T11:18:46Z</time>
      </trkpt>
      <trkpt lat="48.66746" lon="6.08881">
        <ele>355</ele>
        <time>2013-07-06T11:18:48Z</time>
      </trkpt>
      <trkpt lat="48.66747" lon="6.08892">
        <ele>356</ele>
        <time>2013-07-06T11:18:50Z</time>
      </trkpt>
      <trkpt lat="48.66747" lon="6.08901">
        <ele>358</ele>
        <time>2013-07-06T11:18:52Z</time>
      </trkpt>
      <trkpt lat="48.6675" lon="6.08911">
        <ele>358</ele>
        <time>2013-07-06T11:18:54Z</time>
      </trkpt>
      <trkpt lat="48.6675" lon="6.08922">
        <ele>356</ele>
        <time>2013-07-06T11:18:56Z</time>
      </trkpt>
      <trkpt lat="48.66748" lon="6.08933">
        <ele>354</ele>
        <time>2013-07-06T11:18:58Z</time>
      </trkpt>
      <trkpt lat="48.66744" lon="6.08946">
        <ele>356</ele>
        <time>2013-07-06T11:19:00Z</time>
      </trkpt>
      <trkpt lat="48.6674" lon="6.08957">
        <ele>359</ele>
        <time>2013-07-06T11:19:02Z</time>
      </trkpt>
      <trkpt lat="48.66736" lon="6.08968">
        <ele>364</ele>
        <time>2013-07-06T11:19:04Z</time>
      </trkpt>
      <trkpt lat="48.66728" lon="6.0898">
        <ele>365</ele>
        <time>2013-07-06T11:19:06Z</time>
      </trkpt>
      <trkpt lat="48.66716" lon="6.08994">
        <ele>362</ele>
        <time>2013-07-06T11:19:08Z</time>
      </trkpt>
      <trkpt lat="48.66704" lon="6.09003">
        <ele>364</ele>
        <time>2013-07-06T11:19:10Z</time>
      </trkpt>
      <trkpt lat="48.66692" lon="6.09018">
        <ele>369</ele>
        <time>2013-07-06T11:19:12Z</time>
      </trkpt>
      <trkpt lat="48.66684" lon="6.09036">
        <ele>363</ele>
        <time>2013-07-06T11:19:14Z</time>
      </trkpt>
      <trkpt lat="48.66677" lon="6.09056">
        <ele>356</ele>
        <time>2013-07-06T11:19:16Z</time>
      </trkpt>
      <trkpt lat="48.66676" lon="6.09067">
        <ele>353</ele>
        <time>2013-07-06T11:19:17Z</time>
      </trkpt>
      <trkpt lat="48.66677" lon="6.09078">
        <ele>352</ele>
        <time>2013-07-06T11:19:18Z</time>
      </trkpt>
      <trkpt lat="48.66681" lon="6.09098">
        <ele>354</ele>
        <time>2013-07-06T11:19:20Z</time>
      </trkpt>
      <trkpt lat="48.66687" lon="6.09111">
        <ele>354</ele>
        <time>2013-07-06T11:19:22Z</time>
      </trkpt>
      <trkpt lat="48.66694" lon="6.09119">
        <ele>355</ele>
        <time>2013-07-06T11:19:24Z</time>
      </trkpt>
      <trkpt lat="48.66697" lon="6.09121">
        <ele>359</ele>
        <time>2013-07-06T11:19:28Z</time>
      </trkpt>
      <trkpt lat="48.667" lon="6.09124">
        <ele>361</ele>
        <time>2013-07-06T11:19:30Z</time>
      </trkpt>
      <trkpt lat="48.66704" lon="6.09127">
        <ele>361</ele>
        <time>2013-07-06T11:19:32Z</time>
      </trkpt>
      <trkpt lat="48.66708" lon="6.0913">
        <ele>364</ele>
        <time>2013-07-06T11:19:34Z</time>
      </trkpt>
      <trkpt lat="48.66713" lon="6.09131">
        <ele>365</ele>
        <time>2013-07-06T11:19:36Z</time>
      </trkpt>
      <trkpt lat="48.66718" lon="6.09132">
        <ele>366</ele>
        <time>2013-07-06T11:19:38Z</time>
      </trkpt>
      <trkpt lat="48.66723" lon="6.09133">
        <ele>369</ele>
        <time>2013-07-06T11:19:40Z</time>
      </trkpt>
      <trkpt lat="48.66729" lon="6.09131">
        <ele>370</ele>
        <time>2013-07-06T11:19:42Z</time>
      </trkpt>
      <trkpt lat="48.66735" lon="6.09131">
        <ele>371</ele>
        <time>2013-07-06T11:19:44Z</time>
      </trkpt>
      <trkpt lat="48.66741" lon="6.09129">
        <ele>372</ele>
        <time>2013-07-06T11:19:46Z</time>
      </trkpt>
      <trkpt lat="48.66747" lon="6.09127">
        <ele>372</ele>
        <time>2013-07-06T11:19:48Z</time>
      </trkpt>
      <trkpt lat="48.6675" lon="6.09125">
        <ele>372</ele>
        <time>2013-07-06T11:19:49Z</time>
      </trkpt>
      <trkpt lat="48.66753" lon="6.09123">
        <ele>372</ele>
        <time>2013-07-06T11:19:50Z</time>
      </trkpt>
      <trkpt lat="48.6676" lon="6.09122">
        <ele>373</ele>
        <time>2013-07-06T11:19:52Z</time>
      </trkpt>
      <trkpt lat="48.66766" lon="6.09121">
        <ele>373</ele>
        <time>2013-07-06T11:19:54Z</time>
      </trkpt>
      <trkpt lat="48.66772" lon="6.0912">
        <ele>374</ele>
        <time>2013-07-06T11:19:56Z</time>
      </trkpt>
      <trkpt lat="48.66778" lon="6.09119">
        <ele>374</ele>
        <time>2013-07-06T11:19:58Z</time>
      </trkpt>
      <trkpt lat="48.66783" lon="6.0912">
        <ele>376</ele>
        <time>2013-07-06T11:20:00Z</time>
      </trkpt>
      <trkpt lat="48.66788" lon="6.09123">
        <ele>375</ele>
        <time>2013-07-06T11:20:02Z</time>
      </trkpt>
      <trkpt lat="48.66793" lon="6.09122">
        <ele>379</ele>
        <time>2013-07-06T11:20:04Z</time>
      </trkpt>
      <trkpt lat="48.66798" lon="6.09123">
        <ele>379</ele>
        <time>2013-07-06T11:20:06Z</time>
      </trkpt>
      <trkpt lat="48.66803" lon="6.09125">
        <ele>379</ele>
        <time>2013-07-06T11:20:08Z</time>
      </trkpt>
      <trkpt lat="48.66808" lon="6.09127">
        <ele>380</ele>
        <time>2013-07-06T11:20:10Z</time>
      </trkpt>
      <trkpt lat="48.66813" lon="6.0913">
        <ele>379</ele>
        <time>2013-07-06T11:20:12Z</time>
      </trkpt>
      <trkpt lat="48.66817" lon="6.09134">
        <ele>377</ele>
        <time>2013-07-06T11:20:14Z</time>
      </trkpt>
      <trkpt lat="48.6682" lon="6.09139">
        <ele>374</ele>
        <time>2013-07-06T11:20:16Z</time>
      </trkpt>
      <trkpt lat="48.66824" lon="6.09147">
        <ele>371</ele>
        <time>2013-07-06T11:20:18Z</time>
      </trkpt>
      <trkpt lat="48.66826" lon="6.09156">
        <ele>368</ele>
        <time>2013-07-06T11:20:20Z</time>
      </trkpt>
      <trkpt lat="48.66827" lon="6.09163">
        <ele>367</ele>
        <time>2013-07-06T11:20:22Z</time>
      </trkpt>
      <trkpt lat="48.66828" lon="6.0917">
        <ele>367</ele>
        <time>2013-07-06T11:20:24Z</time>
      </trkpt>
      <trkpt lat="48.66827" lon="6.09176">
        <ele>362</ele>
        <time>2013-07-06T11:20:26Z</time>
      </trkpt>
      <trkpt lat="48.66827" lon="6.09183">
        <ele>361</ele>
        <time>2013-07-06T11:20:28Z</time>
      </trkpt>
      <trkpt lat="48.66827" lon="6.09187">
        <ele>359</ele>
        <time>2013-07-06T11:20:30Z</time>
      </trkpt>
      <trkpt lat="48.66823" lon="6.09196">
        <ele>362</ele>
        <time>2013-07-06T11:20:34Z</time>
      </trkpt>
      <trkpt lat="48.66822" lon="6.09199">
        <ele>362</ele>
        <time>2013-07-06T11:20:35Z</time>
      </trkpt>
      <trkpt lat="48.6682" lon="6.09202">
        <ele>361</ele>
        <time>2013-07-06T11:20:36Z</time>
      </trkpt>
      <trkpt lat="48.66817" lon="6.09209">
        <ele>361</ele>
        <time>2013-07-06T11:20:38Z</time>
      </trkpt>
      <trkpt lat="48.66813" lon="6.09213">
        <ele>362</ele>
        <time>2013-07-06T11:20:40Z</time>
      </trkpt>
      <trkpt lat="48.6681" lon="6.09218">
        <ele>362</ele>
        <time>2013-07-06T11:20:42Z</time>
      </trkpt>
      <trkpt lat="48.66807" lon="6.09224">
        <ele>362</ele>
        <time>2013-07-06T11:20:44Z</time>
      </trkpt>
      <trkpt lat="48.66805" lon="6.09231">
        <ele>364</ele>
        <time>2013-07-06T11:20:46Z</time>
      </trkpt>
      <trkpt lat="48.66803" lon="6.09238">
        <ele>364</ele>
        <time>2013-07-06T11:20:48Z</time>
      </trkpt>
      <trkpt lat="48.66801" lon="6.09244">
        <ele>364</ele>
        <time>2013-07-06T11:20:50Z</time>
      </trkpt>
      <trkpt lat="48.66799" lon="6.09249">
        <ele>368</ele>
        <time>2013-07-06T11:20:52Z</time>
      </trkpt>
      <trkpt lat="48.66798" lon="6.09253">
        <ele>369</ele>
        <time>2013-07-06T11:20:54Z</time>
      </trkpt>
      <trkpt lat="48.66795" lon="6.09258">
        <ele>367</ele>
        <time>2013-07-06T11:20:56Z</time>
      </trkpt>
      <trkpt lat="48.66791" lon="6.09261">
        <ele>365</ele>
        <time>2013-07-06T11:20:58Z</time>
      </trkpt>
      <trkpt lat="48.66787" lon="6.09264">
        <ele>363</ele>
        <time>2013-07-06T11:21:00Z</time>
      </trkpt>
      <trkpt lat="48.66783" lon="6.09269">
        <ele>363</ele>
        <time>2013-07-06T11:21:02Z</time>
      </trkpt>
      <trkpt lat="48.6678" lon="6.09273">
        <ele>364</ele>
        <time>2013-07-06T11:21:04Z</time>
      </trkpt>
      <trkpt lat="48.66776" lon="6.09277">
        <ele>365</ele>
        <time>2013-07-06T11:21:06Z</time>
      </trkpt>
      <trkpt lat="48.66774" lon="6.09282">
        <ele>365</ele>
        <time>2013-07-06T11:21:08Z</time>
      </trkpt>
      <trkpt lat="48.66771" lon="6.09287">
        <ele>366</ele>
        <time>2013-07-06T11:21:10Z</time>
      </trkpt>
      <trkpt lat="48.66768" lon="6.09292">
        <ele>366</ele>
        <time>2013-07-06T11:21:12Z</time>
      </trkpt>
      <trkpt lat="48.66765" lon="6.09296">
        <ele>368</ele>
        <time>2013-07-06T11:21:14Z</time>
      </trkpt>
      <trkpt lat="48.66764" lon="6.093">
        <ele>368</ele>
        <time>2013-07-06T11:21:16Z</time>
      </trkpt>
      <trkpt lat="48.66763" lon="6.09305">
        <ele>371</ele>
        <time>2013-07-06T11:21:18Z</time>
      </trkpt>
      <trkpt lat="48.66763" lon="6.0931">
        <ele>377</ele>
        <time>2013-07-06T11:21:20Z</time>
      </trkpt>
      <trkpt lat="48.66762" lon="6.09315">
        <ele>377</ele>
        <time>2013-07-06T11:21:22Z</time>
      </trkpt>
      <trkpt lat="48.66762" lon="6.0932">
        <ele>376</ele>
        <time>2013-07-06T11:21:24Z</time>
      </trkpt>
      <trkpt lat="48.66761" lon="6.09326">
        <ele>375</ele>
        <time>2013-07-06T11:21:26Z</time>
      </trkpt>
      <trkpt lat="48.66761" lon="6.09332">
        <ele>376</ele>
        <time>2013-07-06T11:21:28Z</time>
      </trkpt>
      <trkpt lat="48.6676" lon="6.0934">
        <ele>381</ele>
        <time>2013-07-06T11:21:30Z</time>
      </trkpt>
      <trkpt lat="48.66759" lon="6.09348">
        <ele>379</ele>
        <time>2013-07-06T11:21:32Z</time>
      </trkpt>
      <trkpt lat="48.66758" lon="6.09356">
        <ele>376</ele>
        <time>2013-07-06T11:21:34Z</time>
      </trkpt>
      <trkpt lat="48.66759" lon="6.09364">
        <ele>375</ele>
        <time>2013-07-06T11:21:36Z</time>
      </trkpt>
      <trkpt lat="48.66758" lon="6.09382">
        <ele>373</ele>
        <time>2013-07-06T11:21:40Z</time>
      </trkpt>
      <trkpt lat="48.66758" lon="6.09387">
        <ele>372</ele>
        <time>2013-07-06T11:21:41Z</time>
      </trkpt>
      <trkpt lat="48.66759" lon="6.09392">
        <ele>372</ele>
        <time>2013-07-06T11:21:42Z</time>
      </trkpt>
      <trkpt lat="48.66759" lon="6.09402">
        <ele>369</ele>
        <time>2013-07-06T11:21:44Z</time>
      </trkpt>
      <trkpt lat="48.6676" lon="6.09412">
        <ele>368</ele>
        <time>2013-07-06T11:21:46Z</time>
      </trkpt>
      <trkpt lat="48.66759" lon="6.09421">
        <ele>364</ele>
        <time>2013-07-06T11:21:48Z</time>
      </trkpt>
      <trkpt lat="48.66759" lon="6.09431">
        <ele>363</ele>
        <time>2013-07-06T11:21:50Z</time>
      </trkpt>
      <trkpt lat="48.66757" lon="6.09441">
        <ele>362</ele>
        <time>2013-07-06T11:21:52Z</time>
      </trkpt>
      <trkpt lat="48.66757" lon="6.09449">
        <ele>361</ele>
        <time>2013-07-06T11:21:54Z</time>
      </trkpt>
      <trkpt lat="48.66756" lon="6.09459">
        <ele>363</ele>
        <time>2013-07-06T11:21:56Z</time>
      </trkpt>
      <trkpt lat="48.66755" lon="6.09469">
        <ele>363</ele>
        <time>2013-07-06T11:21:58Z</time>
      </trkpt>
      <trkpt lat="48.66754" lon="6.0948">
        <ele>364</ele>
        <time>2013-07-06T11:22:00Z</time>
      </trkpt>
      <trkpt lat="48.66754" lon="6.09489">
        <ele>364</ele>
        <time>2013-07-06T11:22:02Z</time>
      </trkpt>
      <trkpt lat="48.66753" lon="6.09497">
        <ele>365</ele>
        <time>2013-07-06T11:22:04Z</time>
      </trkpt>
      <trkpt lat="48.66752" lon="6.09505">
        <ele>366</ele>
        <time>2013-07-06T11:22:06Z</time>
      </trkpt>
      <trkpt lat="48.66754" lon="6.09515">
        <ele>370</ele>
        <time>2013-07-06T11:22:08Z</time>
      </trkpt>
      <trkpt lat="48.66755" lon="6.09527">
        <ele>373</ele>
        <time>2013-07-06T11:22:10Z</time>
      </trkpt>
      <trkpt lat="48.66756" lon="6.09539">
        <ele>372</ele>
        <time>2013-07-06T11:22:12Z</time>
      </trkpt>
      <trkpt lat="48.66755" lon="6.09548">
        <ele>372</ele>
        <time>2013-07-06T11:22:14Z</time>
      </trkpt>
      <trkpt lat="48.66755" lon="6.09556">
        <ele>375</ele>
        <time>2013-07-06T11:22:16Z</time>
      </trkpt>
      <trkpt lat="48.66755" lon="6.09565">
        <ele>380</ele>
        <time>2013-07-06T11:22:18Z</time>
      </trkpt>
      <trkpt lat="48.66755" lon="6.09576">
        <ele>378</ele>
        <time>2013-07-06T11:22:20Z</time>
      </trkpt>
      <trkpt lat="48.66755" lon="6.09587">
        <ele>377</ele>
        <time>2013-07-06T11:22:22Z</time>
      </trkpt>
      <trkpt lat="48.66755" lon="6.096">
        <ele>375</ele>
        <time>2013-07-06T11:22:24Z</time>
      </trkpt>
      <trkpt lat="48.66755" lon="6.09612">
        <ele>375</ele>
        <time>2013-07-06T11:22:26Z</time>
      </trkpt>
      <trkpt lat="48.66756" lon="6.09624">
        <ele>374</ele>
        <time>2013-07-06T11:22:28Z</time>
      </trkpt>
      <trkpt lat="48.66758" lon="6.09637">
        <ele>373</ele>
        <time>2013-07-06T11:22:30Z</time>
      </trkpt>
      <trkpt lat="48.66758" lon="6.09652">
        <ele>371</ele>
        <time>2013-07-06T11:22:32Z</time>
      </trkpt>
      <trkpt lat="48.66757" lon="6.09668">
        <ele>370</ele>
        <time>2013-07-06T11:22:34Z</time>
      </trkpt>
      <trkpt lat="48.66755" lon="6.09683">
        <ele>367</ele>
        <time>2013-07-06T11:22:36Z</time>
      </trkpt>
      <trkpt lat="48.66756" lon="6.09697">
        <ele>365</ele>
        <time>2013-07-06T11:22:38Z</time>
      </trkpt>
      <trkpt lat="48.66755" lon="6.09712">
        <ele>364</ele>
        <time>2013-07-06T11:22:40Z</time>
      </trkpt>
      <trkpt lat="48.66755" lon="6.09727">
        <ele>362</ele>
        <time>2013-07-06T11:22:42Z</time>
      </trkpt>
      <trkpt lat="48.66755" lon="6.09742">
        <ele>362</ele>
        <time>2013-07-06T11:22:44Z</time>
      </trkpt>
      <trkpt lat="48.66755" lon="6.09755">
        <ele>362</ele>
        <time>2013-07-06T11:22:46Z</time>
      </trkpt>
      <trkpt lat="48.66755" lon="6.0977">
        <ele>361</ele>
        <time>2013-07-06T11:22:48Z</time>
      </trkpt>
      <trkpt lat="48.66755" lon="6.09784">
        <ele>361</ele>
        <time>2013-07-06T11:22:50Z</time>
      </trkpt>
      <trkpt lat="48.66754" lon="6.09797">
        <ele>361</ele>
        <time>2013-07-06T11:22:52Z</time>
      </trkpt>
      <trkpt lat="48.66754" lon="6.0981">
        <ele>362</ele>
        <time>2013-07-06T11:22:54Z</time>
      </trkpt>
      <trkpt lat="48.66756" lon="6.09824">
        <ele>360</ele>
        <time>2013-07-06T11:22:56Z</time>
      </trkpt>
      <trkpt lat="48.66757" lon="6.09837">
        <ele>363</ele>
        <time>2013-07-06T11:22:58Z</time>
      </trkpt>
      <trkpt lat="48.66757" lon="6.09851">
        <ele>366</ele>
        <time>2013-07-06T11:23:00Z</time>
      </trkpt>
      <trkpt lat="48.66756" lon="6.09864">
        <ele>366</ele>
        <time>2013-07-06T11:23:02Z</time>
      </trkpt>
      <trkpt lat="48.66756" lon="6.09876">
        <ele>366</ele>
        <time>2013-07-06T11:23:04Z</time>
      </trkpt>
      <trkpt lat="48.66756" lon="6.09889">
        <ele>368</ele>
        <time>2013-07-06T11:23:06Z</time>
      </trkpt>
      <trkpt lat="48.66756" lon="6.09901">
        <ele>368</ele>
        <time>2013-07-06T11:23:08Z</time>
      </trkpt>
      <trkpt lat="48.66756" lon="6.09914">
        <ele>370</ele>
        <time>2013-07-06T11:23:10Z</time>
      </trkpt>
      <trkpt lat="48.66755" lon="6.09929">
        <ele>371</ele>
        <time>2013-07-06T11:23:12Z</time>
      </trkpt>
      <trkpt lat="48.66755" lon="6.09942">
        <ele>370</ele>
        <time>2013-07-06T11:23:14Z</time>
      </trkpt>
      <trkpt lat="48.66755" lon="6.09956">
        <ele>370</ele>
        <time>2013-07-06T11:23:16Z</time>
      </trkpt>
      <trkpt lat="48.66755" lon="6.09963">
        <ele>372</ele>
        <time>2013-07-06T11:23:17Z</time>
      </trkpt>
      <trkpt lat="48.66756" lon="6.09986">
        <ele>369</ele>
        <time>2013-07-06T11:23:20Z</time>
      </trkpt>
      <trkpt lat="48.66756" lon="6.1">
        <ele>369</ele>
        <time>2013-07-06T11:23:22Z</time>
      </trkpt>
      <trkpt lat="48.66757" lon="6.10014">
        <ele>368</ele>
        <time>2013-07-06T11:23:24Z</time>
      </trkpt>
      <trkpt lat="48.66757" lon="6.1003">
        <ele>369</ele>
        <time>2013-07-06T11:23:26Z</time>
      </trkpt>
      <trkpt lat="48.66759" lon="6.10045">
        <ele>368</ele>
        <time>2013-07-06T11:23:28Z</time>
      </trkpt>
      <trkpt lat="48.66761" lon="6.10073">
        <ele>374</ele>
        <time>2013-07-06T11:23:32Z</time>
      </trkpt>
      <trkpt lat="48.66761" lon="6.10087">
        <ele>378</ele>
        <time>2013-07-06T11:23:34Z</time>
      </trkpt>
      <trkpt lat="48.66762" lon="6.10101">
        <ele>376</ele>
        <time>2013-07-06T11:23:36Z</time>
      </trkpt>
      <trkpt lat="48.66761" lon="6.10118">
        <ele>377</ele>
        <time>2013-07-06T11:23:38Z</time>
      </trkpt>
      <trkpt lat="48.66761" lon="6.10136">
        <ele>374</ele>
        <time>2013-07-06T11:23:40Z</time>
      </trkpt>
      <trkpt lat="48.6676" lon="6.10155">
        <ele>374</ele>
        <time>2013-07-06T11:23:42Z</time>
      </trkpt>
      <trkpt lat="48.6676" lon="6.10175">
        <ele>373</ele>
        <time>2013-07-06T11:23:44Z</time>
      </trkpt>
      <trkpt lat="48.66761" lon="6.10195">
        <ele>373</ele>
        <time>2013-07-06T11:23:46Z</time>
      </trkpt>
      <trkpt lat="48.6676" lon="6.10217">
        <ele>371</ele>
        <time>2013-07-06T11:23:48Z</time>
      </trkpt>
      <trkpt lat="48.66759" lon="6.10239">
        <ele>371</ele>
        <time>2013-07-06T11:23:50Z</time>
      </trkpt>
      <trkpt lat="48.66758" lon="6.10264">
        <ele>367</ele>
        <time>2013-07-06T11:23:52Z</time>
      </trkpt>
      <trkpt lat="48.66758" lon="6.10288">
        <ele>366</ele>
        <time>2013-07-06T11:23:54Z</time>
      </trkpt>
      <trkpt lat="48.66757" lon="6.10312">
        <ele>367</ele>
        <time>2013-07-06T11:23:56Z</time>
      </trkpt>
      <trkpt lat="48.66756" lon="6.10337">
        <ele>367</ele>
        <time>2013-07-06T11:23:58Z</time>
      </trkpt>
      <trkpt lat="48.66756" lon="6.10361">
        <ele>367</ele>
        <time>2013-07-06T11:24:00Z</time>
      </trkpt>
      <trkpt lat="48.66757" lon="6.10387">
        <ele>369</ele>
        <time>2013-07-06T11:24:02Z</time>
      </trkpt>
      <trkpt lat="48.66758" lon="6.10412">
        <ele>370</ele>
        <time>2013-07-06T11:24:04Z</time>
      </trkpt>
      <trkpt lat="48.66759" lon="6.1044">
        <ele>368</ele>
        <time>2013-07-06T11:24:06Z</time>
      </trkpt>
      <trkpt lat="48.6676" lon="6.10471">
        <ele>371</ele>
        <time>2013-07-06T11:24:08Z</time>
      </trkpt>
      <trkpt lat="48.66759" lon="6.10506">
        <ele>370</ele>
        <time>2013-07-06T11:24:10Z</time>
      </trkpt>
      <trkpt lat="48.66758" lon="6.10538">
        <ele>368</ele>
        <time>2013-07-06T11:24:12Z</time>
      </trkpt>
      <trkpt lat="48.66757" lon="6.10567">
        <ele>368</ele>
        <time>2013-07-06T11:24:14Z</time>
      </trkpt>
      <trkpt lat="48.66756" lon="6.10594">
        <ele>368</ele>
        <time>2013-07-06T11:24:16Z</time>
      </trkpt>
      <trkpt lat="48.66753" lon="6.10643">
        <ele>368</ele>
        <time>2013-07-06T11:24:19Z</time>
      </trkpt>
      <trkpt lat="48.66751" lon="6.1066">
        <ele>368</ele>
        <time>2013-07-06T11:24:20Z</time>
      </trkpt>
      <trkpt lat="48.6675" lon="6.10693">
        <ele>368</ele>
        <time>2013-07-06T11:24:22Z</time>
      </trkpt>
      <trkpt lat="48.6675" lon="6.10723">
        <ele>366</ele>
        <time>2013-07-06T11:24:24Z</time>
      </trkpt>
      <trkpt lat="48.66751" lon="6.10754">
        <ele>366</ele>
        <time>2013-07-06T11:24:26Z</time>
      </trkpt>
      <trkpt lat="48.66752" lon="6.10784">
        <ele>366</ele>
        <time>2013-07-06T11:24:28Z</time>
      </trkpt>
      <trkpt lat="48.66752" lon="6.10815">
        <ele>363</ele>
        <time>2013-07-06T11:24:30Z</time>
      </trkpt>
      <trkpt lat="48.66751" lon="6.10847">
        <ele>359</ele>
        <time>2013-07-06T11:24:32Z</time>
      </trkpt>
      <trkpt lat="48.6675" lon="6.10879">
        <ele>359</ele>
        <time>2013-07-06T11:24:34Z</time>
      </trkpt>
      <trkpt lat="48.66748" lon="6.10909">
        <ele>360</ele>
        <time>2013-07-06T11:24:36Z</time>
      </trkpt>
      <trkpt lat="48.66749" lon="6.10937">
        <ele>358</ele>
        <time>2013-07-06T11:24:38Z</time>
      </trkpt>
      <trkpt lat="48.66749" lon="6.10965">
        <ele>359</ele>
        <time>2013-07-06T11:24:40Z</time>
      </trkpt>
      <trkpt lat="48.66751" lon="6.10996">
        <ele>360</ele>
        <time>2013-07-06T11:24:42Z</time>
      </trkpt>
      <trkpt lat="48.66751" lon="6.11026">
        <ele>357</ele>
        <time>2013-07-06T11:24:44Z</time>
      </trkpt>
      <trkpt lat="48.66753" lon="6.11052">
        <ele>355</ele>
        <time>2013-07-06T11:24:46Z</time>
      </trkpt>
      <trkpt lat="48.66752" lon="6.11081">
        <ele>353</ele>
        <time>2013-07-06T11:24:48Z</time>
      </trkpt>
      <trkpt lat="48.66752" lon="6.1111">
        <ele>353</ele>
        <time>2013-07-06T11:24:50Z</time>
      </trkpt>
      <trkpt lat="48.6675" lon="6.11131">
        <ele>351</ele>
        <time>2013-07-06T11:24:52Z</time>
      </trkpt>
      <trkpt lat="48.66742" lon="6.11141">
        <ele>349</ele>
        <time>2013-07-06T11:24:54Z</time>
      </trkpt>
      <trkpt lat="48.66733" lon="6.11148">
        <ele>348</ele>
        <time>2013-07-06T11:24:56Z</time>
      </trkpt>
      <trkpt lat="48.66718" lon="6.11158">
        <ele>347</ele>
        <time>2013-07-06T11:25:00Z</time>
      </trkpt>
      <trkpt lat="48.66709" lon="6.11159">
        <ele>346</ele>
        <time>2013-07-06T11:25:02Z</time>
      </trkpt>
      <trkpt lat="48.66705" lon="6.1116">
        <ele>345</ele>
        <time>2013-07-06T11:25:03Z</time>
      </trkpt>
      <trkpt lat="48.667" lon="6.11161">
        <ele>347</ele>
        <time>2013-07-06T11:25:04Z</time>
      </trkpt>
      <trkpt lat="48.66693" lon="6.11163">
        <ele>348</ele>
        <time>2013-07-06T11:25:06Z</time>
      </trkpt>
      <trkpt lat="48.66684" lon="6.11166">
        <ele>349</ele>
        <time>2013-07-06T11:25:08Z</time>
      </trkpt>
      <trkpt lat="48.66673" lon="6.11167">
        <ele>350</ele>
        <time>2013-07-06T11:25:10Z</time>
      </trkpt>
      <trkpt lat="48.66664" lon="6.11168">
        <ele>350</ele>
        <time>2013-07-06T11:25:12Z</time>
      </trkpt>
      <trkpt lat="48.66655" lon="6.11169">
        <ele>351</ele>
        <time>2013-07-06T11:25:14Z</time>
      </trkpt>
      <trkpt lat="48.66647" lon="6.11171">
        <ele>352</ele>
        <time>2013-07-06T11:25:16Z</time>
      </trkpt>
      <trkpt lat="48.66638" lon="6.11172">
        <ele>351</ele>
        <time>2013-07-06T11:25:18Z</time>
      </trkpt>
      <trkpt lat="48.66629" lon="6.11173">
        <ele>351</ele>
        <time>2013-07-06T11:25:20Z</time>
      </trkpt>
      <trkpt lat="48.6662" lon="6.11175">
        <ele>349</ele>
        <time>2013-07-06T11:25:22Z</time>
      </trkpt>
      <trkpt lat="48.66612" lon="6.11176">
        <ele>349</ele>
        <time>2013-07-06T11:25:24Z</time>
      </trkpt>
      <trkpt lat="48.66604" lon="6.11177">
        <ele>348</ele>
        <time>2013-07-06T11:25:26Z</time>
      </trkpt>
      <trkpt lat="48.66596" lon="6.11178">
        <ele>348</ele>
        <time>2013-07-06T11:25:28Z</time>
      </trkpt>
      <trkpt lat="48.66587" lon="6.11179">
        <ele>348</ele>
        <time>2013-07-06T11:25:30Z</time>
      </trkpt>
      <trkpt lat="48.66578" lon="6.11181">
        <ele>347</ele>
        <time>2013-07-06T11:25:32Z</time>
      </trkpt>
      <trkpt lat="48.66569" lon="6.11183">
        <ele>347</ele>
        <time>2013-07-06T11:25:34Z</time>
      </trkpt>
      <trkpt lat="48.66563" lon="6.11185">
        <ele>346</ele>
        <time>2013-07-06T11:25:36Z</time>
      </trkpt>
      <trkpt lat="48.66552" lon="6.11187">
        <ele>348</ele>
        <time>2013-07-06T11:25:38Z</time>
      </trkpt>
      <trkpt lat="48.66542" lon="6.11191">
        <ele>348</ele>
        <time>2013-07-06T11:25:40Z</time>
      </trkpt>
      <trkpt lat="48.66532" lon="6.11196">
        <ele>348</ele>
        <time>2013-07-06T11:25:42Z</time>
      </trkpt>
      <trkpt lat="48.66522" lon="6.112">
        <ele>349</ele>
        <time>2013-07-06T11:25:44Z</time>
      </trkpt>
      <trkpt lat="48.66511" lon="6.11202">
        <ele>352</ele>
        <time>2013-07-06T11:25:46Z</time>
      </trkpt>
      <trkpt lat="48.66499" lon="6.11204">
        <ele>348</ele>
        <time>2013-07-06T11:25:48Z</time>
      </trkpt>
      <trkpt lat="48.66489" lon="6.11208">
        <ele>350</ele>
        <time>2013-07-06T11:25:50Z</time>
      </trkpt>
      <trkpt lat="48.6648" lon="6.11212">
        <ele>351</ele>
        <time>2013-07-06T11:25:52Z</time>
      </trkpt>
      <trkpt lat="48.66472" lon="6.11211">
        <ele>355</ele>
        <time>2013-07-06T11:25:54Z</time>
      </trkpt>
      <trkpt lat="48.66464" lon="6.11211">
        <ele>354</ele>
        <time>2013-07-06T11:25:56Z</time>
      </trkpt>
      <trkpt lat="48.66456" lon="6.11212">
        <ele>353</ele>
        <time>2013-07-06T11:25:58Z</time>
      </trkpt>
      <trkpt lat="48.66451" lon="6.11214">
        <ele>354</ele>
        <time>2013-07-06T11:26:00Z</time>
      </trkpt>
      <trkpt lat="48.66443" lon="6.11218">
        <ele>352</ele>
        <time>2013-07-06T11:26:02Z</time>
      </trkpt>
      <trkpt lat="48.66435" lon="6.11221">
        <ele>352</ele>
        <time>2013-07-06T11:26:04Z</time>
      </trkpt>
      <trkpt lat="48.66427" lon="6.11223">
        <ele>355</ele>
        <time>2013-07-06T11:26:06Z</time>
      </trkpt>
      <trkpt lat="48.66421" lon="6.11226">
        <ele>358</ele>
        <time>2013-07-06T11:26:08Z</time>
      </trkpt>
      <trkpt lat="48.66414" lon="6.11227">
        <ele>358</ele>
        <time>2013-07-06T11:26:10Z</time>
      </trkpt>
      <trkpt lat="48.66406" lon="6.11229">
        <ele>356</ele>
        <time>2013-07-06T11:26:12Z</time>
      </trkpt>
      <trkpt lat="48.66396" lon="6.11229">
        <ele>356</ele>
        <time>2013-07-06T11:26:14Z</time>
      </trkpt>
      <trkpt lat="48.66389" lon="6.1123">
        <ele>357</ele>
        <time>2013-07-06T11:26:16Z</time>
      </trkpt>
      <trkpt lat="48.66385" lon="6.11232">
        <ele>358</ele>
        <time>2013-07-06T11:26:18Z</time>
      </trkpt>
      <trkpt lat="48.66378" lon="6.11236">
        <ele>360</ele>
        <time>2013-07-06T11:26:20Z</time>
      </trkpt>
      <trkpt lat="48.66372" lon="6.11237">
        <ele>361</ele>
        <time>2013-07-06T11:26:22Z</time>
      </trkpt>
      <trkpt lat="48.66364" lon="6.1124">
        <ele>360</ele>
        <time>2013-07-06T11:26:24Z</time>
      </trkpt>
      <trkpt lat="48.66356" lon="6.11242">
        <ele>361</ele>
        <time>2013-07-06T11:26:26Z</time>
      </trkpt>
      <trkpt lat="48.66348" lon="6.11245">
        <ele>361</ele>
        <time>2013-07-06T11:26:28Z</time>
      </trkpt>
      <trkpt lat="48.66337" lon="6.11243">
        <ele>355</ele>
        <time>2013-07-06T11:26:30Z</time>
      </trkpt>
      <trkpt lat="48.66326" lon="6.11244">
        <ele>355</ele>
        <time>2013-07-06T11:26:32Z</time>
      </trkpt>
      <trkpt lat="48.66317" lon="6.11247">
        <ele>356</ele>
        <time>2013-07-06T11:26:34Z</time>
      </trkpt>
      <trkpt lat="48.66307" lon="6.11249">
        <ele>357</ele>
        <time>2013-07-06T11:26:36Z</time>
      </trkpt>
      <trkpt lat="48.66299" lon="6.11249">
        <ele>357</ele>
        <time>2013-07-06T11:26:38Z</time>
      </trkpt>
      <trkpt lat="48.66292" lon="6.11251">
        <ele>361</ele>
        <time>2013-07-06T11:26:40Z</time>
      </trkpt>
      <trkpt lat="48.66287" lon="6.11253">
        <ele>357</ele>
        <time>2013-07-06T11:26:42Z</time>
      </trkpt>
      <trkpt lat="48.6628" lon="6.11255">
        <ele>366</ele>
        <time>2013-07-06T11:26:44Z</time>
      </trkpt>
      <trkpt lat="48.66273" lon="6.11256">
        <ele>364</ele>
        <time>2013-07-06T11:26:46Z</time>
      </trkpt>
      <trkpt lat="48.66266" lon="6.11255">
        <ele>361</ele>
        <time>2013-07-06T11:26:48Z</time>
      </trkpt>
      <trkpt lat="48.66255" lon="6.11252">
        <ele>360</ele>
        <time>2013-07-06T11:26:50Z</time>
      </trkpt>
      <trkpt lat="48.66245" lon="6.11246">
        <ele>358</ele>
        <time>2013-07-06T11:26:52Z</time>
      </trkpt>
      <trkpt lat="48.66235" lon="6.11242">
        <ele>358</ele>
        <time>2013-07-06T11:26:54Z</time>
      </trkpt>
      <trkpt lat="48.66221" lon="6.11229">
        <ele>357</ele>
        <time>2013-07-06T11:26:58Z</time>
      </trkpt>
      <trkpt lat="48.66212" lon="6.1122">
        <ele>356</ele>
        <time>2013-07-06T11:27:00Z</time>
      </trkpt>
      <trkpt lat="48.66205" lon="6.11213">
        <ele>357</ele>
        <time>2013-07-06T11:27:02Z</time>
      </trkpt>
      <trkpt lat="48.66197" lon="6.11205">
        <ele>351</ele>
        <time>2013-07-06T11:27:04Z</time>
      </trkpt>
      <trkpt lat="48.66189" lon="6.11201">
        <ele>353</ele>
        <time>2013-07-06T11:27:06Z</time>
      </trkpt>
      <trkpt lat="48.66182" lon="6.11199">
        <ele>352</ele>
        <time>2013-07-06T11:27:08Z</time>
      </trkpt>
      <trkpt lat="48.66176" lon="6.11201">
        <ele>353</ele>
        <time>2013-07-06T11:27:10Z</time>
      </trkpt>
      <trkpt lat="48.6617" lon="6.11207">
        <ele>353</ele>
        <time>2013-07-06T11:27:12Z</time>
      </trkpt>
      <trkpt lat="48.66165" lon="6.11215">
        <ele>351</ele>
        <time>2013-07-06T11:27:14Z</time>
      </trkpt>
      <trkpt lat="48.66161" lon="6.11225">
        <ele>349</ele>
        <time>2013-07-06T11:27:16Z</time>
      </trkpt>
      <trkpt lat="48.66158" lon="6.11236">
        <ele>347</ele>
        <time>2013-07-06T11:27:18Z</time>
      </trkpt>
      <trkpt lat="48.66155" lon="6.11246">
        <ele>344</ele>
        <time>2013-07-06T11:27:20Z</time>
      </trkpt>
      <trkpt lat="48.66152" lon="6.11254">
        <ele>343</ele>
        <time>2013-07-06T11:27:22Z</time>
      </trkpt>
      <trkpt lat="48.6615" lon="6.11261">
        <ele>345</ele>
        <time>2013-07-06T11:27:24Z</time>
      </trkpt>
      <trkpt lat="48.66147" lon="6.11268">
        <ele>349</ele>
        <time>2013-07-06T11:27:26Z</time>
      </trkpt>
      <trkpt lat="48.66143" lon="6.11274">
        <ele>350</ele>
        <time>2013-07-06T11:27:28Z</time>
      </trkpt>
      <trkpt lat="48.6614" lon="6.11282">
        <ele>351</ele>
        <time>2013-07-06T11:27:30Z</time>
      </trkpt>
      <trkpt lat="48.66136" lon="6.11287">
        <ele>356</ele>
        <time>2013-07-06T11:27:32Z</time>
      </trkpt>
      <trkpt lat="48.66131" lon="6.11295">
        <ele>354</ele>
        <time>2013-07-06T11:27:34Z</time>
      </trkpt>
      <trkpt lat="48.66127" lon="6.11302">
        <ele>352</ele>
        <time>2013-07-06T11:27:36Z</time>
      </trkpt>
      <trkpt lat="48.66121" lon="6.11309">
        <ele>351</ele>
        <time>2013-07-06T11:27:38Z</time>
      </trkpt>
      <trkpt lat="48.66116" lon="6.11316">
        <ele>354</ele>
        <time>2013-07-06T11:27:40Z</time>
      </trkpt>
      <trkpt lat="48.66109" lon="6.11324">
        <ele>354</ele>
        <time>2013-07-06T11:27:43Z</time>
      </trkpt>
      <trkpt lat="48.66098" lon="6.11333">
        <ele>354</ele>
        <time>2013-07-06T11:27:47Z</time>
      </trkpt>
      <trkpt lat="48.66091" lon="6.11338">
        <ele>355</ele>
        <time>2013-07-06T11:27:49Z</time>
      </trkpt>
      <trkpt lat="48.66083" lon="6.11343">
        <ele>357</ele>
        <time>2013-07-06T11:27:51Z</time>
      </trkpt>
      <trkpt lat="48.66076" lon="6.11347">
        <ele>357</ele>
        <time>2013-07-06T11:27:53Z</time>
      </trkpt>
      <trkpt lat="48.66071" lon="6.1135">
        <ele>356</ele>
        <time>2013-07-06T11:27:55Z</time>
      </trkpt>
      <trkpt lat="48.66065" lon="6.11353">
        <ele>359</ele>
        <time>2013-07-06T11:27:57Z</time>
      </trkpt>
      <trkpt lat="48.6606" lon="6.11357">
        <ele>360</ele>
        <time>2013-07-06T11:27:59Z</time>
      </trkpt>
      <trkpt lat="48.66052" lon="6.1136">
        <ele>359</ele>
        <time>2013-07-06T11:28:01Z</time>
      </trkpt>
      <trkpt lat="48.66045" lon="6.11364">
        <ele>356</ele>
        <time>2013-07-06T11:28:03Z</time>
      </trkpt>
      <trkpt lat="48.66038" lon="6.11365">
        <ele>356</ele>
        <time>2013-07-06T11:28:05Z</time>
      </trkpt>
      <trkpt lat="48.6603" lon="6.1137">
        <ele>354</ele>
        <time>2013-07-06T11:28:07Z</time>
      </trkpt>
      <trkpt lat="48.66022" lon="6.11373">
        <ele>352</ele>
        <time>2013-07-06T11:28:09Z</time>
      </trkpt>
      <trkpt lat="48.66015" lon="6.11379">
        <ele>353</ele>
        <time>2013-07-06T11:28:11Z</time>
      </trkpt>
      <trkpt lat="48.66009" lon="6.11384">
        <ele>355</ele>
        <time>2013-07-06T11:28:13Z</time>
      </trkpt>
      <trkpt lat="48.66001" lon="6.11387">
        <ele>354</ele>
        <time>2013-07-06T11:28:15Z</time>
      </trkpt>
      <trkpt lat="48.65994" lon="6.11391">
        <ele>352</ele>
        <time>2013-07-06T11:28:17Z</time>
      </trkpt>
      <trkpt lat="48.65986" lon="6.11394">
        <ele>352</ele>
        <time>2013-07-06T11:28:19Z</time>
      </trkpt>
      <trkpt lat="48.65977" lon="6.11399">
        <ele>351</ele>
        <time>2013-07-06T11:28:21Z</time>
      </trkpt>
      <trkpt lat="48.65968" lon="6.11407">
        <ele>351</ele>
        <time>2013-07-06T11:28:23Z</time>
      </trkpt>
      <trkpt lat="48.6596" lon="6.11416">
        <ele>351</ele>
        <time>2013-07-06T11:28:25Z</time>
      </trkpt>
      <trkpt lat="48.65951" lon="6.11426">
        <ele>351</ele>
        <time>2013-07-06T11:28:27Z</time>
      </trkpt>
      <trkpt lat="48.65942" lon="6.11438">
        <ele>350</ele>
        <time>2013-07-06T11:28:29Z</time>
      </trkpt>
      <trkpt lat="48.65933" lon="6.1145">
        <ele>353</ele>
        <time>2013-07-06T11:28:31Z</time>
      </trkpt>
      <trkpt lat="48.65923" lon="6.11465">
        <ele>350</ele>
        <time>2013-07-06T11:28:33Z</time>
      </trkpt>
      <trkpt lat="48.65913" lon="6.11476">
        <ele>352</ele>
        <time>2013-07-06T11:28:35Z</time>
      </trkpt>
      <trkpt lat="48.65903" lon="6.11482">
        <ele>350</ele>
        <time>2013-07-06T11:28:37Z</time>
      </trkpt>
      <trkpt lat="48.65893" lon="6.11483">
        <ele>350</ele>
        <time>2013-07-06T11:28:39Z</time>
      </trkpt>
      <trkpt lat="48.65887" lon="6.11482">
        <ele>351</ele>
        <time>2013-07-06T11:28:41Z</time>
      </trkpt>
      <trkpt lat="48.65881" lon="6.1148">
        <ele>349</ele>
        <time>2013-07-06T11:28:43Z</time>
      </trkpt>
      <trkpt lat="48.65874" lon="6.11477">
        <ele>346</ele>
        <time>2013-07-06T11:28:45Z</time>
      </trkpt>
      <trkpt lat="48.65869" lon="6.11474">
        <ele>348</ele>
        <time>2013-07-06T11:28:47Z</time>
      </trkpt>
      <trkpt lat="48.65866" lon="6.11477">
        <ele>349</ele>
        <time>2013-07-06T11:28:49Z</time>
      </trkpt>
      <trkpt lat="48.65865" lon="6.11481">
        <ele>347</ele>
        <time>2013-07-06T11:28:51Z</time>
      </trkpt>
      <trkpt lat="48.65869" lon="6.11491">
        <ele>347</ele>
        <time>2013-07-06T11:28:53Z</time>
      </trkpt>
      <trkpt lat="48.65871" lon="6.11503">
        <ele>346</ele>
        <time>2013-07-06T11:28:55Z</time>
      </trkpt>
      <trkpt lat="48.65872" lon="6.1152">
        <ele>344</ele>
        <time>2013-07-06T11:28:57Z</time>
      </trkpt>
      <trkpt lat="48.6587" lon="6.11537">
        <ele>343</ele>
        <time>2013-07-06T11:28:59Z</time>
      </trkpt>
      <trkpt lat="48.65869" lon="6.11554">
        <ele>342</ele>
        <time>2013-07-06T11:29:01Z</time>
      </trkpt>
      <trkpt lat="48.65871" lon="6.11569">
        <ele>343</ele>
        <time>2013-07-06T11:29:03Z</time>
      </trkpt>
      <trkpt lat="48.65874" lon="6.11586">
        <ele>341</ele>
        <time>2013-07-06T11:29:05Z</time>
      </trkpt>
      <trkpt lat="48.65876" lon="6.11602">
        <ele>342</ele>
        <time>2013-07-06T11:29:07Z</time>
      </trkpt>
      <trkpt lat="48.65878" lon="6.11619">
        <ele>342</ele>
        <time>2013-07-06T11:29:09Z</time>
      </trkpt>
      <trkpt lat="48.65881" lon="6.11638">
        <ele>341</ele>
        <time>2013-07-06T11:29:11Z</time>
      </trkpt>
      <trkpt lat="48.65883" lon="6.11658">
        <ele>341</ele>
        <time>2013-07-06T11:29:13Z</time>
      </trkpt>
      <trkpt lat="48.65884" lon="6.11678">
        <ele>340</ele>
        <time>2013-07-06T11:29:15Z</time>
      </trkpt>
      <trkpt lat="48.65885" lon="6.11698">
        <ele>338</ele>
        <time>2013-07-06T11:29:17Z</time>
      </trkpt>
      <trkpt lat="48.65887" lon="6.11717">
        <ele>338</ele>
        <time>2013-07-06T11:29:19Z</time>
      </trkpt>
      <trkpt lat="48.65889" lon="6.11735">
        <ele>337</ele>
        <time>2013-07-06T11:29:21Z</time>
      </trkpt>
      <trkpt lat="48.6589" lon="6.11753">
        <ele>337</ele>
        <time>2013-07-06T11:29:23Z</time>
      </trkpt>
      <trkpt lat="48.65891" lon="6.11768">
        <ele>340</ele>
        <time>2013-07-06T11:29:25Z</time>
      </trkpt>
      <trkpt lat="48.65891" lon="6.11783">
        <ele>337</ele>
        <time>2013-07-06T11:29:27Z</time>
      </trkpt>
      <trkpt lat="48.6589" lon="6.11795">
        <ele>334</ele>
        <time>2013-07-06T11:29:29Z</time>
      </trkpt>
      <trkpt lat="48.65889" lon="6.11804">
        <ele>335</ele>
        <time>2013-07-06T11:29:31Z</time>
      </trkpt>
      <trkpt lat="48.65889" lon="6.11808">
        <ele>336</ele>
        <time>2013-07-06T11:29:33Z</time>
      </trkpt>
      <trkpt lat="48.6589" lon="6.11812">
        <ele>339</ele>
        <time>2013-07-06T11:29:35Z</time>
      </trkpt>
      <trkpt lat="48.65889" lon="6.11817">
        <ele>339</ele>
        <time>2013-07-06T11:29:37Z</time>
      </trkpt>
      <trkpt lat="48.65889" lon="6.11823">
        <ele>338</ele>
        <time>2013-07-06T11:29:39Z</time>
      </trkpt>
      <trkpt lat="48.65887" lon="6.11836">
        <ele>344</ele>
        <time>2013-07-06T11:29:43Z</time>
      </trkpt>
      <trkpt lat="48.65885" lon="6.11843">
        <ele>349</ele>
        <time>2013-07-06T11:29:45Z</time>
      </trkpt>
      <trkpt lat="48.65883" lon="6.1185">
        <ele>345</ele>
        <time>2013-07-06T11:29:47Z</time>
      </trkpt>
      <trkpt lat="48.65882" lon="6.11856">
        <ele>345</ele>
        <time>2013-07-06T11:29:49Z</time>
      </trkpt>
      <trkpt lat="48.6588" lon="6.11863">
        <ele>345</ele>
        <time>2013-07-06T11:29:51Z</time>
      </trkpt>
      <trkpt lat="48.65878" lon="6.11869">
        <ele>347</ele>
        <time>2013-07-06T11:29:53Z</time>
      </trkpt>
      <trkpt lat="48.65876" lon="6.11875">
        <ele>348</ele>
        <time>2013-07-06T11:29:55Z</time>
      </trkpt>
      <trkpt lat="48.65875" lon="6.11882">
        <ele>353</ele>
        <time>2013-07-06T11:29:57Z</time>
      </trkpt>
      <trkpt lat="48.65873" lon="6.11889">
        <ele>356</ele>
        <time>2013-07-06T11:29:59Z</time>
      </trkpt>
      <trkpt lat="48.6587" lon="6.11898">
        <ele>357</ele>
        <time>2013-07-06T11:30:01Z</time>
      </trkpt>
      <trkpt lat="48.65864" lon="6.11915">
        <ele>357</ele>
        <time>2013-07-06T11:30:05Z</time>
      </trkpt>
      <trkpt lat="48.65861" lon="6.11923">
        <ele>356</ele>
        <time>2013-07-06T11:30:07Z</time>
      </trkpt>
      <trkpt lat="48.65858" lon="6.1193">
        <ele>355</ele>
        <time>2013-07-06T11:30:09Z</time>
      </trkpt>
      <trkpt lat="48.65856" lon="6.11937">
        <ele>355</ele>
        <time>2013-07-06T11:30:11Z</time>
      </trkpt>
      <trkpt lat="48.65854" lon="6.11943">
        <ele>355</ele>
        <time>2013-07-06T11:30:13Z</time>
      </trkpt>
      <trkpt lat="48.65852" lon="6.1195">
        <ele>355</ele>
        <time>2013-07-06T11:30:15Z</time>
      </trkpt>
      <trkpt lat="48.6585" lon="6.11958">
        <ele>353</ele>
        <time>2013-07-06T11:30:17Z</time>
      </trkpt>
      <trkpt lat="48.65849" lon="6.11967">
        <ele>352</ele>
        <time>2013-07-06T11:30:19Z</time>
      </trkpt>
      <trkpt lat="48.65846" lon="6.11982">
        <ele>353</ele>
        <time>2013-07-06T11:30:23Z</time>
      </trkpt>
      <trkpt lat="48.65842" lon="6.11995">
        <ele>356</ele>
        <time>2013-07-06T11:30:27Z</time>
      </trkpt>
      <trkpt lat="48.65841" lon="6.12">
        <ele>363</ele>
        <time>2013-07-06T11:30:29Z</time>
      </trkpt>
      <trkpt lat="48.65839" lon="6.12007">
        <ele>361</ele>
        <time>2013-07-06T11:30:31Z</time>
      </trkpt>
      <trkpt lat="48.65838" lon="6.12015">
        <ele>364</ele>
        <time>2013-07-06T11:30:33Z</time>
      </trkpt>
      <trkpt lat="48.65837" lon="6.12025">
        <ele>364</ele>
        <time>2013-07-06T11:30:35Z</time>
      </trkpt>
      <trkpt lat="48.65837" lon="6.12034">
        <ele>361</ele>
        <time>2013-07-06T11:30:37Z</time>
      </trkpt>
      <trkpt lat="48.65837" lon="6.12042">
        <ele>363</ele>
        <time>2013-07-06T11:30:39Z</time>
      </trkpt>
      <trkpt lat="48.65838" lon="6.12062">
        <ele>364</ele>
        <time>2013-07-06T11:30:45Z</time>
      </trkpt>
      <trkpt lat="48.65839" lon="6.12071">
        <ele>369</ele>
        <time>2013-07-06T11:30:47Z</time>
      </trkpt>
      <trkpt lat="48.65841" lon="6.12081">
        <ele>371</ele>
        <time>2013-07-06T11:30:49Z</time>
      </trkpt>
      <trkpt lat="48.65843" lon="6.1209">
        <ele>372</ele>
        <time>2013-07-06T11:30:51Z</time>
      </trkpt>
      <trkpt lat="48.65845" lon="6.12099">
        <ele>365</ele>
        <time>2013-07-06T11:30:53Z</time>
      </trkpt>
      <trkpt lat="48.65846" lon="6.12107">
        <ele>363</ele>
        <time>2013-07-06T11:30:55Z</time>
      </trkpt>
      <trkpt lat="48.65848" lon="6.12115">
        <ele>360</ele>
        <time>2013-07-06T11:30:57Z</time>
      </trkpt>
      <trkpt lat="48.65849" lon="6.12124">
        <ele>360</ele>
        <time>2013-07-06T11:30:59Z</time>
      </trkpt>
      <trkpt lat="48.65851" lon="6.12133">
        <ele>358</ele>
        <time>2013-07-06T11:31:01Z</time>
      </trkpt>
      <trkpt lat="48.65853" lon="6.12142">
        <ele>356</ele>
        <time>2013-07-06T11:31:03Z</time>
      </trkpt>
      <trkpt lat="48.65854" lon="6.12149">
        <ele>357</ele>
        <time>2013-07-06T11:31:05Z</time>
      </trkpt>
      <trkpt lat="48.65855" lon="6.12157">
        <ele>360</ele>
        <time>2013-07-06T11:31:07Z</time>
      </trkpt>
      <trkpt lat="48.65857" lon="6.12164">
        <ele>362</ele>
        <time>2013-07-06T11:31:09Z</time>
      </trkpt>
      <trkpt lat="48.65858" lon="6.12172">
        <ele>363</ele>
        <time>2013-07-06T11:31:11Z</time>
      </trkpt>
      <trkpt lat="48.6586" lon="6.12181">
        <ele>364</ele>
        <time>2013-07-06T11:31:13Z</time>
      </trkpt>
      <trkpt lat="48.65863" lon="6.1219">
        <ele>365</ele>
        <time>2013-07-06T11:31:15Z</time>
      </trkpt>
      <trkpt lat="48.65866" lon="6.12198">
        <ele>369</ele>
        <time>2013-07-06T11:31:17Z</time>
      </trkpt>
      <trkpt lat="48.65868" lon="6.12206">
        <ele>367</ele>
        <time>2013-07-06T11:31:19Z</time>
      </trkpt>
      <trkpt lat="48.65871" lon="6.12216">
        <ele>366</ele>
        <time>2013-07-06T11:31:21Z</time>
      </trkpt>
      <trkpt lat="48.65873" lon="6.12224">
        <ele>371</ele>
        <time>2013-07-06T11:31:23Z</time>
      </trkpt>
      <trkpt lat="48.65876" lon="6.12232">
        <ele>372</ele>
        <time>2013-07-06T11:31:25Z</time>
      </trkpt>
      <trkpt lat="48.65877" lon="6.12243">
        <ele>372</ele>
        <time>2013-07-06T11:31:27Z</time>
      </trkpt>
      <trkpt lat="48.65879" lon="6.12252">
        <ele>372</ele>
        <time>2013-07-06T11:31:29Z</time>
      </trkpt>
      <trkpt lat="48.65881" lon="6.12261">
        <ele>372</ele>
        <time>2013-07-06T11:31:31Z</time>
      </trkpt>
      <trkpt lat="48.65881" lon="6.1227">
        <ele>371</ele>
        <time>2013-07-06T11:31:33Z</time>
      </trkpt>
      <trkpt lat="48.65883" lon="6.1228">
        <ele>372</ele>
        <time>2013-07-06T11:31:35Z</time>
      </trkpt>
      <trkpt lat="48.65884" lon="6.12289">
        <ele>371</ele>
        <time>2013-07-06T11:31:37Z</time>
      </trkpt>
      <trkpt lat="48.65887" lon="6.12298">
        <ele>370</ele>
        <time>2013-07-06T11:31:39Z</time>
      </trkpt>
      <trkpt lat="48.65888" lon="6.12307">
        <ele>368</ele>
        <time>2013-07-06T11:31:41Z</time>
      </trkpt>
      <trkpt lat="48.6589" lon="6.12315">
        <ele>369</ele>
        <time>2013-07-06T11:31:43Z</time>
      </trkpt>
      <trkpt lat="48.65894" lon="6.1233">
        <ele>376</ele>
        <time>2013-07-06T11:31:47Z</time>
      </trkpt>
      <trkpt lat="48.65896" lon="6.12338">
        <ele>377</ele>
        <time>2013-07-06T11:31:49Z</time>
      </trkpt>
      <trkpt lat="48.65899" lon="6.12347">
        <ele>381</ele>
        <time>2013-07-06T11:31:51Z</time>
      </trkpt>
      <trkpt lat="48.65903" lon="6.12355">
        <ele>383</ele>
        <time>2013-07-06T11:31:53Z</time>
      </trkpt>
      <trkpt lat="48.65906" lon="6.12364">
        <ele>382</ele>
        <time>2013-07-06T11:31:55Z</time>
      </trkpt>
      <trkpt lat="48.6591" lon="6.12375">
        <ele>379</ele>
        <time>2013-07-06T11:31:57Z</time>
      </trkpt>
      <trkpt lat="48.65913" lon="6.12386">
        <ele>375</ele>
        <time>2013-07-06T11:31:59Z</time>
      </trkpt>
      <trkpt lat="48.65917" lon="6.12396">
        <ele>373</ele>
        <time>2013-07-06T11:32:01Z</time>
      </trkpt>
      <trkpt lat="48.6592" lon="6.12405">
        <ele>374</ele>
        <time>2013-07-06T11:32:03Z</time>
      </trkpt>
      <trkpt lat="48.65923" lon="6.12415">
        <ele>372</ele>
        <time>2013-07-06T11:32:05Z</time>
      </trkpt>
      <trkpt lat="48.65926" lon="6.12425">
        <ele>371</ele>
        <time>2013-07-06T11:32:07Z</time>
      </trkpt>
      <trkpt lat="48.65928" lon="6.12434">
        <ele>372</ele>
        <time>2013-07-06T11:32:09Z</time>
      </trkpt>
      <trkpt lat="48.65929" lon="6.12443">
        <ele>373</ele>
        <time>2013-07-06T11:32:11Z</time>
      </trkpt>
      <trkpt lat="48.65932" lon="6.12453">
        <ele>372</ele>
        <time>2013-07-06T11:32:13Z</time>
      </trkpt>
      <trkpt lat="48.65934" lon="6.12461">
        <ele>377</ele>
        <time>2013-07-06T11:32:15Z</time>
      </trkpt>
      <trkpt lat="48.65937" lon="6.12471">
        <ele>376</ele>
        <time>2013-07-06T11:32:17Z</time>
      </trkpt>
      <trkpt lat="48.65939" lon="6.1248">
        <ele>374</ele>
        <time>2013-07-06T11:32:19Z</time>
      </trkpt>
      <trkpt lat="48.65941" lon="6.1249">
        <ele>373</ele>
        <time>2013-07-06T11:32:21Z</time>
      </trkpt>
      <trkpt lat="48.65944" lon="6.12497">
        <ele>377</ele>
        <time>2013-07-06T11:32:23Z</time>
      </trkpt>
      <trkpt lat="48.65946" lon="6.12506">
        <ele>378</ele>
        <time>2013-07-06T11:32:25Z</time>
      </trkpt>
      <trkpt lat="48.65948" lon="6.12514">
        <ele>378</ele>
        <time>2013-07-06T11:32:27Z</time>
      </trkpt>
      <trkpt lat="48.65952" lon="6.12523">
        <ele>375</ele>
        <time>2013-07-06T11:32:29Z</time>
      </trkpt>
      <trkpt lat="48.65955" lon="6.12532">
        <ele>374</ele>
        <time>2013-07-06T11:32:31Z</time>
      </trkpt>
      <trkpt lat="48.65958" lon="6.1254">
        <ele>372</ele>
        <time>2013-07-06T11:32:33Z</time>
      </trkpt>
      <trkpt lat="48.65962" lon="6.1255">
        <ele>370</ele>
        <time>2013-07-06T11:32:35Z</time>
      </trkpt>
      <trkpt lat="48.65966" lon="6.12559">
        <ele>369</ele>
        <time>2013-07-06T11:32:37Z</time>
      </trkpt>
      <trkpt lat="48.6597" lon="6.12568">
        <ele>369</ele>
        <time>2013-07-06T11:32:39Z</time>
      </trkpt>
      <trkpt lat="48.65971" lon="6.12573">
        <ele>373</ele>
        <time>2013-07-06T11:32:41Z</time>
      </trkpt>
      <trkpt lat="48.65977" lon="6.12583">
        <ele>376</ele>
        <time>2013-07-06T11:32:43Z</time>
      </trkpt>
      <trkpt lat="48.65983" lon="6.12589">
        <ele>379</ele>
        <time>2013-07-06T11:32:45Z</time>
      </trkpt>
      <trkpt lat="48.65989" lon="6.12598">
        <ele>376</ele>
        <time>2013-07-06T11:32:47Z</time>
      </trkpt>
      <trkpt lat="48.65996" lon="6.12607">
        <ele>373</ele>
        <time>2013-07-06T11:32:49Z</time>
      </trkpt>
      <trkpt lat="48.66002" lon="6.12616">
        <ele>370</ele>
        <time>2013-07-06T11:32:51Z</time>
      </trkpt>
      <trkpt lat="48.66007" lon="6.12626">
        <ele>367</ele>
        <time>2013-07-06T11:32:53Z</time>
      </trkpt>
      <trkpt lat="48.66011" lon="6.12635">
        <ele>366</ele>
        <time>2013-07-06T11:32:55Z</time>
      </trkpt>
      <trkpt lat="48.66015" lon="6.12644">
        <ele>367</ele>
        <time>2013-07-06T11:32:57Z</time>
      </trkpt>
      <trkpt lat="48.66018" lon="6.12653">
        <ele>367</ele>
        <time>2013-07-06T11:32:59Z</time>
      </trkpt>
      <trkpt lat="48.66021" lon="6.12663">
        <ele>366</ele>
        <time>2013-07-06T11:33:01Z</time>
      </trkpt>
      <trkpt lat="48.66025" lon="6.12673">
        <ele>365</ele>
        <time>2013-07-06T11:33:03Z</time>
      </trkpt>
      <trkpt lat="48.66028" lon="6.12682">
        <ele>368</ele>
        <time>2013-07-06T11:33:05Z</time>
      </trkpt>
      <trkpt lat="48.66031" lon="6.12692">
        <ele>366</ele>
        <time>2013-07-06T11:33:07Z</time>
      </trkpt>
      <trkpt lat="48.66035" lon="6.12702">
        <ele>368</ele>
        <time>2013-07-06T11:33:09Z</time>
      </trkpt>
      <trkpt lat="48.66038" lon="6.12712">
        <ele>368</ele>
        <time>2013-07-06T11:33:11Z</time>
      </trkpt>
      <trkpt lat="48.66042" lon="6.12723">
        <ele>367</ele>
        <time>2013-07-06T11:33:13Z</time>
      </trkpt>
      <trkpt lat="48.66045" lon="6.12734">
        <ele>367</ele>
        <time>2013-07-06T11:33:15Z</time>
      </trkpt>
      <trkpt lat="48.66048" lon="6.12744">
        <ele>366</ele>
        <time>2013-07-06T11:33:17Z</time>
      </trkpt>
      <trkpt lat="48.6605" lon="6.12756">
        <ele>364</ele>
        <time>2013-07-06T11:33:19Z</time>
      </trkpt>
      <trkpt lat="48.66052" lon="6.12768">
        <ele>366</ele>
        <time>2013-07-06T11:33:21Z</time>
      </trkpt>
      <trkpt lat="48.66054" lon="6.1278">
        <ele>366</ele>
        <time>2013-07-06T11:33:23Z</time>
      </trkpt>
      <trkpt lat="48.66056" lon="6.12791">
        <ele>366</ele>
        <time>2013-07-06T11:33:25Z</time>
      </trkpt>
      <trkpt lat="48.66059" lon="6.12802">
        <ele>369</ele>
        <time>2013-07-06T11:33:27Z</time>
      </trkpt>
      <trkpt lat="48.66061" lon="6.12814">
        <ele>370</ele>
        <time>2013-07-06T11:33:29Z</time>
      </trkpt>
      <trkpt lat="48.66063" lon="6.12826">
        <ele>371</ele>
        <time>2013-07-06T11:33:31Z</time>
      </trkpt>
      <trkpt lat="48.66065" lon="6.12838">
        <ele>369</ele>
        <time>2013-07-06T11:33:33Z</time>
      </trkpt>
      <trkpt lat="48.66068" lon="6.12851">
        <ele>367</ele>
        <time>2013-07-06T11:33:35Z</time>
      </trkpt>
      <trkpt lat="48.66071" lon="6.12862">
        <ele>370</ele>
        <time>2013-07-06T11:33:37Z</time>
      </trkpt>
      <trkpt lat="48.66073" lon="6.12874">
        <ele>371</ele>
        <time>2013-07-06T11:33:39Z</time>
      </trkpt>
      <trkpt lat="48.66075" lon="6.12884">
        <ele>376</ele>
        <time>2013-07-06T11:33:41Z</time>
      </trkpt>
      <trkpt lat="48.66077" lon="6.12898">
        <ele>374</ele>
        <time>2013-07-06T11:33:43Z</time>
      </trkpt>
      <trkpt lat="48.66079" lon="6.12911">
        <ele>377</ele>
        <time>2013-07-06T11:33:45Z</time>
      </trkpt>
      <trkpt lat="48.66081" lon="6.12923">
        <ele>377</ele>
        <time>2013-07-06T11:33:47Z</time>
      </trkpt>
      <trkpt lat="48.66085" lon="6.12931">
        <ele>376</ele>
        <time>2013-07-06T11:33:49Z</time>
      </trkpt>
      <trkpt lat="48.6609" lon="6.1294">
        <ele>374</ele>
        <time>2013-07-06T11:33:51Z</time>
      </trkpt>
      <trkpt lat="48.66094" lon="6.1295">
        <ele>373</ele>
        <time>2013-07-06T11:33:53Z</time>
      </trkpt>
      <trkpt lat="48.66098" lon="6.12962">
        <ele>374</ele>
        <time>2013-07-06T11:33:55Z</time>
      </trkpt>
      <trkpt lat="48.661" lon="6.12968">
        <ele>374</ele>
        <time>2013-07-06T11:33:56Z</time>
      </trkpt>
      <trkpt lat="48.66102" lon="6.12973">
        <ele>375</ele>
        <time>2013-07-06T11:33:57Z</time>
      </trkpt>
      <trkpt lat="48.66106" lon="6.12984">
        <ele>376</ele>
        <time>2013-07-06T11:33:59Z</time>
      </trkpt>
      <trkpt lat="48.66111" lon="6.12994">
        <ele>375</ele>
        <time>2013-07-06T11:34:01Z</time>
      </trkpt>
      <trkpt lat="48.66114" lon="6.13003">
        <ele>376</ele>
        <time>2013-07-06T11:34:03Z</time>
      </trkpt>
      <trkpt lat="48.66119" lon="6.13012">
        <ele>377</ele>
        <time>2013-07-06T11:34:05Z</time>
      </trkpt>
      <trkpt lat="48.66126" lon="6.13023">
        <ele>372</ele>
        <time>2013-07-06T11:34:07Z</time>
      </trkpt>
      <trkpt lat="48.66131" lon="6.13034">
        <ele>373</ele>
        <time>2013-07-06T11:34:09Z</time>
      </trkpt>
      <trkpt lat="48.66137" lon="6.13045">
        <ele>371</ele>
        <time>2013-07-06T11:34:11Z</time>
      </trkpt>
      <trkpt lat="48.66141" lon="6.13057">
        <ele>370</ele>
        <time>2013-07-06T11:34:13Z</time>
      </trkpt>
      <trkpt lat="48.66146" lon="6.13068">
        <ele>372</ele>
        <time>2013-07-06T11:34:15Z</time>
      </trkpt>
      <trkpt lat="48.6615" lon="6.13079">
        <ele>372</ele>
        <time>2013-07-06T11:34:17Z</time>
      </trkpt>
      <trkpt lat="48.66156" lon="6.13092">
        <ele>371</ele>
        <time>2013-07-06T11:34:19Z</time>
      </trkpt>
      <trkpt lat="48.66161" lon="6.13106">
        <ele>371</ele>
        <time>2013-07-06T11:34:21Z</time>
      </trkpt>
      <trkpt lat="48.66167" lon="6.13119">
        <ele>371</ele>
        <time>2013-07-06T11:34:23Z</time>
      </trkpt>
      <trkpt lat="48.66173" lon="6.13131">
        <ele>369</ele>
        <time>2013-07-06T11:34:25Z</time>
      </trkpt>
      <trkpt lat="48.66178" lon="6.13144">
        <ele>369</ele>
        <time>2013-07-06T11:34:27Z</time>
      </trkpt>
      <trkpt lat="48.66181" lon="6.13151">
        <ele>369</ele>
        <time>2013-07-06T11:34:28Z</time>
      </trkpt>
      <trkpt lat="48.66184" lon="6.13157">
        <ele>368</ele>
        <time>2013-07-06T11:34:29Z</time>
      </trkpt>
      <trkpt lat="48.6619" lon="6.13169">
        <ele>367</ele>
        <time>2013-07-06T11:34:31Z</time>
      </trkpt>
      <trkpt lat="48.66198" lon="6.13181">
        <ele>368</ele>
        <time>2013-07-06T11:34:33Z</time>
      </trkpt>
      <trkpt lat="48.66207" lon="6.13193">
        <ele>368</ele>
        <time>2013-07-06T11:34:35Z</time>
      </trkpt>
      <trkpt lat="48.66217" lon="6.13206">
        <ele>369</ele>
        <time>2013-07-06T11:34:37Z</time>
      </trkpt>
      <trkpt lat="48.66226" lon="6.13219">
        <ele>368</ele>
        <time>2013-07-06T11:34:39Z</time>
      </trkpt>
      <trkpt lat="48.66236" lon="6.13233">
        <ele>368</ele>
        <time>2013-07-06T11:34:41Z</time>
      </trkpt>
      <trkpt lat="48.66245" lon="6.13247">
        <ele>366</ele>
        <time>2013-07-06T11:34:43Z</time>
      </trkpt>
      <trkpt lat="48.66254" lon="6.1326">
        <ele>368</ele>
        <time>2013-07-06T11:34:45Z</time>
      </trkpt>
      <trkpt lat="48.66263" lon="6.13272">
        <ele>367</ele>
        <time>2013-07-06T11:34:47Z</time>
      </trkpt>
      <trkpt lat="48.66274" lon="6.13286">
        <ele>365</ele>
        <time>2013-07-06T11:34:49Z</time>
      </trkpt>
      <trkpt lat="48.66287" lon="6.13294">
        <ele>362</ele>
        <time>2013-07-06T11:34:51Z</time>
      </trkpt>
      <trkpt lat="48.66299" lon="6.13303">
        <ele>364</ele>
        <time>2013-07-06T11:34:53Z</time>
      </trkpt>
      <trkpt lat="48.66312" lon="6.13314">
        <ele>366</ele>
        <time>2013-07-06T11:34:55Z</time>
      </trkpt>
      <trkpt lat="48.66324" lon="6.13325">
        <ele>369</ele>
        <time>2013-07-06T11:34:57Z</time>
      </trkpt>
      <trkpt lat="48.66336" lon="6.13337">
        <ele>370</ele>
        <time>2013-07-06T11:34:59Z</time>
      </trkpt>
      <trkpt lat="48.6635" lon="6.13343">
        <ele>370</ele>
        <time>2013-07-06T11:35:01Z</time>
      </trkpt>
      <trkpt lat="48.6637" lon="6.13346">
        <ele>367</ele>
        <time>2013-07-06T11:35:03Z</time>
      </trkpt>
      <trkpt lat="48.6639" lon="6.1335">
        <ele>365</ele>
        <time>2013-07-06T11:35:05Z</time>
      </trkpt>
      <trkpt lat="48.66412" lon="6.13354">
        <ele>368</ele>
        <time>2013-07-06T11:35:07Z</time>
      </trkpt>
      <trkpt lat="48.66437" lon="6.13362">
        <ele>373</ele>
        <time>2013-07-06T11:35:09Z</time>
      </trkpt>
      <trkpt lat="48.66461" lon="6.13377">
        <ele>371</ele>
        <time>2013-07-06T11:35:11Z</time>
      </trkpt>
      <trkpt lat="48.66484" lon="6.13395">
        <ele>370</ele>
        <time>2013-07-06T11:35:13Z</time>
      </trkpt>
      <trkpt lat="48.66507" lon="6.13415">
        <ele>366</ele>
        <time>2013-07-06T11:35:15Z</time>
      </trkpt>
      <trkpt lat="48.66529" lon="6.13435">
        <ele>363</ele>
        <time>2013-07-06T11:35:17Z</time>
      </trkpt>
      <trkpt lat="48.66545" lon="6.1345">
        <ele>361</ele>
        <time>2013-07-06T11:35:19Z</time>
      </trkpt>
      <trkpt lat="48.66555" lon="6.1346">
        <ele>359</ele>
        <time>2013-07-06T11:35:21Z</time>
      </trkpt>
      <trkpt lat="48.66561" lon="6.13463">
        <ele>356</ele>
        <time>2013-07-06T11:35:23Z</time>
      </trkpt>
      <trkpt lat="48.66575" lon="6.1347">
        <ele>345</ele>
        <time>2013-07-06T11:35:25Z</time>
      </trkpt>
      <trkpt lat="48.66587" lon="6.13471">
        <ele>339</ele>
        <time>2013-07-06T11:35:27Z</time>
      </trkpt>
      <trkpt lat="48.66592" lon="6.13468">
        <ele>339</ele>
        <time>2013-07-06T11:35:29Z</time>
      </trkpt>
      <trkpt lat="48.66596" lon="6.13462">
        <ele>338</ele>
        <time>2013-07-06T11:35:31Z</time>
      </trkpt>
      <trkpt lat="48.666" lon="6.13452">
        <ele>342</ele>
        <time>2013-07-06T11:35:35Z</time>
      </trkpt>
      <trkpt lat="48.66608" lon="6.13446">
        <ele>346</ele>
        <time>2013-07-06T11:35:43Z</time>
      </trkpt>
      <trkpt lat="48.66616" lon="6.13438">
        <ele>344</ele>
        <time>2013-07-06T11:35:49Z</time>
      </trkpt>
      <trkpt lat="48.66639" lon="6.13415">
        <ele>349</ele>
        <time>2013-07-06T11:36:05Z</time>
      </trkpt>
      <trkpt lat="48.66659" lon="6.13366">
        <ele>347</ele>
        <time>2013-07-06T11:36:21Z</time>
      </trkpt>
      <trkpt lat="48.66662" lon="6.13362">
        <ele>347</ele>
        <time>2013-07-06T11:36:23Z</time>
      </trkpt>
      <trkpt lat="48.66665" lon="6.13354">
        <ele>343</ele>
        <time>2013-07-06T11:36:27Z</time>
      </trkpt>
      <trkpt lat="48.66667" lon="6.13349">
        <ele>345</ele>
        <time>2013-07-06T11:36:29Z</time>
      </trkpt>
      <trkpt lat="48.6667" lon="6.13344">
        <ele>351</ele>
        <time>2013-07-06T11:36:31Z</time>
      </trkpt>
      <trkpt lat="48.66674" lon="6.13341">
        <ele>355</ele>
        <time>2013-07-06T11:36:33Z</time>
      </trkpt>
      <trkpt lat="48.66682" lon="6.13329">
        <ele>354</ele>
        <time>2013-07-06T11:36:39Z</time>
      </trkpt>
      <trkpt lat="48.6669" lon="6.13301">
        <ele>363</ele>
        <time>2013-07-06T11:36:53Z</time>
      </trkpt>
      <trkpt lat="48.66703" lon="6.13277">
        <ele>360</ele>
        <time>2013-07-06T11:37:03Z</time>
      </trkpt>
      <trkpt lat="48.66713" lon="6.13253">
        <ele>365</ele>
        <time>2013-07-06T11:37:15Z</time>
      </trkpt>
      <trkpt lat="48.66734" lon="6.1322">
        <ele>368</ele>
        <time>2013-07-06T11:37:33Z</time>
      </trkpt>
      <trkpt lat="48.66742" lon="6.13188">
        <ele>368</ele>
        <time>2013-07-06T11:37:43Z</time>
      </trkpt>
      <trkpt lat="48.66745" lon="6.13154">
        <ele>366</ele>
        <time>2013-07-06T11:37:53Z</time>
      </trkpt>
      <trkpt lat="48.66744" lon="6.13125">
        <ele>364</ele>
        <time>2013-07-06T11:38:03Z</time>
      </trkpt>
      <trkpt lat="48.66742" lon="6.13107">
        <ele>365</ele>
        <time>2013-07-06T11:38:09Z</time>
      </trkpt>
      <trkpt lat="48.6674" lon="6.13092">
        <ele>361</ele>
        <time>2013-07-06T11:38:13Z</time>
      </trkpt>
      <trkpt lat="48.6674" lon="6.13086">
        <ele>361</ele>
        <time>2013-07-06T11:38:15Z</time>
      </trkpt>
      <trkpt lat="48.66739" lon="6.1308">
        <ele>361</ele>
        <time>2013-07-06T11:38:17Z</time>
      </trkpt>
      <trkpt lat="48.66739" lon="6.13073">
        <ele>361</ele>
        <time>2013-07-06T11:38:19Z</time>
      </trkpt>
      <trkpt lat="48.66738" lon="6.13067">
        <ele>361</ele>
        <time>2013-07-06T11:38:21Z</time>
      </trkpt>
      <trkpt lat="48.66738" lon="6.13062">
        <ele>361</ele>
        <time>2013-07-06T11:38:23Z</time>
      </trkpt>
      <trkpt lat="48.66745" lon="6.13047">
        <ele>366</ele>
        <time>2013-07-06T11:38:29Z</time>
      </trkpt>
      <trkpt lat="48.66758" lon="6.13035">
        <ele>370</ele>
        <time>2013-07-06T11:38:37Z</time>
      </trkpt>
      <trkpt lat="48.66774" lon="6.13029">
        <ele>380</ele>
        <time>2013-07-06T11:38:45Z</time>
      </trkpt>
      <trkpt lat="48.66778" lon="6.13027">
        <ele>380</ele>
        <time>2013-07-06T11:38:47Z</time>
      </trkpt>
      <trkpt lat="48.66785" lon="6.13023">
        <ele>379</ele>
        <time>2013-07-06T11:38:51Z</time>
      </trkpt>
      <trkpt lat="48.6679" lon="6.13022">
        <ele>381</ele>
        <time>2013-07-06T11:38:53Z</time>
      </trkpt>
      <trkpt lat="48.66794" lon="6.1302">
        <ele>381</ele>
        <time>2013-07-06T11:38:55Z</time>
      </trkpt>
      <trkpt lat="48.66798" lon="6.13019">
        <ele>383</ele>
        <time>2013-07-06T11:38:57Z</time>
      </trkpt>
      <trkpt lat="48.66824" lon="6.13012">
        <ele>382</ele>
        <time>2013-07-06T11:39:09Z</time>
      </trkpt>
      <trkpt lat="48.6683" lon="6.13009">
        <ele>380</ele>
        <time>2013-07-06T11:39:12Z</time>
      </trkpt>
      <trkpt lat="48.66837" lon="6.13005">
        <ele>378</ele>
        <time>2013-07-06T11:39:15Z</time>
      </trkpt>
      <trkpt lat="48.66843" lon="6.13003">
        <ele>378</ele>
        <time>2013-07-06T11:39:17Z</time>
      </trkpt>
      <trkpt lat="48.66848" lon="6.13">
        <ele>379</ele>
        <time>2013-07-06T11:39:19Z</time>
      </trkpt>
      <trkpt lat="48.66853" lon="6.12998">
        <ele>379</ele>
        <time>2013-07-06T11:39:21Z</time>
      </trkpt>
      <trkpt lat="48.66863" lon="6.12993">
        <ele>382</ele>
        <time>2013-07-06T11:39:25Z</time>
      </trkpt>
      <trkpt lat="48.66869" lon="6.12991">
        <ele>383</ele>
        <time>2013-07-06T11:39:27Z</time>
      </trkpt>
      <trkpt lat="48.66876" lon="6.12988">
        <ele>383</ele>
        <time>2013-07-06T11:39:29Z</time>
      </trkpt>
      <trkpt lat="48.66882" lon="6.12985">
        <ele>382</ele>
        <time>2013-07-06T11:39:31Z</time>
      </trkpt>
      <trkpt lat="48.66888" lon="6.12983">
        <ele>381</ele>
        <time>2013-07-06T11:39:33Z</time>
      </trkpt>
      <trkpt lat="48.66896" lon="6.1298">
        <ele>380</ele>
        <time>2013-07-06T11:39:35Z</time>
      </trkpt>
      <trkpt lat="48.66902" lon="6.12979">
        <ele>381</ele>
        <time>2013-07-06T11:39:37Z</time>
      </trkpt>
      <trkpt lat="48.66909" lon="6.12978">
        <ele>382</ele>
        <time>2013-07-06T11:39:39Z</time>
      </trkpt>
      <trkpt lat="48.66915" lon="6.12977">
        <ele>383</ele>
        <time>2013-07-06T11:39:41Z</time>
      </trkpt>
      <trkpt lat="48.66921" lon="6.12975">
        <ele>382</ele>
        <time>2013-07-06T11:39:43Z</time>
      </trkpt>
      <trkpt lat="48.66927" lon="6.12973">
        <ele>381</ele>
        <time>2013-07-06T11:39:45Z</time>
      </trkpt>
      <trkpt lat="48.66935" lon="6.1297">
        <ele>383</ele>
        <time>2013-07-06T11:39:47Z</time>
      </trkpt>
      <trkpt lat="48.66941" lon="6.12965">
        <ele>384</ele>
        <time>2013-07-06T11:39:49Z</time>
      </trkpt>
      <trkpt lat="48.6695" lon="6.12959">
        <ele>385</ele>
        <time>2013-07-06T11:39:53Z</time>
      </trkpt>
      <trkpt lat="48.66958" lon="6.12956">
        <ele>386</ele>
        <time>2013-07-06T11:39:55Z</time>
      </trkpt>
      <trkpt lat="48.66964" lon="6.12953">
        <ele>386</ele>
        <time>2013-07-06T11:39:57Z</time>
      </trkpt>
      <trkpt lat="48.66971" lon="6.1295">
        <ele>386</ele>
        <time>2013-07-06T11:39:59Z</time>
      </trkpt>
      <trkpt lat="48.6698" lon="6.12949">
        <ele>383</ele>
        <time>2013-07-06T11:40:01Z</time>
      </trkpt>
      <trkpt lat="48.6699" lon="6.12949">
        <ele>381</ele>
        <time>2013-07-06T11:40:03Z</time>
      </trkpt>
      <trkpt lat="48.66999" lon="6.12947">
        <ele>382</ele>
        <time>2013-07-06T11:40:05Z</time>
      </trkpt>
      <trkpt lat="48.67007" lon="6.12944">
        <ele>381</ele>
        <time>2013-07-06T11:40:07Z</time>
      </trkpt>
      <trkpt lat="48.67016" lon="6.12942">
        <ele>383</ele>
        <time>2013-07-06T11:40:09Z</time>
      </trkpt>
      <trkpt lat="48.67025" lon="6.1294">
        <ele>383</ele>
        <time>2013-07-06T11:40:11Z</time>
      </trkpt>
      <trkpt lat="48.67033" lon="6.12939">
        <ele>382</ele>
        <time>2013-07-06T11:40:13Z</time>
      </trkpt>
      <trkpt lat="48.67042" lon="6.12937">
        <ele>383</ele>
        <time>2013-07-06T11:40:15Z</time>
      </trkpt>
      <trkpt lat="48.6705" lon="6.12936">
        <ele>384</ele>
        <time>2013-07-06T11:40:17Z</time>
      </trkpt>
      <trkpt lat="48.67056" lon="6.12934">
        <ele>385</ele>
        <time>2013-07-06T11:40:19Z</time>
      </trkpt>
      <trkpt lat="48.67064" lon="6.12931">
        <ele>385</ele>
        <time>2013-07-06T11:40:21Z</time>
      </trkpt>
      <trkpt lat="48.67072" lon="6.12929">
        <ele>386</ele>
        <time>2013-07-06T11:40:23Z</time>
      </trkpt>
      <trkpt lat="48.6708" lon="6.12926">
        <ele>386</ele>
        <time>2013-07-06T11:40:25Z</time>
      </trkpt>
      <trkpt lat="48.67088" lon="6.12923">
        <ele>386</ele>
        <time>2013-07-06T11:40:27Z</time>
      </trkpt>
      <trkpt lat="48.67096" lon="6.12921">
        <ele>386</ele>
        <time>2013-07-06T11:40:29Z</time>
      </trkpt>
      <trkpt lat="48.67105" lon="6.12918">
        <ele>385</ele>
        <time>2013-07-06T11:40:31Z</time>
      </trkpt>
      <trkpt lat="48.67113" lon="6.12916">
        <ele>383</ele>
        <time>2013-07-06T11:40:33Z</time>
      </trkpt>
      <trkpt lat="48.67122" lon="6.12914">
        <ele>382</ele>
        <time>2013-07-06T11:40:35Z</time>
      </trkpt>
      <trkpt lat="48.6713" lon="6.1291">
        <ele>383</ele>
        <time>2013-07-06T11:40:37Z</time>
      </trkpt>
      <trkpt lat="48.6714" lon="6.12907">
        <ele>383</ele>
        <time>2013-07-06T11:40:39Z</time>
      </trkpt>
      <trkpt lat="48.6715" lon="6.12904">
        <ele>383</ele>
        <time>2013-07-06T11:40:41Z</time>
      </trkpt>
      <trkpt lat="48.6716" lon="6.12902">
        <ele>382</ele>
        <time>2013-07-06T11:40:43Z</time>
      </trkpt>
      <trkpt lat="48.67171" lon="6.12897">
        <ele>381</ele>
        <time>2013-07-06T11:40:45Z</time>
      </trkpt>
      <trkpt lat="48.67183" lon="6.12893">
        <ele>380</ele>
        <time>2013-07-06T11:40:47Z</time>
      </trkpt>
      <trkpt lat="48.67196" lon="6.1289">
        <ele>380</ele>
        <time>2013-07-06T11:40:49Z</time>
      </trkpt>
      <trkpt lat="48.67207" lon="6.12887">
        <ele>381</ele>
        <time>2013-07-06T11:40:51Z</time>
      </trkpt>
      <trkpt lat="48.67218" lon="6.12884">
        <ele>383</ele>
        <time>2013-07-06T11:40:53Z</time>
      </trkpt>
      <trkpt lat="48.6723" lon="6.1288">
        <ele>384</ele>
        <time>2013-07-06T11:40:55Z</time>
      </trkpt>
      <trkpt lat="48.6724" lon="6.12875">
        <ele>383</ele>
        <time>2013-07-06T11:40:57Z</time>
      </trkpt>
      <trkpt lat="48.67252" lon="6.12872">
        <ele>383</ele>
        <time>2013-07-06T11:40:59Z</time>
      </trkpt>
      <trkpt lat="48.67261" lon="6.12867">
        <ele>383</ele>
        <time>2013-07-06T11:41:01Z</time>
      </trkpt>
      <trkpt lat="48.67271" lon="6.12863">
        <ele>384</ele>
        <time>2013-07-06T11:41:03Z</time>
      </trkpt>
      <trkpt lat="48.67283" lon="6.12859">
        <ele>384</ele>
        <time>2013-07-06T11:41:05Z</time>
      </trkpt>
      <trkpt lat="48.67296" lon="6.12857">
        <ele>381</ele>
        <time>2013-07-06T11:41:07Z</time>
      </trkpt>
      <trkpt lat="48.67308" lon="6.12856">
        <ele>383</ele>
        <time>2013-07-06T11:41:09Z</time>
      </trkpt>
      <trkpt lat="48.6732" lon="6.12853">
        <ele>382</ele>
        <time>2013-07-06T11:41:11Z</time>
      </trkpt>
      <trkpt lat="48.67331" lon="6.12851">
        <ele>384</ele>
        <time>2013-07-06T11:41:13Z</time>
      </trkpt>
      <trkpt lat="48.67344" lon="6.12846">
        <ele>383</ele>
        <time>2013-07-06T11:41:15Z</time>
      </trkpt>
      <trkpt lat="48.67356" lon="6.12841">
        <ele>382</ele>
        <time>2013-07-06T11:41:17Z</time>
      </trkpt>
      <trkpt lat="48.67368" lon="6.12837">
        <ele>380</ele>
        <time>2013-07-06T11:41:19Z</time>
      </trkpt>
      <trkpt lat="48.67379" lon="6.12833">
        <ele>380</ele>
        <time>2013-07-06T11:41:21Z</time>
      </trkpt>
      <trkpt lat="48.6739" lon="6.12829">
        <ele>378</ele>
        <time>2013-07-06T11:41:23Z</time>
      </trkpt>
      <trkpt lat="48.67403" lon="6.12826">
        <ele>379</ele>
        <time>2013-07-06T11:41:25Z</time>
      </trkpt>
      <trkpt lat="48.67416" lon="6.12825">
        <ele>376</ele>
        <time>2013-07-06T11:41:27Z</time>
      </trkpt>
      <trkpt lat="48.67429" lon="6.12822">
        <ele>378</ele>
        <time>2013-07-06T11:41:29Z</time>
      </trkpt>
      <trkpt lat="48.67441" lon="6.1282">
        <ele>377</ele>
        <time>2013-07-06T11:41:31Z</time>
      </trkpt>
      <trkpt lat="48.67454" lon="6.12819">
        <ele>380</ele>
        <time>2013-07-06T11:41:33Z</time>
      </trkpt>
      <trkpt lat="48.67466" lon="6.12817">
        <ele>373</ele>
        <time>2013-07-06T11:41:35Z</time>
      </trkpt>
      <trkpt lat="48.67478" lon="6.12815">
        <ele>373</ele>
        <time>2013-07-06T11:41:37Z</time>
      </trkpt>
      <trkpt lat="48.67489" lon="6.12811">
        <ele>372</ele>
        <time>2013-07-06T11:41:39Z</time>
      </trkpt>
      <trkpt lat="48.67501" lon="6.12807">
        <ele>368</ele>
        <time>2013-07-06T11:41:41Z</time>
      </trkpt>
      <trkpt lat="48.67512" lon="6.12806">
        <ele>369</ele>
        <time>2013-07-06T11:41:43Z</time>
      </trkpt>
      <trkpt lat="48.67523" lon="6.12803">
        <ele>369</ele>
        <time>2013-07-06T11:41:45Z</time>
      </trkpt>
      <trkpt lat="48.67535" lon="6.12798">
        <ele>368</ele>
        <time>2013-07-06T11:41:47Z</time>
      </trkpt>
      <trkpt lat="48.67548" lon="6.12793">
        <ele>368</ele>
        <time>2013-07-06T11:41:49Z</time>
      </trkpt>
      <trkpt lat="48.6756" lon="6.1279">
        <ele>366</ele>
        <time>2013-07-06T11:41:51Z</time>
      </trkpt>
      <trkpt lat="48.67571" lon="6.12785">
        <ele>366</ele>
        <time>2013-07-06T11:41:53Z</time>
      </trkpt>
      <trkpt lat="48.6758" lon="6.12781">
        <ele>365</ele>
        <time>2013-07-06T11:41:55Z</time>
      </trkpt>
      <trkpt lat="48.67592" lon="6.12781">
        <ele>369</ele>
        <time>2013-07-06T11:41:57Z</time>
      </trkpt>
      <trkpt lat="48.67601" lon="6.12781">
        <ele>374</ele>
        <time>2013-07-06T11:41:59Z</time>
      </trkpt>
      <trkpt lat="48.67609" lon="6.12779">
        <ele>374</ele>
        <time>2013-07-06T11:42:01Z</time>
      </trkpt>
      <trkpt lat="48.67617" lon="6.12776">
        <ele>372</ele>
        <time>2013-07-06T11:42:03Z</time>
      </trkpt>
      <trkpt lat="48.67621" lon="6.12774">
        <ele>371</ele>
        <time>2013-07-06T11:42:04Z</time>
      </trkpt>
      <trkpt lat="48.67625" lon="6.12773">
        <ele>370</ele>
        <time>2013-07-06T11:42:05Z</time>
      </trkpt>
      <trkpt lat="48.67634" lon="6.12768">
        <ele>370</ele>
        <time>2013-07-06T11:42:07Z</time>
      </trkpt>
      <trkpt lat="48.67643" lon="6.12765">
        <ele>371</ele>
        <time>2013-07-06T11:42:09Z</time>
      </trkpt>
      <trkpt lat="48.67653" lon="6.12762">
        <ele>370</ele>
        <time>2013-07-06T11:42:11Z</time>
      </trkpt>
      <trkpt lat="48.67662" lon="6.12757">
        <ele>370</ele>
        <time>2013-07-06T11:42:13Z</time>
      </trkpt>
      <trkpt lat="48.67669" lon="6.12751">
        <ele>373</ele>
        <time>2013-07-06T11:42:15Z</time>
      </trkpt>
      <trkpt lat="48.67676" lon="6.12748">
        <ele>372</ele>
        <time>2013-07-06T11:42:17Z</time>
      </trkpt>
      <trkpt lat="48.67684" lon="6.12745">
        <ele>371</ele>
        <time>2013-07-06T11:42:19Z</time>
      </trkpt>
      <trkpt lat="48.67692" lon="6.12741">
        <ele>373</ele>
        <time>2013-07-06T11:42:21Z</time>
      </trkpt>
      <trkpt lat="48.67701" lon="6.12737">
        <ele>374</ele>
        <time>2013-07-06T11:42:23Z</time>
      </trkpt>
      <trkpt lat="48.67709" lon="6.12735">
        <ele>373</ele>
        <time>2013-07-06T11:42:25Z</time>
      </trkpt>
      <trkpt lat="48.67717" lon="6.12732">
        <ele>373</ele>
        <time>2013-07-06T11:42:27Z</time>
      </trkpt>
      <trkpt lat="48.67725" lon="6.1273">
        <ele>375</ele>
        <time>2013-07-06T11:42:29Z</time>
      </trkpt>
      <trkpt lat="48.67733" lon="6.12728">
        <ele>375</ele>
        <time>2013-07-06T11:42:31Z</time>
      </trkpt>
      <trkpt lat="48.67741" lon="6.12726">
        <ele>377</ele>
        <time>2013-07-06T11:42:33Z</time>
      </trkpt>
      <trkpt lat="48.6775" lon="6.12724">
        <ele>377</ele>
        <time>2013-07-06T11:42:35Z</time>
      </trkpt>
      <trkpt lat="48.67759" lon="6.12722">
        <ele>376</ele>
        <time>2013-07-06T11:42:37Z</time>
      </trkpt>
      <trkpt lat="48.67769" lon="6.1272">
        <ele>376</ele>
        <time>2013-07-06T11:42:39Z</time>
      </trkpt>
      <trkpt lat="48.67779" lon="6.12718">
        <ele>374</ele>
        <time>2013-07-06T11:42:41Z</time>
      </trkpt>
      <trkpt lat="48.67788" lon="6.12717">
        <ele>374</ele>
        <time>2013-07-06T11:42:43Z</time>
      </trkpt>
      <trkpt lat="48.67797" lon="6.12716">
        <ele>375</ele>
        <time>2013-07-06T11:42:45Z</time>
      </trkpt>
      <trkpt lat="48.67805" lon="6.12715">
        <ele>376</ele>
        <time>2013-07-06T11:42:47Z</time>
      </trkpt>
      <trkpt lat="48.67812" lon="6.12713">
        <ele>378</ele>
        <time>2013-07-06T11:42:49Z</time>
      </trkpt>
      <trkpt lat="48.67818" lon="6.12711">
        <ele>379</ele>
        <time>2013-07-06T11:42:51Z</time>
      </trkpt>
      <trkpt lat="48.67825" lon="6.12707">
        <ele>381</ele>
        <time>2013-07-06T11:42:53Z</time>
      </trkpt>
      <trkpt lat="48.67847" lon="6.12697">
        <ele>380</ele>
        <time>2013-07-06T11:42:59Z</time>
      </trkpt>
      <trkpt lat="48.67855" lon="6.12693">
        <ele>380</ele>
        <time>2013-07-06T11:43:01Z</time>
      </trkpt>
      <trkpt lat="48.67863" lon="6.1269">
        <ele>380</ele>
        <time>2013-07-06T11:43:03Z</time>
      </trkpt>
      <trkpt lat="48.6787" lon="6.12686">
        <ele>378</ele>
        <time>2013-07-06T11:43:05Z</time>
      </trkpt>
      <trkpt lat="48.67879" lon="6.12683">
        <ele>378</ele>
        <time>2013-07-06T11:43:07Z</time>
      </trkpt>
      <trkpt lat="48.67888" lon="6.1268">
        <ele>378</ele>
        <time>2013-07-06T11:43:09Z</time>
      </trkpt>
      <trkpt lat="48.67896" lon="6.12677">
        <ele>377</ele>
        <time>2013-07-06T11:43:11Z</time>
      </trkpt>
      <trkpt lat="48.67904" lon="6.12674">
        <ele>377</ele>
        <time>2013-07-06T11:43:13Z</time>
      </trkpt>
      <trkpt lat="48.67912" lon="6.12672">
        <ele>373</ele>
        <time>2013-07-06T11:43:15Z</time>
      </trkpt>
      <trkpt lat="48.67919" lon="6.12668">
        <ele>374</ele>
        <time>2013-07-06T11:43:17Z</time>
      </trkpt>
      <trkpt lat="48.67928" lon="6.12665">
        <ele>377</ele>
        <time>2013-07-06T11:43:19Z</time>
      </trkpt>
      <trkpt lat="48.67935" lon="6.12662">
        <ele>376</ele>
        <time>2013-07-06T11:43:21Z</time>
      </trkpt>
      <trkpt lat="48.67944" lon="6.12661">
        <ele>379</ele>
        <time>2013-07-06T11:43:23Z</time>
      </trkpt>
      <trkpt lat="48.67953" lon="6.12659">
        <ele>377</ele>
        <time>2013-07-06T11:43:25Z</time>
      </trkpt>
      <trkpt lat="48.67968" lon="6.12656">
        <ele>376</ele>
        <time>2013-07-06T11:43:28Z</time>
      </trkpt>
      <trkpt lat="48.67973" lon="6.12655">
        <ele>378</ele>
        <time>2013-07-06T11:43:29Z</time>
      </trkpt>
      <trkpt lat="48.67984" lon="6.12654">
        <ele>378</ele>
        <time>2013-07-06T11:43:31Z</time>
      </trkpt>
      <trkpt lat="48.67996" lon="6.12653">
        <ele>375</ele>
        <time>2013-07-06T11:43:33Z</time>
      </trkpt>
      <trkpt lat="48.68005" lon="6.12649">
        <ele>373</ele>
        <time>2013-07-06T11:43:35Z</time>
      </trkpt>
      <trkpt lat="48.68015" lon="6.12645">
        <ele>372</ele>
        <time>2013-07-06T11:43:37Z</time>
      </trkpt>
      <trkpt lat="48.68024" lon="6.12642">
        <ele>372</ele>
        <time>2013-07-06T11:43:39Z</time>
      </trkpt>
      <trkpt lat="48.68033" lon="6.1264">
        <ele>371</ele>
        <time>2013-07-06T11:43:41Z</time>
      </trkpt>
      <trkpt lat="48.68041" lon="6.12638">
        <ele>373</ele>
        <time>2013-07-06T11:43:43Z</time>
      </trkpt>
      <trkpt lat="48.6805" lon="6.12637">
        <ele>376</ele>
        <time>2013-07-06T11:43:45Z</time>
      </trkpt>
      <trkpt lat="48.6806" lon="6.12636">
        <ele>374</ele>
        <time>2013-07-06T11:43:47Z</time>
      </trkpt>
      <trkpt lat="48.68069" lon="6.12635">
        <ele>373</ele>
        <time>2013-07-06T11:43:49Z</time>
      </trkpt>
      <trkpt lat="48.68076" lon="6.12634">
        <ele>372</ele>
        <time>2013-07-06T11:43:51Z</time>
      </trkpt>
      <trkpt lat="48.68082" lon="6.1263">
        <ele>371</ele>
        <time>2013-07-06T11:43:53Z</time>
      </trkpt>
      <trkpt lat="48.68089" lon="6.12626">
        <ele>370</ele>
        <time>2013-07-06T11:43:55Z</time>
      </trkpt>
      <trkpt lat="48.68093" lon="6.12623">
        <ele>367</ele>
        <time>2013-07-06T11:43:57Z</time>
      </trkpt>
      <trkpt lat="48.68098" lon="6.1262">
        <ele>372</ele>
        <time>2013-07-06T11:43:59Z</time>
      </trkpt>
      <trkpt lat="48.68104" lon="6.12618">
        <ele>378</ele>
        <time>2013-07-06T11:44:01Z</time>
      </trkpt>
      <trkpt lat="48.68108" lon="6.12617">
        <ele>375</ele>
        <time>2013-07-06T11:44:03Z</time>
      </trkpt>
      <trkpt lat="48.68113" lon="6.12616">
        <ele>377</ele>
        <time>2013-07-06T11:44:05Z</time>
      </trkpt>
      <trkpt lat="48.68119" lon="6.12616">
        <ele>377</ele>
        <time>2013-07-06T11:44:07Z</time>
      </trkpt>
      <trkpt lat="48.68125" lon="6.12615">
        <ele>377</ele>
        <time>2013-07-06T11:44:09Z</time>
      </trkpt>
      <trkpt lat="48.68132" lon="6.12615">
        <ele>379</ele>
        <time>2013-07-06T11:44:11Z</time>
      </trkpt>
      <trkpt lat="48.68138" lon="6.12613">
        <ele>381</ele>
        <time>2013-07-06T11:44:13Z</time>
      </trkpt>
      <trkpt lat="48.68146" lon="6.12611">
        <ele>378</ele>
        <time>2013-07-06T11:44:15Z</time>
      </trkpt>
      <trkpt lat="48.68153" lon="6.1261">
        <ele>377</ele>
        <time>2013-07-06T11:44:17Z</time>
      </trkpt>
      <trkpt lat="48.68159" lon="6.12608">
        <ele>376</ele>
        <time>2013-07-06T11:44:19Z</time>
      </trkpt>
      <trkpt lat="48.68166" lon="6.12609">
        <ele>372</ele>
        <time>2013-07-06T11:44:21Z</time>
      </trkpt>
      <trkpt lat="48.68173" lon="6.12611">
        <ele>376</ele>
        <time>2013-07-06T11:44:23Z</time>
      </trkpt>
      <trkpt lat="48.68179" lon="6.12614">
        <ele>375</ele>
        <time>2013-07-06T11:44:25Z</time>
      </trkpt>
      <trkpt lat="48.68185" lon="6.1262">
        <ele>373</ele>
        <time>2013-07-06T11:44:27Z</time>
      </trkpt>
      <trkpt lat="48.68192" lon="6.12626">
        <ele>373</ele>
        <time>2013-07-06T11:44:29Z</time>
      </trkpt>
      <trkpt lat="48.682" lon="6.12633">
        <ele>374</ele>
        <time>2013-07-06T11:44:31Z</time>
      </trkpt>
      <trkpt lat="48.68206" lon="6.12639">
        <ele>374</ele>
        <time>2013-07-06T11:44:33Z</time>
      </trkpt>
      <trkpt lat="48.68215" lon="6.12647">
        <ele>371</ele>
        <time>2013-07-06T11:44:35Z</time>
      </trkpt>
      <trkpt lat="48.68224" lon="6.12656">
        <ele>371</ele>
        <time>2013-07-06T11:44:37Z</time>
      </trkpt>
      <trkpt lat="48.68231" lon="6.12664">
        <ele>370</ele>
        <time>2013-07-06T11:44:39Z</time>
      </trkpt>
      <trkpt lat="48.6824" lon="6.12669">
        <ele>375</ele>
        <time>2013-07-06T11:44:41Z</time>
      </trkpt>
      <trkpt lat="48.68249" lon="6.12676">
        <ele>378</ele>
        <time>2013-07-06T11:44:43Z</time>
      </trkpt>
      <trkpt lat="48.6826" lon="6.12682">
        <ele>378</ele>
        <time>2013-07-06T11:44:45Z</time>
      </trkpt>
      <trkpt lat="48.68269" lon="6.1269">
        <ele>375</ele>
        <time>2013-07-06T11:44:47Z</time>
      </trkpt>
      <trkpt lat="48.68277" lon="6.12701">
        <ele>374</ele>
        <time>2013-07-06T11:44:49Z</time>
      </trkpt>
      <trkpt lat="48.68285" lon="6.12709">
        <ele>376</ele>
        <time>2013-07-06T11:44:51Z</time>
      </trkpt>
      <trkpt lat="48.68293" lon="6.12718">
        <ele>378</ele>
        <time>2013-07-06T11:44:53Z</time>
      </trkpt>
      <trkpt lat="48.68301" lon="6.12725">
        <ele>379</ele>
        <time>2013-07-06T11:44:55Z</time>
      </trkpt>
      <trkpt lat="48.68311" lon="6.12735">
        <ele>377</ele>
        <time>2013-07-06T11:44:57Z</time>
      </trkpt>
      <trkpt lat="48.68319" lon="6.12747">
        <ele>376</ele>
        <time>2013-07-06T11:44:59Z</time>
      </trkpt>
      <trkpt lat="48.68327" lon="6.12758">
        <ele>377</ele>
        <time>2013-07-06T11:45:01Z</time>
      </trkpt>
      <trkpt lat="48.68335" lon="6.12768">
        <ele>377</ele>
        <time>2013-07-06T11:45:03Z</time>
      </trkpt>
      <trkpt lat="48.68353" lon="6.12785">
        <ele>349</ele>
        <time>2013-07-06T11:45:05Z</time>
      </trkpt>
      <trkpt lat="48.68368" lon="6.12801">
        <ele>345</ele>
        <time>2013-07-06T11:45:07Z</time>
      </trkpt>
      <trkpt lat="48.68375" lon="6.12808">
        <ele>345</ele>
        <time>2013-07-06T11:45:08Z</time>
      </trkpt>
      <trkpt lat="48.6838" lon="6.12815">
        <ele>346</ele>
        <time>2013-07-06T11:45:09Z</time>
      </trkpt>
      <trkpt lat="48.68391" lon="6.12824">
        <ele>343</ele>
        <time>2013-07-06T11:45:11Z</time>
      </trkpt>
      <trkpt lat="48.68401" lon="6.12833">
        <ele>342</ele>
        <time>2013-07-06T11:45:13Z</time>
      </trkpt>
      <trkpt lat="48.6841" lon="6.12844">
        <ele>340</ele>
        <time>2013-07-06T11:45:15Z</time>
      </trkpt>
      <trkpt lat="48.6842" lon="6.12854">
        <ele>340</ele>
        <time>2013-07-06T11:45:17Z</time>
      </trkpt>
      <trkpt lat="48.68428" lon="6.12864">
        <ele>339</ele>
        <time>2013-07-06T11:45:19Z</time>
      </trkpt>
      <trkpt lat="48.68436" lon="6.12871">
        <ele>339</ele>
        <time>2013-07-06T11:45:21Z</time>
      </trkpt>
      <trkpt lat="48.68444" lon="6.12879">
        <ele>341</ele>
        <time>2013-07-06T11:45:23Z</time>
      </trkpt>
      <trkpt lat="48.68449" lon="6.12885">
        <ele>340</ele>
        <time>2013-07-06T11:45:25Z</time>
      </trkpt>
      <trkpt lat="48.68454" lon="6.12892">
        <ele>335</ele>
        <time>2013-07-06T11:45:27Z</time>
      </trkpt>
      <trkpt lat="48.68461" lon="6.12897">
        <ele>336</ele>
        <time>2013-07-06T11:45:29Z</time>
      </trkpt>
      <trkpt lat="48.68465" lon="6.12906">
        <ele>334</ele>
        <time>2013-07-06T11:45:31Z</time>
      </trkpt>
      <trkpt lat="48.68468" lon="6.12912">
        <ele>333</ele>
        <time>2013-07-06T11:45:32Z</time>
      </trkpt>
      <trkpt lat="48.68473" lon="6.12933">
        <ele>335</ele>
        <time>2013-07-06T11:45:35Z</time>
      </trkpt>
      <trkpt lat="48.68479" lon="6.12974">
        <ele>340</ele>
        <time>2013-07-06T11:58:07Z</time>
      </trkpt>
      <trkpt lat="48.68479" lon="6.12968">
        <ele>338</ele>
        <time>2013-07-06T11:58:09Z</time>
      </trkpt>
      <trkpt lat="48.68479" lon="6.12963">
        <ele>341</ele>
        <time>2013-07-06T11:58:11Z</time>
      </trkpt>
      <trkpt lat="48.68479" lon="6.12958">
        <ele>344</ele>
        <time>2013-07-06T11:58:13Z</time>
      </trkpt>
      <trkpt lat="48.68477" lon="6.12954">
        <ele>346</ele>
        <time>2013-07-06T11:58:15Z</time>
      </trkpt>
      <trkpt lat="48.68475" lon="6.12945">
        <ele>353</ele>
        <time>2013-07-06T11:58:19Z</time>
      </trkpt>
      <trkpt lat="48.68473" lon="6.1294">
        <ele>353</ele>
        <time>2013-07-06T11:58:21Z</time>
      </trkpt>
      <trkpt lat="48.6847" lon="6.12933">
        <ele>356</ele>
        <time>2013-07-06T11:58:23Z</time>
      </trkpt>
      <trkpt lat="48.68467" lon="6.12924">
        <ele>351</ele>
        <time>2013-07-06T11:58:25Z</time>
      </trkpt>
      <trkpt lat="48.68465" lon="6.12917">
        <ele>349</ele>
        <time>2013-07-06T11:58:27Z</time>
      </trkpt>
      <trkpt lat="48.68464" lon="6.12909">
        <ele>346</ele>
        <time>2013-07-06T11:58:29Z</time>
      </trkpt>
      <trkpt lat="48.68465" lon="6.12903">
        <ele>347</ele>
        <time>2013-07-06T11:58:31Z</time>
      </trkpt>
      <trkpt lat="48.68465" lon="6.12897">
        <ele>347</ele>
        <time>2013-07-06T11:58:33Z</time>
      </trkpt>
      <trkpt lat="48.68469" lon="6.12891">
        <ele>349</ele>
        <time>2013-07-06T11:58:35Z</time>
      </trkpt>
      <trkpt lat="48.68473" lon="6.12888">
        <ele>349</ele>
        <time>2013-07-06T11:58:37Z</time>
      </trkpt>
      <trkpt lat="48.68479" lon="6.12885">
        <ele>348</ele>
        <time>2013-07-06T11:58:39Z</time>
      </trkpt>
      <trkpt lat="48.68483" lon="6.1288">
        <ele>348</ele>
        <time>2013-07-06T11:58:41Z</time>
      </trkpt>
      <trkpt lat="48.68486" lon="6.12874">
        <ele>350</ele>
        <time>2013-07-06T11:58:43Z</time>
      </trkpt>
      <trkpt lat="48.6849" lon="6.12867">
        <ele>350</ele>
        <time>2013-07-06T11:58:45Z</time>
      </trkpt>
      <trkpt lat="48.68493" lon="6.12861">
        <ele>350</ele>
        <time>2013-07-06T11:58:47Z</time>
      </trkpt>
      <trkpt lat="48.68498" lon="6.12857">
        <ele>351</ele>
        <time>2013-07-06T11:58:49Z</time>
      </trkpt>
      <trkpt lat="48.68502" lon="6.12853">
        <ele>351</ele>
        <time>2013-07-06T11:58:51Z</time>
      </trkpt>
      <trkpt lat="48.68509" lon="6.12849">
        <ele>349</ele>
        <time>2013-07-06T11:58:53Z</time>
      </trkpt>
      <trkpt lat="48.68515" lon="6.12845">
        <ele>350</ele>
        <time>2013-07-06T11:58:55Z</time>
      </trkpt>
      <trkpt lat="48.68521" lon="6.1284">
        <ele>350</ele>
        <time>2013-07-06T11:58:57Z</time>
      </trkpt>
      <trkpt lat="48.68528" lon="6.12836">
        <ele>351</ele>
        <time>2013-07-06T11:58:59Z</time>
      </trkpt>
      <trkpt lat="48.68536" lon="6.12832">
        <ele>352</ele>
        <time>2013-07-06T11:59:01Z</time>
      </trkpt>
      <trkpt lat="48.68544" lon="6.12828">
        <ele>352</ele>
        <time>2013-07-06T11:59:03Z</time>
      </trkpt>
      <trkpt lat="48.6855" lon="6.12825">
        <ele>354</ele>
        <time>2013-07-06T11:59:05Z</time>
      </trkpt>
      <trkpt lat="48.68556" lon="6.12822">
        <ele>353</ele>
        <time>2013-07-06T11:59:07Z</time>
      </trkpt>
      <trkpt lat="48.68562" lon="6.1282">
        <ele>355</ele>
        <time>2013-07-06T11:59:09Z</time>
      </trkpt>
      <trkpt lat="48.68568" lon="6.12817">
        <ele>356</ele>
        <time>2013-07-06T11:59:11Z</time>
      </trkpt>
      <trkpt lat="48.68575" lon="6.12815">
        <ele>355</ele>
        <time>2013-07-06T11:59:13Z</time>
      </trkpt>
      <trkpt lat="48.68582" lon="6.12813">
        <ele>352</ele>
        <time>2013-07-06T11:59:15Z</time>
      </trkpt>
      <trkpt lat="48.68589" lon="6.12811">
        <ele>354</ele>
        <time>2013-07-06T11:59:17Z</time>
      </trkpt>
      <trkpt lat="48.68597" lon="6.12809">
        <ele>354</ele>
        <time>2013-07-06T11:59:19Z</time>
      </trkpt>
      <trkpt lat="48.68603" lon="6.12806">
        <ele>355</ele>
        <time>2013-07-06T11:59:21Z</time>
      </trkpt>
      <trkpt lat="48.68609" lon="6.12804">
        <ele>356</ele>
        <time>2013-07-06T11:59:23Z</time>
      </trkpt>
      <trkpt lat="48.68616" lon="6.12802">
        <ele>355</ele>
        <time>2013-07-06T11:59:25Z</time>
      </trkpt>
      <trkpt lat="48.68624" lon="6.128">
        <ele>353</ele>
        <time>2013-07-06T11:59:27Z</time>
      </trkpt>
      <trkpt lat="48.68632" lon="6.128">
        <ele>349</ele>
        <time>2013-07-06T11:59:29Z</time>
      </trkpt>
      <trkpt lat="48.68639" lon="6.12797">
        <ele>351</ele>
        <time>2013-07-06T11:59:31Z</time>
      </trkpt>
      <trkpt lat="48.68647" lon="6.12795">
        <ele>350</ele>
        <time>2013-07-06T11:59:33Z</time>
      </trkpt>
      <trkpt lat="48.68654" lon="6.12793">
        <ele>350</ele>
        <time>2013-07-06T11:59:35Z</time>
      </trkpt>
      <trkpt lat="48.68659" lon="6.12791">
        <ele>350</ele>
        <time>2013-07-06T11:59:37Z</time>
      </trkpt>
      <trkpt lat="48.68665" lon="6.12788">
        <ele>350</ele>
        <time>2013-07-06T11:59:39Z</time>
      </trkpt>
      <trkpt lat="48.68672" lon="6.12785">
        <ele>353</ele>
        <time>2013-07-06T11:59:41Z</time>
      </trkpt>
      <trkpt lat="48.68679" lon="6.12783">
        <ele>353</ele>
        <time>2013-07-06T11:59:43Z</time>
      </trkpt>
      <trkpt lat="48.68685" lon="6.12779">
        <ele>354</ele>
        <time>2013-07-06T11:59:45Z</time>
      </trkpt>
      <trkpt lat="48.68691" lon="6.12776">
        <ele>357</ele>
        <time>2013-07-06T11:59:47Z</time>
      </trkpt>
      <trkpt lat="48.68697" lon="6.12772">
        <ele>360</ele>
        <time>2013-07-06T11:59:49Z</time>
      </trkpt>
      <trkpt lat="48.68703" lon="6.12769">
        <ele>360</ele>
        <time>2013-07-06T11:59:51Z</time>
      </trkpt>
      <trkpt lat="48.6871" lon="6.12766">
        <ele>355</ele>
        <time>2013-07-06T11:59:53Z</time>
      </trkpt>
      <trkpt lat="48.68716" lon="6.12765">
        <ele>357</ele>
        <time>2013-07-06T11:59:55Z</time>
      </trkpt>
      <trkpt lat="48.68724" lon="6.12762">
        <ele>355</ele>
        <time>2013-07-06T11:59:57Z</time>
      </trkpt>
      <trkpt lat="48.68731" lon="6.12759">
        <ele>355</ele>
        <time>2013-07-06T11:59:59Z</time>
      </trkpt>
      <trkpt lat="48.68738" lon="6.12754">
        <ele>355</ele>
        <time>2013-07-06T12:00:01Z</time>
      </trkpt>
      <trkpt lat="48.68745" lon="6.1275">
        <ele>354</ele>
        <time>2013-07-06T12:00:03Z</time>
      </trkpt>
      <trkpt lat="48.68751" lon="6.12747">
        <ele>355</ele>
        <time>2013-07-06T12:00:05Z</time>
      </trkpt>
      <trkpt lat="48.68758" lon="6.12744">
        <ele>357</ele>
        <time>2013-07-06T12:00:07Z</time>
      </trkpt>
      <trkpt lat="48.68764" lon="6.12741">
        <ele>360</ele>
        <time>2013-07-06T12:00:09Z</time>
      </trkpt>
      <trkpt lat="48.6877" lon="6.12739">
        <ele>360</ele>
        <time>2013-07-06T12:00:11Z</time>
      </trkpt>
      <trkpt lat="48.68776" lon="6.1274">
        <ele>360</ele>
        <time>2013-07-06T12:00:13Z</time>
      </trkpt>
      <trkpt lat="48.68781" lon="6.12742">
        <ele>357</ele>
        <time>2013-07-06T12:00:15Z</time>
      </trkpt>
      <trkpt lat="48.68786" lon="6.12746">
        <ele>351</ele>
        <time>2013-07-06T12:00:17Z</time>
      </trkpt>
      <trkpt lat="48.68789" lon="6.12752">
        <ele>346</ele>
        <time>2013-07-06T12:00:19Z</time>
      </trkpt>
      <trkpt lat="48.68791" lon="6.12762">
        <ele>343</ele>
        <time>2013-07-06T12:00:21Z</time>
      </trkpt>
      <trkpt lat="48.68792" lon="6.12767">
        <ele>342</ele>
        <time>2013-07-06T12:00:22Z</time>
      </trkpt>
      <trkpt lat="48.68792" lon="6.12773">
        <ele>342</ele>
        <time>2013-07-06T12:00:23Z</time>
      </trkpt>
      <trkpt lat="48.68794" lon="6.12784">
        <ele>341</ele>
        <time>2013-07-06T12:00:25Z</time>
      </trkpt>
      <trkpt lat="48.68795" lon="6.12795">
        <ele>340</ele>
        <time>2013-07-06T12:00:27Z</time>
      </trkpt>
      <trkpt lat="48.68796" lon="6.12807">
        <ele>340</ele>
        <time>2013-07-06T12:00:29Z</time>
      </trkpt>
      <trkpt lat="48.68797" lon="6.12818">
        <ele>344</ele>
        <time>2013-07-06T12:00:31Z</time>
      </trkpt>
      <trkpt lat="48.68797" lon="6.12832">
        <ele>344</ele>
        <time>2013-07-06T12:00:33Z</time>
      </trkpt>
      <trkpt lat="48.68798" lon="6.12847">
        <ele>343</ele>
        <time>2013-07-06T12:00:35Z</time>
      </trkpt>
      <trkpt lat="48.68799" lon="6.12863">
        <ele>341</ele>
        <time>2013-07-06T12:00:37Z</time>
      </trkpt>
      <trkpt lat="48.68801" lon="6.12882">
        <ele>339</ele>
        <time>2013-07-06T12:00:39Z</time>
      </trkpt>
      <trkpt lat="48.68803" lon="6.12901">
        <ele>337</ele>
        <time>2013-07-06T12:00:41Z</time>
      </trkpt>
      <trkpt lat="48.68804" lon="6.12923">
        <ele>335</ele>
        <time>2013-07-06T12:00:43Z</time>
      </trkpt>
      <trkpt lat="48.68805" lon="6.12945">
        <ele>334</ele>
        <time>2013-07-06T12:00:45Z</time>
      </trkpt>
      <trkpt lat="48.68807" lon="6.12967">
        <ele>335</ele>
        <time>2013-07-06T12:00:47Z</time>
      </trkpt>
      <trkpt lat="48.6881" lon="6.13016">
        <ele>334</ele>
        <time>2013-07-06T12:00:51Z</time>
      </trkpt>
      <trkpt lat="48.68811" lon="6.13041">
        <ele>334</ele>
        <time>2013-07-06T12:00:53Z</time>
      </trkpt>
      <trkpt lat="48.68812" lon="6.13068">
        <ele>334</ele>
        <time>2013-07-06T12:00:55Z</time>
      </trkpt>
      <trkpt lat="48.68814" lon="6.13095">
        <ele>334</ele>
        <time>2013-07-06T12:00:57Z</time>
      </trkpt>
      <trkpt lat="48.68817" lon="6.13121">
        <ele>331</ele>
        <time>2013-07-06T12:00:59Z</time>
      </trkpt>
      <trkpt lat="48.68821" lon="6.13147">
        <ele>331</ele>
        <time>2013-07-06T12:01:01Z</time>
      </trkpt>
      <trkpt lat="48.68823" lon="6.13167">
        <ele>332</ele>
        <time>2013-07-06T12:01:03Z</time>
      </trkpt>
      <trkpt lat="48.68817" lon="6.13181">
        <ele>331</ele>
        <time>2013-07-06T12:01:07Z</time>
      </trkpt>
      <trkpt lat="48.68808" lon="6.13174">
        <ele>331</ele>
        <time>2013-07-06T12:01:09Z</time>
      </trkpt>
      <trkpt lat="48.68797" lon="6.13165">
        <ele>330</ele>
        <time>2013-07-06T12:01:11Z</time>
      </trkpt>
      <trkpt lat="48.68782" lon="6.13155">
        <ele>329</ele>
        <time>2013-07-06T12:01:13Z</time>
      </trkpt>
      <trkpt lat="48.68765" lon="6.13146">
        <ele>328</ele>
        <time>2013-07-06T12:01:15Z</time>
      </trkpt>
      <trkpt lat="48.68744" lon="6.13141">
        <ele>327</ele>
        <time>2013-07-06T12:01:17Z</time>
      </trkpt>
      <trkpt lat="48.68723" lon="6.13137">
        <ele>327</ele>
        <time>2013-07-06T12:01:19Z</time>
      </trkpt>
      <trkpt lat="48.68699" lon="6.13134">
        <ele>328</ele>
        <time>2013-07-06T12:01:21Z</time>
      </trkpt>
      <trkpt lat="48.68675" lon="6.13132">
        <ele>324</ele>
        <time>2013-07-06T12:01:23Z</time>
      </trkpt>
      <trkpt lat="48.6865" lon="6.13136">
        <ele>324</ele>
        <time>2013-07-06T12:01:25Z</time>
      </trkpt>
      <trkpt lat="48.68625" lon="6.13146">
        <ele>321</ele>
        <time>2013-07-06T12:01:27Z</time>
      </trkpt>
      <trkpt lat="48.686" lon="6.1316">
        <ele>317</ele>
        <time>2013-07-06T12:01:29Z</time>
      </trkpt>
      <trkpt lat="48.68574" lon="6.13181">
        <ele>313</ele>
        <time>2013-07-06T12:01:31Z</time>
      </trkpt>
      <trkpt lat="48.68549" lon="6.13208">
        <ele>311</ele>
        <time>2013-07-06T12:01:33Z</time>
      </trkpt>
      <trkpt lat="48.68526" lon="6.13237">
        <ele>310</ele>
        <time>2013-07-06T12:01:35Z</time>
      </trkpt>
      <trkpt lat="48.68507" lon="6.13271">
        <ele>310</ele>
        <time>2013-07-06T12:01:37Z</time>
      </trkpt>
      <trkpt lat="48.68486" lon="6.13307">
        <ele>310</ele>
        <time>2013-07-06T12:01:39Z</time>
      </trkpt>
      <trkpt lat="48.68474" lon="6.1335">
        <ele>305</ele>
        <time>2013-07-06T12:01:41Z</time>
      </trkpt>
      <trkpt lat="48.68465" lon="6.13394">
        <ele>302</ele>
        <time>2013-07-06T12:01:43Z</time>
      </trkpt>
      <trkpt lat="48.68461" lon="6.13438">
        <ele>300</ele>
        <time>2013-07-06T12:01:45Z</time>
      </trkpt>
      <trkpt lat="48.68463" lon="6.13485">
        <ele>297</ele>
        <time>2013-07-06T12:01:47Z</time>
      </trkpt>
      <trkpt lat="48.68466" lon="6.13529">
        <ele>296</ele>
        <time>2013-07-06T12:01:49Z</time>
      </trkpt>
      <trkpt lat="48.68469" lon="6.13574">
        <ele>291</ele>
        <time>2013-07-06T12:01:51Z</time>
      </trkpt>
      <trkpt lat="48.68471" lon="6.13595">
        <ele>290</ele>
        <time>2013-07-06T12:01:52Z</time>
      </trkpt>
      <trkpt lat="48.68473" lon="6.13617">
        <ele>288</ele>
        <time>2013-07-06T12:01:53Z</time>
      </trkpt>
      <trkpt lat="48.68474" lon="6.13658">
        <ele>287</ele>
        <time>2013-07-06T12:01:55Z</time>
      </trkpt>
      <trkpt lat="48.68473" lon="6.13699">
        <ele>286</ele>
        <time>2013-07-06T12:01:57Z</time>
      </trkpt>
      <trkpt lat="48.6847" lon="6.13738">
        <ele>287</ele>
        <time>2013-07-06T12:01:59Z</time>
      </trkpt>
      <trkpt lat="48.68462" lon="6.13777">
        <ele>287</ele>
        <time>2013-07-06T12:02:01Z</time>
      </trkpt>
      <trkpt lat="48.68447" lon="6.13813">
        <ele>290</ele>
        <time>2013-07-06T12:02:03Z</time>
      </trkpt>
      <trkpt lat="48.6843" lon="6.13845">
        <ele>288</ele>
        <time>2013-07-06T12:02:05Z</time>
      </trkpt>
      <trkpt lat="48.68409" lon="6.13869">
        <ele>283</ele>
        <time>2013-07-06T12:02:07Z</time>
      </trkpt>
      <trkpt lat="48.68386" lon="6.13889">
        <ele>278</ele>
        <time>2013-07-06T12:02:09Z</time>
      </trkpt>
      <trkpt lat="48.68366" lon="6.13906">
        <ele>276</ele>
        <time>2013-07-06T12:02:11Z</time>
      </trkpt>
      <trkpt lat="48.68353" lon="6.13916">
        <ele>274</ele>
        <time>2013-07-06T12:02:13Z</time>
      </trkpt>
      <trkpt lat="48.68339" lon="6.13915">
        <ele>272</ele>
        <time>2013-07-06T12:02:15Z</time>
      </trkpt>
      <trkpt lat="48.68327" lon="6.13913">
        <ele>271</ele>
        <time>2013-07-06T12:02:17Z</time>
      </trkpt>
      <trkpt lat="48.68318" lon="6.13916">
        <ele>271</ele>
        <time>2013-07-06T12:02:19Z</time>
      </trkpt>
      <trkpt lat="48.68308" lon="6.13924">
        <ele>272</ele>
        <time>2013-07-06T12:02:21Z</time>
      </trkpt>
      <trkpt lat="48.68297" lon="6.13935">
        <ele>271</ele>
        <time>2013-07-06T12:02:23Z</time>
      </trkpt>
      <trkpt lat="48.68285" lon="6.13947">
        <ele>271</ele>
        <time>2013-07-06T12:02:25Z</time>
      </trkpt>
      <trkpt lat="48.6827" lon="6.13961">
        <ele>270</ele>
        <time>2013-07-06T12:02:27Z</time>
      </trkpt>
      <trkpt lat="48.68253" lon="6.13978">
        <ele>269</ele>
        <time>2013-07-06T12:02:29Z</time>
      </trkpt>
      <trkpt lat="48.68233" lon="6.13996">
        <ele>267</ele>
        <time>2013-07-06T12:02:31Z</time>
      </trkpt>
      <trkpt lat="48.68212" lon="6.14015">
        <ele>265</ele>
        <time>2013-07-06T12:02:33Z</time>
      </trkpt>
      <trkpt lat="48.68191" lon="6.14032">
        <ele>264</ele>
        <time>2013-07-06T12:02:35Z</time>
      </trkpt>
      <trkpt lat="48.68169" lon="6.1405">
        <ele>264</ele>
        <time>2013-07-06T12:02:37Z</time>
      </trkpt>
      <trkpt lat="48.68145" lon="6.14068">
        <ele>264</ele>
        <time>2013-07-06T12:02:39Z</time>
      </trkpt>
      <trkpt lat="48.68121" lon="6.14084">
        <ele>264</ele>
        <time>2013-07-06T12:02:41Z</time>
      </trkpt>
      <trkpt lat="48.68097" lon="6.14099">
        <ele>263</ele>
        <time>2013-07-06T12:02:43Z</time>
      </trkpt>
      <trkpt lat="48.68075" lon="6.14112">
        <ele>261</ele>
        <time>2013-07-06T12:02:45Z</time>
      </trkpt>
      <trkpt lat="48.6805" lon="6.14124">
        <ele>260</ele>
        <time>2013-07-06T12:02:47Z</time>
      </trkpt>
      <trkpt lat="48.68025" lon="6.14133">
        <ele>259</ele>
        <time>2013-07-06T12:02:49Z</time>
      </trkpt>
      <trkpt lat="48.67999" lon="6.14141">
        <ele>259</ele>
        <time>2013-07-06T12:02:51Z</time>
      </trkpt>
      <trkpt lat="48.67954" lon="6.14153">
        <ele>248</ele>
        <time>2013-07-06T12:02:55Z</time>
      </trkpt>
      <trkpt lat="48.67937" lon="6.14142">
        <ele>249</ele>
        <time>2013-07-06T12:02:57Z</time>
      </trkpt>
      <trkpt lat="48.67918" lon="6.14139">
        <ele>251</ele>
        <time>2013-07-06T12:02:59Z</time>
      </trkpt>
      <trkpt lat="48.67903" lon="6.1415">
        <ele>253</ele>
        <time>2013-07-06T12:03:01Z</time>
      </trkpt>
      <trkpt lat="48.67893" lon="6.14164">
        <ele>253</ele>
        <time>2013-07-06T12:03:03Z</time>
      </trkpt>
      <trkpt lat="48.67889" lon="6.14182">
        <ele>250</ele>
        <time>2013-07-06T12:03:05Z</time>
      </trkpt>
      <trkpt lat="48.67892" lon="6.14196">
        <ele>249</ele>
        <time>2013-07-06T12:03:07Z</time>
      </trkpt>
      <trkpt lat="48.67896" lon="6.14205">
        <ele>247</ele>
        <time>2013-07-06T12:03:09Z</time>
      </trkpt>
      <trkpt lat="48.67898" lon="6.14208">
        <ele>248</ele>
        <time>2013-07-06T12:03:10Z</time>
      </trkpt>
      <trkpt lat="48.679" lon="6.14212">
        <ele>248</ele>
        <time>2013-07-06T12:03:11Z</time>
      </trkpt>
      <trkpt lat="48.67904" lon="6.14218">
        <ele>249</ele>
        <time>2013-07-06T12:03:13Z</time>
      </trkpt>
      <trkpt lat="48.67906" lon="6.14224">
        <ele>250</ele>
        <time>2013-07-06T12:03:15Z</time>
      </trkpt>
      <trkpt lat="48.67909" lon="6.14229">
        <ele>250</ele>
        <time>2013-07-06T12:03:17Z</time>
      </trkpt>
      <trkpt lat="48.6791" lon="6.14232">
        <ele>249</ele>
        <time>2013-07-06T12:03:19Z</time>
      </trkpt>
      <trkpt lat="48.67914" lon="6.14241">
        <ele>246</ele>
        <time>2013-07-06T12:03:29Z</time>
      </trkpt>
      <trkpt lat="48.67917" lon="6.14243">
        <ele>246</ele>
        <time>2013-07-06T12:03:31Z</time>
      </trkpt>
      <trkpt lat="48.6792" lon="6.14244">
        <ele>246</ele>
        <time>2013-07-06T12:03:33Z</time>
      </trkpt>
      <trkpt lat="48.67922" lon="6.1425">
        <ele>244</ele>
        <time>2013-07-06T12:03:35Z</time>
      </trkpt>
      <trkpt lat="48.67928" lon="6.14261">
        <ele>244</ele>
        <time>2013-07-06T12:03:37Z</time>
      </trkpt>
      <trkpt lat="48.67936" lon="6.14272">
        <ele>243</ele>
        <time>2013-07-06T12:03:39Z</time>
      </trkpt>
      <trkpt lat="48.67944" lon="6.14284">
        <ele>243</ele>
        <time>2013-07-06T12:03:41Z</time>
      </trkpt>
      <trkpt lat="48.67952" lon="6.14298">
        <ele>241</ele>
        <time>2013-07-06T12:03:43Z</time>
      </trkpt>
      <trkpt lat="48.67961" lon="6.14315">
        <ele>239</ele>
        <time>2013-07-06T12:03:45Z</time>
      </trkpt>
      <trkpt lat="48.6797" lon="6.14331">
        <ele>242</ele>
        <time>2013-07-06T12:03:47Z</time>
      </trkpt>
      <trkpt lat="48.67981" lon="6.1435">
        <ele>241</ele>
        <time>2013-07-06T12:03:49Z</time>
      </trkpt>
      <trkpt lat="48.67991" lon="6.14371">
        <ele>239</ele>
        <time>2013-07-06T12:03:51Z</time>
      </trkpt>
      <trkpt lat="48.68003" lon="6.14392">
        <ele>239</ele>
        <time>2013-07-06T12:03:53Z</time>
      </trkpt>
      <trkpt lat="48.68014" lon="6.14415">
        <ele>237</ele>
        <time>2013-07-06T12:03:55Z</time>
      </trkpt>
      <trkpt lat="48.68025" lon="6.14437">
        <ele>237</ele>
        <time>2013-07-06T12:03:57Z</time>
      </trkpt>
      <trkpt lat="48.68037" lon="6.14459">
        <ele>239</ele>
        <time>2013-07-06T12:03:59Z</time>
      </trkpt>
      <trkpt lat="48.68048" lon="6.14481">
        <ele>238</ele>
        <time>2013-07-06T12:04:01Z</time>
      </trkpt>
      <trkpt lat="48.68059" lon="6.14502">
        <ele>237</ele>
        <time>2013-07-06T12:04:03Z</time>
      </trkpt>
      <trkpt lat="48.6807" lon="6.14523">
        <ele>238</ele>
        <time>2013-07-06T12:04:05Z</time>
      </trkpt>
      <trkpt lat="48.68081" lon="6.14544">
        <ele>242</ele>
        <time>2013-07-06T12:04:07Z</time>
      </trkpt>
      <trkpt lat="48.68091" lon="6.14564">
        <ele>242</ele>
        <time>2013-07-06T12:04:09Z</time>
      </trkpt>
      <trkpt lat="48.68102" lon="6.14584">
        <ele>240</ele>
        <time>2013-07-06T12:04:11Z</time>
      </trkpt>
      <trkpt lat="48.68112" lon="6.14603">
        <ele>242</ele>
        <time>2013-07-06T12:04:13Z</time>
      </trkpt>
      <trkpt lat="48.68121" lon="6.14622">
        <ele>242</ele>
        <time>2013-07-06T12:04:15Z</time>
      </trkpt>
      <trkpt lat="48.6813" lon="6.14639">
        <ele>242</ele>
        <time>2013-07-06T12:04:17Z</time>
      </trkpt>
      <trkpt lat="48.68139" lon="6.14655">
        <ele>242</ele>
        <time>2013-07-06T12:04:19Z</time>
      </trkpt>
      <trkpt lat="48.68148" lon="6.14674">
        <ele>241</ele>
        <time>2013-07-06T12:04:21Z</time>
      </trkpt>
      <trkpt lat="48.68157" lon="6.14694">
        <ele>243</ele>
        <time>2013-07-06T12:04:23Z</time>
      </trkpt>
      <trkpt lat="48.68166" lon="6.14712">
        <ele>242</ele>
        <time>2013-07-06T12:04:25Z</time>
      </trkpt>
      <trkpt lat="48.68174" lon="6.1473">
        <ele>240</ele>
        <time>2013-07-06T12:04:27Z</time>
      </trkpt>
      <trkpt lat="48.68179" lon="6.14739">
        <ele>237</ele>
        <time>2013-07-06T12:04:28Z</time>
      </trkpt>
      <trkpt lat="48.68184" lon="6.14747">
        <ele>237</ele>
        <time>2013-07-06T12:04:29Z</time>
      </trkpt>
      <trkpt lat="48.68193" lon="6.14765">
        <ele>238</ele>
        <time>2013-07-06T12:04:31Z</time>
      </trkpt>
      <trkpt lat="48.68202" lon="6.14783">
        <ele>237</ele>
        <time>2013-07-06T12:04:33Z</time>
      </trkpt>
      <trkpt lat="48.68211" lon="6.148">
        <ele>236</ele>
        <time>2013-07-06T12:04:35Z</time>
      </trkpt>
      <trkpt lat="48.68219" lon="6.14817">
        <ele>234</ele>
        <time>2013-07-06T12:04:37Z</time>
      </trkpt>
      <trkpt lat="48.68228" lon="6.14835">
        <ele>235</ele>
        <time>2013-07-06T12:04:39Z</time>
      </trkpt>
      <trkpt lat="48.68242" lon="6.14852">
        <ele>235</ele>
        <time>2013-07-06T12:04:41Z</time>
      </trkpt>
      <trkpt lat="48.68257" lon="6.14872">
        <ele>237</ele>
        <time>2013-07-06T12:04:43Z</time>
      </trkpt>
      <trkpt lat="48.6827" lon="6.14889">
        <ele>238</ele>
        <time>2013-07-06T12:04:45Z</time>
      </trkpt>
      <trkpt lat="48.68282" lon="6.14906">
        <ele>240</ele>
        <time>2013-07-06T12:04:47Z</time>
      </trkpt>
      <trkpt lat="48.68293" lon="6.14924">
        <ele>235</ele>
        <time>2013-07-06T12:04:49Z</time>
      </trkpt>
      <trkpt lat="48.68305" lon="6.14943">
        <ele>238</ele>
        <time>2013-07-06T12:04:51Z</time>
      </trkpt>
      <trkpt lat="48.68316" lon="6.14961">
        <ele>237</ele>
        <time>2013-07-06T12:04:53Z</time>
      </trkpt>
      <trkpt lat="48.68328" lon="6.14977">
        <ele>232</ele>
        <time>2013-07-06T12:04:55Z</time>
      </trkpt>
      <trkpt lat="48.6834" lon="6.14993">
        <ele>231</ele>
        <time>2013-07-06T12:04:57Z</time>
      </trkpt>
      <trkpt lat="48.68351" lon="6.15008">
        <ele>231</ele>
        <time>2013-07-06T12:04:59Z</time>
      </trkpt>
      <trkpt lat="48.6836" lon="6.15024">
        <ele>230</ele>
        <time>2013-07-06T12:05:01Z</time>
      </trkpt>
      <trkpt lat="48.68369" lon="6.15043">
        <ele>229</ele>
        <time>2013-07-06T12:05:03Z</time>
      </trkpt>
      <trkpt lat="48.68376" lon="6.15062">
        <ele>228</ele>
        <time>2013-07-06T12:05:05Z</time>
      </trkpt>
      <trkpt lat="48.68382" lon="6.15075">
        <ele>225</ele>
        <time>2013-07-06T12:05:07Z</time>
      </trkpt>
      <trkpt lat="48.68383" lon="6.15085">
        <ele>226</ele>
        <time>2013-07-06T12:05:09Z</time>
      </trkpt>
      <trkpt lat="48.68387" lon="6.15095">
        <ele>228</ele>
        <time>2013-07-06T12:05:11Z</time>
      </trkpt>
      <trkpt lat="48.684" lon="6.15118">
        <ele>229</ele>
        <time>2013-07-06T12:05:15Z</time>
      </trkpt>
      <trkpt lat="48.68403" lon="6.15136">
        <ele>231</ele>
        <time>2013-07-06T12:05:17Z</time>
      </trkpt>
      <trkpt lat="48.68408" lon="6.15156">
        <ele>229</ele>
        <time>2013-07-06T12:05:19Z</time>
      </trkpt>
      <trkpt lat="48.68414" lon="6.15177">
        <ele>225</ele>
        <time>2013-07-06T12:05:21Z</time>
      </trkpt>
      <trkpt lat="48.68422" lon="6.15196">
        <ele>224</ele>
        <time>2013-07-06T12:05:23Z</time>
      </trkpt>
      <trkpt lat="48.68429" lon="6.1522">
        <ele>224</ele>
        <time>2013-07-06T12:05:25Z</time>
      </trkpt>
      <trkpt lat="48.68436" lon="6.15245">
        <ele>219</ele>
        <time>2013-07-06T12:05:27Z</time>
      </trkpt>
      <trkpt lat="48.6844" lon="6.15258">
        <ele>220</ele>
        <time>2013-07-06T12:05:28Z</time>
      </trkpt>
      <trkpt lat="48.68448" lon="6.15293">
        <ele>222</ele>
        <time>2013-07-06T12:05:31Z</time>
      </trkpt>
      <trkpt lat="48.68453" lon="6.15319">
        <ele>220</ele>
        <time>2013-07-06T12:05:33Z</time>
      </trkpt>
      <trkpt lat="48.68456" lon="6.15344">
        <ele>223</ele>
        <time>2013-07-06T12:05:35Z</time>
      </trkpt>
      <trkpt lat="48.68459" lon="6.15369">
        <ele>225</ele>
        <time>2013-07-06T12:05:37Z</time>
      </trkpt>
      <trkpt lat="48.68462" lon="6.15395">
        <ele>227</ele>
        <time>2013-07-06T12:05:39Z</time>
      </trkpt>
      <trkpt lat="48.68466" lon="6.15417">
        <ele>229</ele>
        <time>2013-07-06T12:05:41Z</time>
      </trkpt>
      <trkpt lat="48.68475" lon="6.15456">
        <ele>229</ele>
        <time>2013-07-06T12:05:45Z</time>
      </trkpt>
      <trkpt lat="48.68477" lon="6.15476">
        <ele>226</ele>
        <time>2013-07-06T12:05:47Z</time>
      </trkpt>
      <trkpt lat="48.68479" lon="6.15494">
        <ele>229</ele>
        <time>2013-07-06T12:05:49Z</time>
      </trkpt>
      <trkpt lat="48.68481" lon="6.15512">
        <ele>228</ele>
        <time>2013-07-06T12:05:51Z</time>
      </trkpt>
      <trkpt lat="48.68483" lon="6.15527">
        <ele>231</ele>
        <time>2013-07-06T12:05:53Z</time>
      </trkpt>
      <trkpt lat="48.68483" lon="6.15546">
        <ele>230</ele>
        <time>2013-07-06T12:05:55Z</time>
      </trkpt>
      <trkpt lat="48.68483" lon="6.15564">
        <ele>229</ele>
        <time>2013-07-06T12:05:57Z</time>
      </trkpt>
      <trkpt lat="48.68483" lon="6.1558">
        <ele>229</ele>
        <time>2013-07-06T12:05:59Z</time>
      </trkpt>
      <trkpt lat="48.68483" lon="6.15598">
        <ele>226</ele>
        <time>2013-07-06T12:06:01Z</time>
      </trkpt>
      <trkpt lat="48.68481" lon="6.15615">
        <ele>226</ele>
        <time>2013-07-06T12:06:03Z</time>
      </trkpt>
      <trkpt lat="48.68478" lon="6.15632">
        <ele>224</ele>
        <time>2013-07-06T12:06:05Z</time>
      </trkpt>
      <trkpt lat="48.68476" lon="6.15647">
        <ele>223</ele>
        <time>2013-07-06T12:06:07Z</time>
      </trkpt>
      <trkpt lat="48.68473" lon="6.15661">
        <ele>221</ele>
        <time>2013-07-06T12:06:09Z</time>
      </trkpt>
      <trkpt lat="48.68472" lon="6.15674">
        <ele>222</ele>
        <time>2013-07-06T12:06:11Z</time>
      </trkpt>
      <trkpt lat="48.6847" lon="6.15687">
        <ele>224</ele>
        <time>2013-07-06T12:06:13Z</time>
      </trkpt>
      <trkpt lat="48.68469" lon="6.15699">
        <ele>225</ele>
        <time>2013-07-06T12:06:15Z</time>
      </trkpt>
      <trkpt lat="48.68465" lon="6.15713">
        <ele>226</ele>
        <time>2013-07-06T12:06:17Z</time>
      </trkpt>
      <trkpt lat="48.68462" lon="6.15727">
        <ele>228</ele>
        <time>2013-07-06T12:06:19Z</time>
      </trkpt>
      <trkpt lat="48.68458" lon="6.15743">
        <ele>227</ele>
        <time>2013-07-06T12:06:21Z</time>
      </trkpt>
      <trkpt lat="48.68454" lon="6.15759">
        <ele>227</ele>
        <time>2013-07-06T12:06:23Z</time>
      </trkpt>
      <trkpt lat="48.68453" lon="6.15775">
        <ele>226</ele>
        <time>2013-07-06T12:06:25Z</time>
      </trkpt>
      <trkpt lat="48.68454" lon="6.1579">
        <ele>227</ele>
        <time>2013-07-06T12:06:27Z</time>
      </trkpt>
      <trkpt lat="48.68456" lon="6.15804">
        <ele>226</ele>
        <time>2013-07-06T12:06:29Z</time>
      </trkpt>
      <trkpt lat="48.68459" lon="6.15818">
        <ele>228</ele>
        <time>2013-07-06T12:06:31Z</time>
      </trkpt>
      <trkpt lat="48.68462" lon="6.15832">
        <ele>228</ele>
        <time>2013-07-06T12:06:33Z</time>
      </trkpt>
      <trkpt lat="48.68466" lon="6.15847">
        <ele>225</ele>
        <time>2013-07-06T12:06:35Z</time>
      </trkpt>
      <trkpt lat="48.6847" lon="6.1586">
        <ele>226</ele>
        <time>2013-07-06T12:06:37Z</time>
      </trkpt>
      <trkpt lat="48.68473" lon="6.15871">
        <ele>231</ele>
        <time>2013-07-06T12:06:39Z</time>
      </trkpt>
      <trkpt lat="48.68476" lon="6.15882">
        <ele>233</ele>
        <time>2013-07-06T12:06:41Z</time>
      </trkpt>
      <trkpt lat="48.68478" lon="6.15891">
        <ele>231</ele>
        <time>2013-07-06T12:06:43Z</time>
      </trkpt>
      <trkpt lat="48.6848" lon="6.15896">
        <ele>231</ele>
        <time>2013-07-06T12:06:44Z</time>
      </trkpt>
      <trkpt lat="48.68481" lon="6.159">
        <ele>231</ele>
        <time>2013-07-06T12:06:45Z</time>
      </trkpt>
      <trkpt lat="48.68483" lon="6.15905">
        <ele>230</ele>
        <time>2013-07-06T12:06:46Z</time>
      </trkpt>
      <trkpt lat="48.68485" lon="6.15909">
        <ele>229</ele>
        <time>2013-07-06T12:06:47Z</time>
      </trkpt>
      <trkpt lat="48.68493" lon="6.15932">
        <ele>231</ele>
        <time>2013-07-06T12:06:52Z</time>
      </trkpt>
      <trkpt lat="48.68494" lon="6.15935">
        <ele>232</ele>
        <time>2013-07-06T12:06:53Z</time>
      </trkpt>
      <trkpt lat="48.68496" lon="6.15939">
        <ele>234</ele>
        <time>2013-07-06T12:06:54Z</time>
      </trkpt>
      <trkpt lat="48.68501" lon="6.15956">
        <ele>240</ele>
        <time>2013-07-06T12:06:59Z</time>
      </trkpt>
      <trkpt lat="48.68504" lon="6.15963">
        <ele>238</ele>
        <time>2013-07-06T12:07:01Z</time>
      </trkpt>
      <trkpt lat="48.68506" lon="6.15969">
        <ele>240</ele>
        <time>2013-07-06T12:07:03Z</time>
      </trkpt>
      <trkpt lat="48.68509" lon="6.15977">
        <ele>238</ele>
        <time>2013-07-06T12:07:05Z</time>
      </trkpt>
      <trkpt lat="48.68512" lon="6.15984">
        <ele>234</ele>
        <time>2013-07-06T12:07:07Z</time>
      </trkpt>
      <trkpt lat="48.68518" lon="6.15986">
        <ele>227</ele>
        <time>2013-07-06T12:07:09Z</time>
      </trkpt>
      <trkpt lat="48.68522" lon="6.15984">
        <ele>229</ele>
        <time>2013-07-06T12:07:11Z</time>
      </trkpt>
      <trkpt lat="48.68527" lon="6.15983">
        <ele>233</ele>
        <time>2013-07-06T12:07:13Z</time>
      </trkpt>
      <trkpt lat="48.68531" lon="6.15982">
        <ele>232</ele>
        <time>2013-07-06T12:07:15Z</time>
      </trkpt>
      <trkpt lat="48.68536" lon="6.15981">
        <ele>230</ele>
        <time>2013-07-06T12:07:17Z</time>
      </trkpt>
      <trkpt lat="48.68542" lon="6.15976">
        <ele>235</ele>
        <time>2013-07-06T12:07:21Z</time>
      </trkpt>
    </trkseg>
  </trk>
</gpx>